[[{"header":{"parameterUnit":"m.s-1","parameterCategory":1,"la1":30.6,"la2":28.766,"lo1":-90.7593,"lo2":-88.6598,"dy":0.0162,"dx":0.0183,"nx":116,"ny":114,"refTime":"2023-07-15T12:00:00:Z","depth":0,"parameterNumber":2,"parameterNumberName":"U-component_of_WINDS"},"data":[0.0,0.0,0.0,0.0,0.0,0.0,0.0,0.0,0.0,0.0,0.0,0.0,0.0,0.0,0.0,0.0,0.0,0.0,0.0,0.0,0.0,0.0,0.0,0.0,0.0,0.0,0.0,0.0,0.0,0.0,0.0,0.0,0.0,0.0,0.0,0.0,0.0,0.0,0.0,0.0,0.0,0.0,0.0,0.0,0.0,0.0,0.0,0.0,0.0,0.0,0.0,0.0,0.0,0.0,0.0,0.0,0.0,0.0,0.0,0.0,0.0,0.0,0.0,0.0,0.0,0.0,0.0,0.0,0.0,0.0,0.0,0.0,0.0,0.0,0.0,0.0,0.0,0.0,0.0,0.0,0.0,0.0,0.0,0.0,0.0,0.0,0.0,0.0,0.0,0.0,0.0,0.0,0.0,0.0,0.0,0.0,0.0,0.0,0.0,0.0,0.0,0.0,0.0,0.0,0.0,0.0,0.0,0.0,0.0,0.0,0.0,0.0,0.0,0.0,0.0,0.0,0.0,0.0,0.0,0.0,0.0,0.0,0.0,0.0,0.0,0.0,0.0,0.0,0.0,0.0,0.0,0.0,0.0,0.0,0.0,0.0,0.0,0.0,0.0,0.0,0.0,0.0,0.0,0.0,0.0,0.0,0.0,0.0,0.0,0.0,0.0,0.0,0.0,0.0,0.0,0.0,0.0,0.0,0.0,0.0,0.0,0.0,0.0,0.0,0.0,0.0,0.0,0.0,0.0,0.0,0.0,0.0,0.0,0.0,0.0,0.0,0.0,0.0,0.0,0.0,0.0,0.0,0.0,0.0,0.0,0.0,0.0,0.0,0.0,0.0,0.0,0.0,0.0,0.0,0.0,0.0,0.0,0.0,0.0,0.0,0.0,0.0,0.0,0.0,0.0,0.0,0.0,0.0,0.0,0.0,0.0,0.0,0.0,0.0,0.0,0.0,0.0,0.0,0.0,0.0,0.0,0.0,0.0,0.0,0.0,0.0,0.0,0.0,0.0,0.0,0.0,0.0,0.0,0.0,0.0,0.0,0.0,0.0,0.0,0.0,0.0,0.0,0.0,0.0,0.0,0.0,0.0,0.0,0.0,0.0,0.0,0.0,0.0,0.0,0.0,0.0,0.0,0.0,0.0,0.0,0.0,0.0,0.0,0.0,0.0,0.0,0.0,0.0,0.0,0.0,0.0,0.0,0.0,0.0,0.0,0.0,0.0,0.0,0.0,0.0,0.0,0.0,0.0,0.0,0.0,0.0,0.0,0.0,0.0,0.0,0.0,0.0,0.0,0.0,0.0,0.0,0.0,0.0,0.0,0.0,0.0,0.0,0.0,0.0,0.0,0.0,0.0,0.0,0.0,0.0,0.0,0.0,0.0,0.0,0.0,0.0,0.0,0.0,0.0,0.0,0.0,0.0,0.0,0.0,0.0,0.0,0.0,0.0,0.0,0.0,0.0,0.0,0.0,0.0,0.0,0.0,0.0,0.0,0.0,0.0,0.0,0.0,0.0,0.0,0.0,0.0,0.0,0.0,0.0,0.0,0.0,0.0,0.0,0.0,0.0,0.0,0.0,0.0,0.0,0.0,0.0,0.0,0.0,0.0,0.0,0.0,0.0,0.0,0.0,0.0,0.0,0.0,0.0,0.0,0.0,0.0,0.0,0.0,0.0,0.0,0.0,0.0,0.0,0.0,0.0,0.0,0.0,0.0,0.0,0.0,0.0,0.0,0.0,0.0,0.0,0.0,0.0,0.0,0.0,0.0,0.0,0.0,0.0,0.0,0.0,0.0,0.0,0.0,0.0,0.0,0.0,0.0,0.0,0.0,0.0,0.0,0.0,0.0,0.0,0.0,0.0,0.0,0.0,0.0,0.0,0.0,0.0,0.0,0.0,0.0,0.0,0.0,0.0,0.0,0.0,0.0,0.0,0.0,0.0,0.0,0.0,0.0,0.0,0.0,0.0,0.0,0.0,0.0,0.0,0.0,0.0,0.0,0.0,0.0,0.0,0.0,0.0,0.0,0.0,0.0,0.0,0.0,0.0,0.0,0.0,0.0,0.0,0.0,0.0,0.0,0.0,0.0,0.0,0.0,0.0,0.0,0.0,0.0,0.0,0.0,0.0,0.0,0.0,0.0,0.0,0.0,0.0,0.0,0.0,0.0,0.0,0.0,0.0,0.0,0.0,0.0,0.0,0.0,0.0,0.0,0.0,0.0,0.0,0.0,0.0,0.0,0.0,0.0,0.0,0.0,0.0,0.0,0.0,0.0,0.0,0.0,0.0,0.0,0.0,0.0,0.0,0.0,0.0,0.0,0.0,0.0,0.0,0.0,0.0,0.0,0.0,0.0,0.0,0.0,0.0,0.0,0.0,0.0,0.0,0.0,0.0,0.0,0.0,0.0,0.0,0.0,0.0,0.0,0.0,0.0,0.0,0.0,0.0,0.0,0.0,0.0,0.0,0.0,0.0,0.0,0.0,0.0,0.0,0.0,0.0,0.0,0.0,0.0,0.0,0.0,0.0,0.0,0.0,0.0,0.0,0.0,0.0,0.0,0.0,0.0,0.0,0.0,0.0,0.0,0.0,0.0,0.0,0.0,0.0,0.0,0.0,0.0,0.0,0.0,0.0,0.0,0.0,0.0,0.0,0.0,0.0,0.0,0.0,0.0,0.0,0.0,0.0,0.0,0.0,0.0,0.0,0.0,0.0,0.0,0.0,0.0,0.0,0.0,0.0,0.0,0.0,0.0,0.0,0.0,0.0,0.0,0.0,0.0,0.0,0.0,0.0,0.0,0.0,0.0,0.0,0.0,0.0,0.0,0.0,0.0,0.0,0.0,0.0,0.0,0.0,0.0,0.0,0.0,0.0,0.0,0.0,0.0,0.0,0.0,0.0,0.0,0.0,0.0,0.0,0.0,0.0,0.0,0.0,0.0,0.0,0.0,0.0,0.0,0.0,0.0,0.0,0.0,0.0,0.0,0.0,0.0,0.0,0.0,0.0,0.0,0.0,0.0,0.0,0.0,0.0,0.0,0.0,0.0,0.0,0.0,0.0,0.0,0.0,0.0,0.0,0.0,0.0,0.0,0.0,0.0,0.0,0.0,0.0,0.0,0.0,0.0,0.0,0.0,0.0,0.0,0.0,0.0,0.0,0.0,0.0,0.0,0.0,0.0,0.0,0.0,0.0,0.0,0.0,0.0,0.0,0.0,0.0,0.0,0.0,0.0,0.0,0.0,0.0,0.0,0.0,0.0,0.0,0.0,0.0,0.0,0.0,0.0,0.0,0.0,0.0,0.0,0.0,0.0,0.0,0.0,0.0,0.0,0.0,0.0,0.0,0.0,0.0,0.0,0.0,0.0,0.0,0.0,0.0,0.0,0.0,0.0,0.0,0.0,0.0,0.0,0.0,0.0,0.0,0.0,0.0,0.0,0.0,0.0,0.0,0.0,0.0,0.0,0.0,0.0,0.0,0.0,0.0,0.0,0.0,0.0,0.0,0.0,0.0,0.0,0.0,0.0,0.0,0.0,0.0,0.0,0.0,0.0,0.0,0.0,0.0,0.0,0.0,0.0,0.0,0.0,0.0,0.0,0.0,0.0,0.0,0.0,0.0,0.0,0.0,0.0,0.0,0.0,0.0,0.0,0.0,0.0,0.0,0.0,0.0,0.0,0.0,0.0,0.0,0.0,0.0,0.0,0.0,0.0,0.0,0.0,0.0,0.0,0.0,0.0,0.0,0.0,0.0,0.0,0.0,0.0,0.0,0.0,0.0,0.0,0.0,0.0,0.0,0.0,0.0,0.0,0.0,0.0,0.0,0.0,0.0,0.0,0.0,0.0,0.0,0.0,0.0,0.0,0.0,0.0,0.0,0.0,0.0,0.0,0.0,0.0,0.0,0.0,0.0,0.0,0.0,0.0,0.0,0.0,0.0,0.0,0.0,0.0,0.0,0.0,0.0,0.0,0.0,0.0,0.0,0.0,0.0,0.0,0.0,0.0,0.0,0.0,0.0,0.0,0.0,0.0,0.0,0.0,0.0,0.0,0.0,0.0,0.0,0.0,0.0,0.0,0.0,0.0,0.0,0.0,0.0,0.0,0.0,0.0,0.0,0.0,0.0,0.0,0.0,0.0,0.0,0.0,0.0,0.0,0.0,0.0,0.0,0.0,0.0,0.0,0.0,0.0,0.0,0.0,0.0,0.0,0.0,0.0,0.0,0.0,0.0,0.0,0.0,0.0,0.0,0.0,0.0,0.0,0.0,0.0,0.0,0.0,0.0,0.0,0.0,0.0,0.0,0.0,0.0,0.0,0.0,0.0,0.0,0.0,0.0,0.0,0.0,0.0,0.0,0.0,0.0,0.0,0.0,0.0,0.0,0.0,0.0,0.0,0.0,0.0,0.0,0.0,0.0,0.0,0.0,0.0,0.0,0.0,0.0,0.0,0.0,0.0,0.0,0.0,0.0,0.0,0.0,0.0,0.0,0.0,0.0,0.0,0.0,0.0,0.0,0.0,0.0,0.0,0.0,0.0,0.0,0.0,0.0,0.0,0.0,0.0,0.0,0.0,0.0,0.0,0.0,0.0,0.0,0.0,0.0,0.0,0.0,0.0,0.0,0.0,0.0,0.0,0.0,0.0,0.0,0.0,0.0,0.0,0.0,0.0,0.0,0.0,0.0,0.0,0.0,0.0,0.0,0.0,0.0,0.0,0.0,0.0,0.0,0.0,0.0,0.0,0.0,0.0,0.0,0.0,0.0,0.0,0.0,0.0,0.0,0.0,0.0,0.0,0.0,0.0,0.0,0.0,0.0,0.0,0.0,0.0,0.0,0.0,0.0,0.0,0.0,0.0,0.0,0.0,0.0,0.0,0.0,0.0,0.0,0.0,0.0,0.0,0.0,0.0,0.0,0.0,0.0,0.0,0.0,0.0,0.0,0.0,0.0,0.0,0.0,0.0,0.0,0.0,0.0,0.0,0.0,0.0,0.0,0.0,0.0,0.0,0.0,0.0,0.0,0.0,0.0,0.0,0.0,0.0,0.0,0.0,0.0,0.0,0.0,0.0,0.0,0.0,0.0,0.0,0.0,0.0,0.0,0.0,0.0,0.0,0.0,0.0,0.0,0.0,0.0,0.0,0.0,0.0,0.0,0.0,0.0,0.0,0.0,0.0,0.0,0.0,0.0,0.0,0.0,0.0,0.0,0.0,0.0,0.0,0.0,0.0,0.0,0.0,0.0,0.0,0.0,0.0,0.0,0.0,0.0,0.0,0.0,0.0,0.0,0.0,0.0,0.0,0.0,0.0,0.0,0.0,0.0,0.0,0.0,0.0,0.0,0.0,0.0,0.0,0.0,0.0,0.0,0.0,0.0,0.0,0.0,0.0,0.0,0.0,0.0,0.0,0.0,0.0,0.0,0.0,0.0,0.0,0.0,0.0,0.0,0.0,0.0,0.0,0.0,0.0,0.0,0.0,0.0,0.0,0.0,0.0,0.0,0.0,0.0,0.0,0.0,0.0,0.0,0.0,0.0,0.0,0.0,0.0,0.0,0.0,0.0,0.0,0.0,0.0,0.0,0.0,0.0,0.0,0.0,0.0,0.0,0.0,0.0,0.0,0.0,0.0,0.0,0.0,0.0,0.0,0.0,0.0,0.0,0.0,0.0,0.0,0.0,0.0,0.0,0.0,0.0,0.0,0.0,0.0,0.0,0.0,0.0,0.0,0.0,0.0,0.0,0.0,0.0,0.0,0.0,0.0,0.0,0.0,0.0,0.0,0.0,0.0,0.0,0.0,0.0,0.0,0.0,0.0,0.0,0.0,0.0,0.0,0.0,0.0,0.0,0.0,0.0,0.0,0.0,0.0,0.0,0.0,0.0,0.0,0.0,0.0,0.0,0.0,0.0,0.0,0.0,0.0,0.0,0.0,0.0,0.0,0.0,0.0,0.0,0.0,0.0,0.0,0.0,0.0,0.0,0.0,0.0,0.0,0.0,0.0,0.0,0.0,0.0,0.0,0.0,0.0,0.0,0.0,0.0,0.0,0.0,0.0,0.0,0.0,0.0,0.0,0.0,0.0,0.0,0.0,0.0,0.0,0.0,0.0,0.0,0.0,-1.5645,0.0,0.0,0.0,0.0,0.0,0.0,0.0,0.0,0.0,0.0,0.0,0.0,0.0,0.0,0.0,0.0,0.0,0.0,0.0,0.0,0.0,0.0,0.0,0.0,0.0,0.0,0.0,0.0,0.0,0.0,0.0,0.0,0.0,0.0,0.0,0.0,0.0,0.0,0.0,0.0,0.0,0.0,0.0,0.0,0.0,0.0,0.0,0.0,0.0,0.0,0.0,0.0,0.0,0.0,0.0,0.0,0.0,0.0,0.0,0.0,0.0,0.0,0.0,0.0,0.0,0.0,0.0,0.0,0.0,0.0,0.0,0.0,0.0,0.0,0.0,0.0,0.0,0.0,0.0,0.0,0.0,0.0,0.0,0.0,0.0,0.0,0.0,0.0,0.0,0.0,0.0,0.0,0.0,0.0,0.0,0.0,0.0,0.0,0.0,0.0,0.0,0.0,0.0,0.0,0.0,0.0,0.0,0.0,0.0,0.0,0.0,0.0,0.0,0.0,0.0,0.0,-1.6433,0.0,0.0,0.0,0.0,0.0,0.0,0.0,0.0,0.0,0.0,0.0,0.0,0.0,0.0,0.0,0.0,0.0,0.0,0.0,0.0,0.0,0.0,0.0,0.0,0.0,0.0,0.0,0.0,0.0,0.0,0.0,0.0,0.0,0.0,0.0,0.0,0.0,0.0,0.0,0.0,0.0,0.0,0.0,0.0,0.0,0.0,0.0,0.0,0.0,0.0,0.0,0.0,0.0,0.0,0.0,0.0,0.0,0.0,0.0,0.0,0.0,0.0,0.0,0.0,0.0,0.0,0.0,0.0,0.0,0.0,0.0,0.0,0.0,0.0,0.0,0.0,0.0,0.0,0.0,0.0,0.0,0.0,0.0,0.0,0.0,0.0,0.0,0.0,0.0,0.0,0.0,0.0,0.0,0.0,0.0,0.0,0.0,0.0,0.0,0.0,0.0,0.0,0.0,0.0,0.0,0.0,0.0,0.0,-1.7582,-1.7903,-1.8477,-1.7969,-1.8009,-1.8477,-1.817,-1.7542,-1.674,-1.686,0.0,0.0,0.0,0.0,0.0,0.0,0.0,0.0,0.0,0.0,0.0,0.0,0.0,0.0,0.0,0.0,0.0,0.0,0.0,0.0,0.0,0.0,0.0,0.0,0.0,0.0,0.0,0.0,0.0,0.0,0.0,0.0,0.0,0.0,0.0,0.0,0.0,0.0,-0.6871,-0.7177,-0.738,-0.7509,0.0,0.0,0.0,0.0,0.0,0.0,0.0,0.0,0.0,0.0,0.0,0.0,0.0,0.0,0.0,0.0,0.0,0.0,0.0,0.0,0.0,0.0,0.0,0.0,0.0,0.0,0.0,0.0,0.0,0.0,0.0,0.0,0.0,0.0,0.0,0.0,0.0,0.0,0.0,0.0,0.0,0.0,0.0,0.0,-0.7996,-0.9334,0.0,0.0,0.0,0.0,0.0,0.0,0.0,0.0,0.0,0.0,0.0,0.0,0.0,-1.7569,-1.813,-1.8183,-1.7996,-1.7582,-1.7582,-1.7903,-1.849,-1.841,-1.841,-1.8544,-1.9479,0.0,-1.8437,-1.6714,0.0,0.0,0.0,0.0,0.0,0.0,0.0,0.0,0.0,0.0,0.0,0.0,0.0,0.0,0.0,0.0,0.0,0.0,0.0,0.0,0.0,0.0,0.0,0.0,0.0,0.0,0.0,0.0,0.0,0.0,0.0,0.0,0.0,0.0,0.0,0.0,-0.66,-0.6858,-0.7054,-0.7441,-0.7699,-0.7848,-0.795,-0.8099,-0.8255,-0.7991,0.0,0.0,0.0,0.0,0.0,0.0,0.0,0.0,0.0,0.0,0.0,0.0,0.0,0.0,0.0,0.0,0.0,0.0,0.0,0.0,0.0,0.0,0.0,0.0,0.0,0.0,0.0,0.0,0.0,0.0,0.0,0.0,0.0,0.0,0.0,0.0,0.0,0.0,0.0,-0.7617,-0.8247,-0.9225,-0.979,-1.0897,0.0,0.0,0.0,0.0,0.0,0.0,0.0,0.0,0.0,-1.7889,-1.8183,-1.8544,-1.8985,-1.9305,-1.9586,-1.9813,-1.9639,-1.9933,-2.0601,-2.016,-2.0321,-2.1015,-2.2191,-2.2311,-2.1496,-1.9586,-1.7769,-1.6259,0.0,0.0,0.0,0.0,-1.5832,-1.6086,0.0,0.0,0.0,0.0,0.0,0.0,0.0,0.0,0.0,0.0,0.0,0.0,0.0,0.0,0.0,-1.1577,0.0,0.0,0.0,0.0,0.0,0.0,0.0,0.0,0.0,0.0,0.0,0.0,-0.7505,-0.7555,-0.738,-0.7828,-0.8119,-0.8282,-0.8581,-0.8655,-0.854,-0.835,-0.8269,0.0,0.0,0.0,0.0,0.0,0.0,0.0,0.0,0.0,0.0,0.0,0.0,0.0,0.0,0.0,0.0,0.0,0.0,0.0,0.0,0.0,0.0,0.0,0.0,0.0,0.0,0.0,0.0,0.0,0.0,0.0,0.0,0.0,0.0,0.0,0.0,0.0,0.0,-0.8229,-0.8864,-0.8914,-0.9862,-1.0941,0.0,0.0,0.0,0.0,0.0,0.0,-1.6279,-1.7728,-1.8811,-1.9265,-1.9626,-1.996,-2.0254,-2.0695,-2.1229,-2.1884,-2.1363,-2.1737,-2.2859,-2.2271,-2.2659,-2.3794,-2.4382,-2.4396,-2.3861,-2.2231,-1.9826,-1.7181,-1.7141,-1.7154,-1.7181,-1.7181,-1.7181,-1.7475,0.0,0.0,0.0,0.0,0.0,0.0,0.0,0.0,0.0,0.0,0.0,0.0,0.0,0.0,-1.2532,-1.4156,-1.4188,-1.3311,0.0,0.0,0.0,0.0,0.0,0.0,0.0,0.0,0.0,-0.9008,-0.9209,-0.8926,-0.8004,-0.8452,-0.875,-0.8906,-0.9205,-0.9334,-0.9279,-0.8567,-0.8513,-0.8845,0.0,0.0,0.0,0.0,0.0,0.0,0.0,0.0,0.0,0.0,0.0,0.0,0.0,0.0,0.0,0.0,0.0,0.0,0.0,0.0,0.0,0.0,0.0,0.0,0.0,0.0,0.0,0.0,0.0,0.0,0.0,0.0,0.0,0.0,0.0,0.0,0.0,0.0,0.0,-0.8076,-0.9745,0.0,0.0,0.0,0.0,-1.3281,-1.392,-1.5637,-1.8981,-1.98,-2.0521,-2.1376,-2.1951,-2.2378,-2.2686,-2.2712,-2.2752,-2.2779,-2.1657,-2.2311,-2.4516,-2.4476,-2.5104,-2.6146,-2.509,-2.4623,-2.4502,-2.3273,-2.2017,-2.0521,-1.7208,-1.7929,-2.0842,-2.0842,-2.0842,-2.1015,0.0,0.0,0.0,0.0,0.0,0.0,0.0,0.0,0.0,0.0,0.0,0.0,0.0,-1.2839,-1.3774,-1.4977,-1.5685,-1.5467,-1.3912,0.0,0.0,0.0,0.0,0.0,0.0,0.0,0.0,-0.8364,-0.8836,-0.8877,-0.8764,-0.9022,-0.9225,-0.9381,-0.968,-0.9808,-0.9781,-0.9327,-0.911,-0.9035,-0.8526,-0.8289,0.0,0.0,0.0,0.0,0.0,0.0,0.0,0.0,0.0,0.0,0.0,0.0,0.0,0.0,0.0,0.0,0.0,0.0,0.0,0.0,0.0,0.0,0.0,0.0,0.0,0.0,0.0,0.0,0.0,0.0,0.0,0.0,0.0,0.0,0.0,0.0,0.0,-0.8618,-1.0508,0.0,-1.0397,-1.1321,-1.2599,-1.4198,-1.5472,-1.6686,-1.7641,-2.0409,-2.1641,-2.12,-2.273,-2.3621,-2.3728,-2.4102,-2.4195,-2.4008,-2.4088,-2.4302,-2.4663,-2.5411,-2.5985,-2.6373,-2.5945,-2.5331,-2.4663,-2.4997,-2.4436,-2.31,-2.0321,-2.0935,-2.338,-2.338,-2.338,-2.3434,0.0,0.0,0.0,0.0,0.0,0.0,0.0,0.0,0.0,0.0,0.0,-1.1543,-1.2225,-1.3373,-1.4563,-1.5738,-1.6553,-1.633,-1.4584,0.0,0.0,0.0,0.0,0.0,0.0,0.0,0.0,0.0,-0.9297,-0.9425,-0.9232,-0.9435,-0.9612,-0.9774,-1.0066,-1.0195,-1.0188,-1.0046,-0.972,-0.9266,-0.8818,-0.8662,-0.8621,0.0,0.0,0.0,0.0,0.0,0.0,0.0,0.0,0.0,0.0,0.0,0.0,0.0,0.0,0.0,0.0,0.0,0.0,0.0,0.0,0.0,0.0,0.0,0.0,0.0,0.0,0.0,0.0,0.0,0.0,0.0,0.0,0.0,0.0,0.0,-1.1126,-1.0213,-1.1557,-1.2101,-1.1079,-1.2776,-1.4118,-1.4471,-1.6497,-1.7806,-1.8326,-2.104,-2.2425,-2.2386,-2.3935,-2.4743,-2.4649,-2.509,-2.5197,-2.4943,-2.5665,-2.5732,-2.5251,-2.6039,-2.6386,-2.6386,-2.6386,-2.5718,-2.4703,-2.5478,-2.5571,-2.5037,-2.306,-2.326,-2.4636,-2.4636,-2.4636,-2.4636,0.0,0.0,0.0,0.0,0.0,0.0,0.0,0.0,0.0,0.0,-1.0301,-1.1369,-1.2225,-1.3414,-1.483,-1.6567,-1.67,-1.5796,-1.3572,-1.2704,0.0,0.0,0.0,0.0,0.0,0.0,0.0,0.0,0.0,-1.0501,-0.9415,-0.9707,-0.9924,-1.008,-1.0371,-1.05,-1.0507,-1.0656,-1.0304,-0.9605,-0.915,-0.9049,-0.9103,0.0,0.0,0.0,0.0,0.0,0.0,0.0,0.0,0.0,0.0,0.0,0.0,0.0,0.0,0.0,0.0,0.0,0.0,0.0,0.0,0.0,0.0,0.0,0.0,0.0,0.0,0.0,0.0,0.0,0.0,0.0,0.0,0.0,-1.1353,-1.2923,-1.3781,-1.2697,-1.291,-1.2513,-1.0802,-1.2925,-1.4405,-1.4039,-1.6568,-1.9022,-2.1141,-2.1569,-2.2681,-2.4961,-2.5577,-2.5838,-2.5545,-2.5745,-2.5745,-2.5531,-2.6132,-2.6413,-2.6386,-2.6413,-2.6413,-2.6386,-2.6386,-2.5745,-2.469,-2.469,-2.5358,-2.6279,-2.513,-2.469,-2.469,-2.469,-2.4663,-2.4636,0.0,0.0,0.0,0.0,0.0,0.0,0.0,0.0,0.0,0.0,-1.1009,-1.2432,-1.2674,-1.4255,-1.5805,-1.6927,-1.6633,-1.6062,-1.5337,0.0,0.0,0.0,0.0,0.0,0.0,0.0,0.0,0.0,0.0,0.0,-1.0039,-1.0222,-1.0392,-1.0541,-1.0622,-1.0656,-1.0663,-1.0704,-1.0602,-1.0365,-0.9802,-0.9544,-0.9415,0.0,0.0,0.0,0.0,0.0,0.0,0.0,0.0,0.0,0.0,0.0,0.0,0.0,0.0,0.0,0.0,0.0,0.0,0.0,0.0,0.0,0.0,0.0,0.0,0.0,0.0,0.0,0.0,0.0,0.0,0.0,0.0,-1.5434,-1.4035,-1.3995,-1.4514,-1.5455,-1.5903,-1.5349,-1.3653,-1.5425,-1.6346,-1.5086,-1.5807,-1.6834,-1.7539,-1.9183,-2.0654,-2.1673,-2.3419,-2.4824,-2.6146,-2.6627,-2.648,-2.5732,-2.6613,-2.68,-2.64,-2.6827,-2.6787,-2.6386,-2.6386,-2.6213,-2.5905,-2.5905,-2.6092,-2.636,-2.6039,-2.5905,-2.5905,-2.5905,-2.5371,-2.4636,0.0,0.0,0.0,0.0,0.0,0.0,0.0,0.0,0.0,0.0,-1.1102,-1.2559,-1.2559,-1.4402,-1.5858,-1.6366,-1.6433,-1.577,-1.4299,0.0,0.0,0.0,0.0,0.0,0.0,0.0,0.0,0.0,0.0,0.0,-1.0283,-1.0426,-1.0609,-1.0812,-1.0812,-1.0846,-1.0907,-1.0907,-1.0907,-1.0873,-1.0521,-1.0256,-1.0005,-0.934,-0.9164,-0.9225,-0.8866,-0.8866,-0.8967,-0.8554,0.0,0.0,0.0,0.0,0.0,0.0,0.0,0.0,0.0,0.0,0.0,0.0,0.0,0.0,0.0,0.0,0.0,0.0,0.0,0.0,0.0,0.0,0.0,0.0,-1.434,-1.5639,-1.5727,-1.6306,-1.6781,-1.7005,-1.691,-1.6306,-1.5052,-1.6355,-1.641,-1.4594,-1.5581,-1.6334,-1.6542,-1.8598,-2.0303,-2.1259,-2.3821,-2.5878,-2.7121,-2.7134,-2.7028,-2.6787,-2.7028,-2.7001,-2.6774,-2.7108,-2.6947,-2.6386,-2.6386,-2.6386,-2.6386,-2.6386,-2.6386,0.0,0.0,0.0,0.0,0.0,-2.5224,-2.4636,0.0,0.0,0.0,0.0,0.0,0.0,0.0,0.0,0.0,0.0,0.0,-1.2184,-1.2118,-1.3921,-1.5177,-1.5244,-1.5925,-1.4971,0.0,0.0,0.0,0.0,0.0,0.0,0.0,0.0,0.0,0.0,0.0,0.0,-1.0283,-1.0439,-1.0663,-1.0921,-1.0941,-1.1023,-1.1138,-1.1158,-1.1165,-1.1165,-1.1165,-1.0989,-1.0643,-0.9964,-0.9849,-0.9992,-0.9564,-0.9354,-0.9252,-0.9055,0.0,0.0,0.0,0.0,0.0,0.0,0.0,0.0,0.0,0.0,0.0,0.0,0.0,0.0,0.0,0.0,0.0,0.0,0.0,0.0,0.0,0.0,0.0,0.0,-1.4189,-1.4547,-1.6606,-1.8667,-1.9491,-1.7888,-1.6669,-1.5974,-1.5675,-1.614,-1.5544,-1.3583,-1.5231,-1.6527,-1.7027,0.0,0.0,0.0,0.0,-2.741,-2.8136,-2.7455,-2.7455,-2.8136,-2.7442,-2.7161,-2.7268,-2.7335,-2.7081,-2.6587,-2.6587,-2.652,-2.64,-2.6533,-2.6507,-2.6373,-2.6239,-2.5558,-2.4636,-2.4636,-2.4636,-2.4636,0.0,0.0,0.0,0.0,0.0,0.0,0.0,0.0,0.0,-0.8858,-1.0434,-1.1423,-1.0955,-1.2532,-1.3828,-1.4295,-1.4282,-1.3659,0.0,0.0,0.0,0.0,0.0,0.0,0.0,0.0,0.0,0.0,0.0,0.0,-1.0283,-1.0555,-1.0711,-1.0772,-1.0894,-1.0962,-1.0995,-1.1111,-1.1165,-1.1165,-1.1165,-1.0989,-1.069,-1.0426,-1.0209,-1.0005,-0.968,-0.9781,-0.9985,-0.9469,-0.9496,-0.9652,-0.911,0.0,0.0,0.0,0.0,0.0,0.0,0.0,0.0,0.0,0.0,0.0,0.0,0.0,0.0,0.0,0.0,0.0,0.0,0.0,0.0,-1.3892,-1.5726,-1.6777,-1.5923,-1.8246,-1.9631,-1.8667,-1.7187,-1.6148,-1.6266,-1.6508,-1.5854,-1.3748,-1.402,-1.5123,-1.7205,-1.7678,-1.9745,-2.3995,-2.4711,-2.6079,-2.8136,-2.7989,-2.7989,-2.8136,0.0,0.0,-2.7281,-2.7749,-2.7909,-2.7802,-2.7802,-2.7268,-2.6466,-2.7415,-2.7241,-2.6293,-2.5344,-2.4836,-2.4636,-2.4636,-2.4636,-2.4636,0.0,0.0,0.0,0.0,0.0,0.0,0.0,0.0,0.0,0.0,-1.0207,-1.1156,-1.1009,-1.2318,-1.3333,-1.3627,-1.2425,0.0,0.0,0.0,0.0,0.0,0.0,0.0,0.0,0.0,0.0,0.0,0.0,0.0,-1.029,-1.0582,-1.0799,-1.0948,-1.1023,-1.1145,-1.1287,-1.1362,-1.1389,-1.1389,-1.1389,-1.126,-1.1029,-1.0806,-1.0629,-1.0473,-1.0243,-1.0263,-1.0331,-0.9958,-0.9876,-0.9856,-0.9408,-0.9117,-0.8872,0.0,0.0,0.0,0.0,0.0,0.0,0.0,0.0,0.0,0.0,0.0,0.0,0.0,0.0,-1.0898,0.0,0.0,-1.3547,-1.4318,-1.5097,-1.5409,-1.472,-1.5854,-1.7391,-1.9154,-1.7765,-1.7121,-1.8101,-1.6459,-1.4939,-1.3844,-1.4856,-1.6105,-1.7476,-1.9599,-2.2011,-2.4479,-2.5687,-2.6955,-2.8136,-2.8136,-2.8136,-2.8136,-2.8136,-2.7989,-2.7709,-2.8003,-2.7816,-2.7295,-2.7883,-2.7816,-2.7268,-2.7268,-2.6921,-2.6333,-2.5745,-2.5518,-2.5518,-2.5518,-2.5144,-2.4636,0.0,0.0,0.0,0.0,0.0,0.0,0.0,0.0,0.0,0.0,0.0,-1.0742,-1.0969,-1.1971,-1.2616,0.0,0.0,0.0,0.0,0.0,0.0,0.0,0.0,0.0,0.0,0.0,0.0,0.0,0.0,-1.0432,-1.0331,-1.0595,-1.0846,-1.1077,-1.1138,-1.1301,-1.1538,-1.1592,-1.1619,-1.1619,-1.1619,-1.1545,-1.1409,-1.1138,-1.0995,-1.0928,-1.0772,-1.0582,-1.0392,-1.031,-1.0093,-0.9829,-0.9618,-0.9449,-0.9239,-0.8791,-0.8771,0.0,0.0,0.0,0.0,0.0,0.0,0.0,0.0,0.0,-0.9681,-1.1776,-1.2097,-1.2702,-1.5101,-1.4491,-1.3914,-1.4688,-1.4066,-1.3587,-1.3736,-1.3858,-1.5361,-1.9056,-1.7776,-1.7222,-1.8764,-1.6382,-1.4657,-1.4792,-1.6894,-1.8299,-1.9132,-2.2598,-2.4806,-2.5373,-2.7279,-2.8136,-2.8136,-2.8136,-2.8136,-2.8136,-2.8136,-2.8136,-2.8136,-2.8136,-2.7629,-2.6774,-2.7495,-2.7802,-2.7736,-2.6774,-2.6386,-2.6386,-2.6386,-2.6386,-2.6386,-2.6386,-2.5785,-2.497,0.0,0.0,0.0,0.0,0.0,0.0,0.0,0.0,0.0,0.0,0.0,0.0,0.0,0.0,0.0,0.0,0.0,0.0,0.0,0.0,0.0,0.0,0.0,0.0,0.0,0.0,0.0,0.0,0.0,-1.048,-1.0473,-1.0643,-1.0738,-1.0778,-1.1043,-1.1185,-1.1233,-1.1504,-1.1619,-1.1619,-1.1619,-1.1606,-1.1572,-1.1409,-1.1179,-1.0928,-1.0772,-1.0453,-1.0114,-1.0243,-1.0168,-1.0039,-1.0148,-1.0073,-0.9863,-0.9415,0.0,-0.8689,-0.8486,-0.8377,-0.8411,-0.8771,-0.8784,-0.9022,0.0,0.0,-1.1142,-1.4096,-1.3325,-1.2772,-1.5197,-1.4315,-1.3457,-1.3638,-1.3961,-1.4048,-1.4204,-1.4238,-1.5272,-1.7818,-1.5821,-1.4611,-1.4906,-1.6482,-1.7364,-1.738,-1.9433,-2.1687,-2.3812,-2.4314,-2.5689,-2.7799,-2.8136,-2.8136,-2.8136,-2.8136,-2.8136,-2.8136,-2.8136,-2.8136,-2.8136,-2.8136,-2.807,-2.7896,-2.6987,-2.6587,-2.6573,-2.644,-2.6386,-2.6386,-2.6386,-2.6386,-2.6386,-2.6386,-2.6306,-2.6186,0.0,0.0,0.0,0.0,0.0,0.0,0.0,0.0,0.0,0.0,0.0,0.0,0.0,0.0,0.0,0.0,0.0,0.0,0.0,0.0,0.0,0.0,0.0,0.0,0.0,0.0,0.0,0.0,0.0,-1.1795,-1.2024,-1.1169,-1.0765,-1.086,-1.107,-1.1212,-1.1307,-1.1531,-1.1619,-1.1763,-1.2745,-1.3167,-1.3151,-1.3115,-1.3254,-1.3265,-1.1156,-1.0229,0.0,0.0,-0.9774,-0.9788,-0.9768,-0.9713,-0.9571,-0.9123,-0.8981,0.0,-0.8791,-0.9581,0.0,0.0,-1.1278,-1.2856,-1.1226,-1.1939,-1.3539,-1.5199,-1.4107,-1.3591,-1.6157,-1.5104,-1.377,0.0,-1.5322,-1.6292,-1.637,-1.7331,-1.8379,-1.8996,-1.8051,-1.7664,-1.8244,-1.915,-1.9836,-1.9836,-2.1911,-2.3652,-2.4691,-2.6066,-2.7109,-2.8136,-2.8136,-2.8136,-2.8136,-2.8136,-2.8136,-2.8136,-2.8136,-2.8136,-2.8136,-2.8136,-2.7776,-2.7094,-2.66,-2.6386,-2.6386,-2.6386,-2.6386,-2.6386,-2.6386,-2.5972,-2.5371,-2.5371,-2.5371,-2.5371,0.0,0.0,0.0,0.0,0.0,0.0,0.0,0.0,0.0,0.0,0.0,0.0,0.0,0.0,0.0,0.0,0.0,0.0,0.0,0.0,0.0,0.0,0.0,0.0,0.0,0.0,0.0,0.0,0.0,-1.3509,-1.3886,-1.2743,-1.2219,-1.235,-1.2519,-1.2658,-1.265,-1.2818,-1.2894,-1.3028,-1.442,-1.4973,-1.4937,-1.4499,-1.4594,-1.4683,-1.1682,-1.0572,0.0,0.0,-1.003,-0.9867,-1.0226,-1.0141,-0.9867,-0.9866,-0.9945,-0.9934,-0.9106,0.0,0.0,-1.0925,-1.376,-1.6247,-1.3825,-1.4281,-1.5711,-1.7153,-1.5239,-1.4123,-1.6866,-1.5489,0.0,-1.4156,-1.6102,-1.7687,-1.7687,-1.9362,-2.0427,-1.994,-2.0181,-2.0753,-2.1547,-2.1779,-2.1926,-2.1989,-2.4291,-2.5726,-2.5726,-2.7279,-2.8136,-2.8136,-2.8136,-2.8136,-2.8136,-2.8136,-2.8136,-2.8136,-2.8136,-2.8136,-2.8136,-2.8136,-2.7495,-2.6386,-2.6386,-2.6386,-2.6386,-2.6386,-2.6386,-2.6386,-2.6386,-2.5865,-2.5117,-2.5117,-2.4917,-2.4636,0.0,0.0,0.0,0.0,0.0,0.0,0.0,0.0,0.0,0.0,0.0,0.0,0.0,0.0,0.0,0.0,0.0,0.0,0.0,0.0,0.0,0.0,0.0,0.0,0.0,0.0,0.0,0.0,0.0,-1.5479,-1.5774,-1.5784,-1.5794,-1.5804,-1.5903,-1.6002,-1.6022,-1.6231,-1.6185,-1.632,-1.632,-1.632,-1.6251,-1.5355,-1.471,-1.4033,-1.2242,0.0,0.0,0.0,-1.1362,-1.0476,-1.243,-1.2185,0.0,-1.2402,-1.2539,0.0,0.0,0.0,-1.4195,-1.3653,-1.5522,-1.7633,-1.8922,-1.7611,-1.7111,-2.0249,-1.712,-1.4543,-1.7107,-1.5474,-1.3851,-1.3851,-1.5848,-1.7501,-1.7501,-1.8857,-1.9921,-1.9911,-2.0895,-2.1762,0.0,-2.3167,-2.3878,-2.4123,-2.6605,-2.8136,-2.8136,-2.8136,-2.8136,-2.8136,-2.8136,-2.8136,-2.8136,-2.8136,-2.8136,-2.8136,-2.8136,-2.8136,-2.8136,-2.8136,-2.7495,-2.6386,-2.6386,-2.6386,-2.6386,-2.6386,-2.6386,-2.6386,-2.6386,-2.6373,-2.6333,-2.6333,-2.5611,-2.4636,0.0,0.0,0.0,0.0,0.0,0.0,0.0,0.0,0.0,0.0,0.0,0.0,0.0,0.0,0.0,0.0,0.0,0.0,0.0,0.0,0.0,0.0,0.0,0.0,0.0,0.0,0.0,0.0,-1.6425,-1.6431,-1.6752,-1.5784,-1.5352,-1.5363,-1.5465,-1.5564,-1.5574,-1.5783,-1.5952,-1.6195,-1.7087,-1.7455,-1.7499,-1.6607,-1.6297,-1.6101,0.0,0.0,0.0,0.0,0.0,0.0,-1.1678,0.0,0.0,-1.2339,-1.1879,-1.1433,0.0,0.0,-1.5564,-1.4406,-1.84,-2.1429,-1.6535,-1.7363,-1.9032,-1.8597,-1.6543,-1.5631,-1.7851,-1.7065,-1.6354,-1.6895,-1.9336,-2.1158,-2.1641,-2.37,-2.4576,-2.3174,-2.3653,0.0,0.0,0.0,0.0,-2.6185,-2.7337,-2.7936,-2.8136,-2.8136,-2.8136,-2.8136,-2.8136,-2.8136,-2.8136,-2.8136,-2.8136,-2.8136,-2.8136,-2.8136,-2.8136,-2.8136,-2.7495,-2.6386,-2.6386,-2.6386,-2.6386,-2.6386,-2.6386,-2.6386,-2.6386,-2.6386,-2.6386,-2.6386,-2.6132,-2.5692,0.0,0.0,0.0,0.0,0.0,0.0,0.0,0.0,0.0,0.0,0.0,0.0,0.0,0.0,0.0,0.0,0.0,0.0,0.0,0.0,0.0,0.0,0.0,0.0,0.0,0.0,0.0,0.0,-1.6784,-1.7102,-1.7371,-1.6549,-1.6231,-1.6242,-1.6397,-1.6475,-1.6486,-1.6508,-1.6607,-1.6752,-1.7564,-1.7961,-1.7912,-1.694,-1.6731,0.0,0.0,0.0,0.0,0.0,0.0,0.0,0.0,-1.3081,-1.3369,-1.2545,-1.219,-1.2252,0.0,-1.4471,-1.6201,-1.5044,-1.9093,-2.2145,-1.7095,-1.7741,-1.9025,-1.7955,-1.6284,-1.5466,-1.6738,-1.6651,-1.6509,-1.6907,-1.9754,-2.2315,-2.3213,-2.5211,-2.6266,-2.5371,-2.513,0.0,0.0,0.0,0.0,-2.6894,-2.7415,-2.7789,-2.7976,-2.8083,-2.8136,-2.8136,-2.8136,-2.8136,-2.8136,-2.8136,-2.8136,-2.8136,-2.8136,-2.8136,-2.8136,-2.8136,-2.7495,-2.6386,-2.6386,-2.6386,-2.6386,-2.6386,-2.6386,-2.6386,-2.6386,-2.6386,-2.6386,-2.6386,-2.6386,-2.6226,0.0,0.0,0.0,0.0,0.0,0.0,0.0,0.0,0.0,0.0,0.0,0.0,0.0,0.0,0.0,0.0,0.0,0.0,0.0,0.0,0.0,0.0,0.0,0.0,0.0,0.0,0.0,0.0,-1.678,-1.7194,-1.7488,-1.8076,-1.8357,-1.8384,-1.8384,-1.8384,-1.8397,-1.8397,-1.8237,-1.7969,-1.7956,-1.7782,-1.7435,-1.6567,0.0,0.0,0.0,0.0,0.0,0.0,0.0,0.0,0.0,0.0,-1.5223,-1.3148,-1.3551,-1.4134,-1.1317,-1.3403,-1.631,-1.5975,-1.7715,-1.9875,-2.01,-1.8523,-1.7269,-1.8436,-1.6151,-1.3905,0.0,0.0,-1.4704,-1.4552,-1.7855,-2.0869,-2.2721,-2.4049,-2.5184,0.0,0.0,0.0,0.0,0.0,0.0,-2.6373,0.0,-2.7682,-2.7722,-2.7989,-2.8136,-2.8136,-2.8136,-2.8136,-2.8136,-2.8136,-2.8136,-2.8136,-2.8136,-2.8136,-2.8136,-2.8136,-2.7495,-2.6386,-2.6386,-2.6386,-2.6386,-2.6386,-2.6386,-2.6386,-2.6386,-2.6386,-2.6386,-2.6386,-2.6346,-2.6146,0.0,0.0,0.0,0.0,0.0,0.0,0.0,0.0,0.0,0.0,0.0,0.0,0.0,0.0,0.0,0.0,0.0,0.0,0.0,0.0,0.0,0.0,0.0,0.0,0.0,0.0,0.0,0.0,0.0,-1.5885,-1.5965,-1.6339,-1.662,0.0,-1.6834,-1.6954,-1.7154,-1.7154,-1.7248,-1.7328,0.0,-1.6807,-1.6834,0.0,0.0,0.0,0.0,0.0,0.0,0.0,0.0,0.0,0.0,0.0,-1.3527,-1.4505,0.0,-1.3392,-1.4235,-1.5292,-1.6155,-1.6081,-1.8244,-1.9503,-1.6012,-1.5894,-1.6196,-1.5117,-1.4056,-1.3604,0.0,0.0,0.0,-1.9388,-2.1647,0.0,-2.5257,-2.632,0.0,0.0,0.0,-2.5985,-2.5558,-2.5905,0.0,0.0,-2.7121,-2.7562,-2.8003,-2.8096,-2.8136,-2.8136,-2.8136,-2.8136,-2.8136,-2.8136,-2.8136,-2.8136,-2.8136,-2.8136,-2.8136,-2.8136,-2.7495,-2.6386,-2.6386,-2.6386,-2.6386,-2.6386,-2.6386,-2.6386,-2.6386,-2.6386,-2.6386,-2.6386,-2.5838,-2.5037,0.0,0.0,0.0,0.0,0.0,0.0,0.0,0.0,0.0,0.0,0.0,0.0,0.0,0.0,0.0,0.0,0.0,0.0,0.0,0.0,0.0,0.0,0.0,0.0,0.0,0.0,0.0,0.0,0.0,0.0,0.0,-1.4736,-1.503,-1.5311,-1.5177,-1.5284,-1.5551,0.0,0.0,0.0,0.0,0.0,0.0,0.0,0.0,0.0,0.0,0.0,0.0,0.0,0.0,-1.3494,-1.3806,-1.3413,-1.3154,-1.4211,0.0,-1.3142,-1.4073,-1.4589,-1.4815,-1.4754,-1.6081,-1.6743,-1.3675,-1.4064,-1.4976,-1.4104,-1.3906,0.0,0.0,0.0,0.0,0.0,0.0,0.0,-2.5344,-2.6159,-2.66,0.0,-2.6894,0.0,-2.6507,-2.6774,-2.7081,0.0,-2.7428,-2.7602,-2.7936,-2.807,-2.8136,-2.8136,-2.8136,-2.8136,-2.8136,-2.8136,-2.8136,-2.8136,-2.8136,-2.8136,-2.8136,-2.8136,-2.7495,-2.6386,0.0,-2.6386,-2.6386,-2.6386,-2.6386,-2.6386,-2.6386,-2.6079,-2.5625,-2.5625,-2.5197,-2.4636,0.0,0.0,0.0,0.0,0.0,0.0,0.0,0.0,0.0,0.0,0.0,0.0,0.0,0.0,0.0,0.0,0.0,0.0,0.0,0.0,0.0,0.0,0.0,0.0,0.0,0.0,0.0,0.0,0.0,0.0,0.0,0.0,0.0,0.0,0.0,0.0,0.0,0.0,0.0,0.0,0.0,0.0,0.0,0.0,0.0,0.0,0.0,0.0,0.0,0.0,-1.4605,-1.4059,-1.3546,-1.376,-1.4118,-1.3261,-1.3375,-1.3539,-1.2705,-1.2827,-1.3254,-1.3241,-1.3403,-1.3329,-1.2713,-1.3081,-1.3792,-1.4288,0.0,0.0,-1.4985,0.0,-1.6549,-1.6928,0.0,-2.1657,-2.4315,-2.4957,-2.5772,-2.7495,-2.7468,-2.7442,-2.7722,-2.7762,-2.7869,-2.8123,-2.7896,-2.7762,-2.7762,-2.8003,-2.8136,-2.8136,-2.8136,-2.8136,-2.8136,-2.8136,-2.8136,-2.8136,-2.8136,-2.8136,-2.8136,-2.8136,-2.7589,-2.6627,-2.6627,-2.6533,-2.6386,-2.6386,-2.6386,-2.6386,-2.6386,-2.5758,-2.485,-2.469,-2.4636,-2.4636,0.0,0.0,0.0,0.0,0.0,0.0,0.0,0.0,0.0,0.0,0.0,0.0,0.0,0.0,0.0,0.0,0.0,0.0,0.0,0.0,0.0,0.0,0.0,0.0,0.0,0.0,0.0,0.0,0.0,0.0,0.0,0.0,0.0,0.0,0.0,0.0,0.0,0.0,0.0,0.0,0.0,0.0,0.0,0.0,0.0,0.0,0.0,0.0,0.0,0.0,-1.5857,-1.5977,-1.5142,-1.5839,-1.6661,-1.4711,-1.4828,-1.5171,-1.3554,-1.3363,-1.3695,-1.358,-1.3397,-1.3304,-1.3412,-1.298,0.0,0.0,0.0,-1.2915,-1.4633,0.0,0.0,-1.8104,0.0,0.0,0.0,0.0,0.0,0.0,0.0,0.0,0.0,0.0,0.0,0.0,0.0,-2.807,-2.807,-2.811,-2.8136,-2.8136,-2.8136,-2.8136,-2.8136,-2.8136,-2.8136,-2.8136,-2.8136,-2.8136,-2.8136,-2.8136,-2.803,-2.7843,-2.7843,0.0,-2.6386,-2.6386,-2.6386,-2.6386,-2.6386,-2.6266,-2.5972,-2.4997,-2.4636,-2.4636,0.0,0.0,0.0,0.0,0.0,0.0,0.0,0.0,0.0,0.0,0.0,0.0,0.0,0.0,0.0,0.0,0.0,0.0,0.0,0.0,0.0,0.0,0.0,0.0,0.0,0.0,0.0,0.0,0.0,0.0,0.0,0.0,0.0,0.0,0.0,0.0,0.0,0.0,0.0,0.0,0.0,0.0,0.0,0.0,0.0,0.0,0.0,0.0,0.0,0.0,-1.6838,-1.7424,-1.617,-1.6349,-1.6914,-1.6369,-1.5841,-1.5491,-1.4931,-1.4383,-1.379,-1.3566,-1.3803,-1.3722,-1.309,0.0,0.0,0.0,0.0,-1.3848,-1.485,0.0,0.0,0.0,0.0,0.0,0.0,0.0,0.0,0.0,0.0,0.0,0.0,0.0,0.0,0.0,0.0,-2.8136,-2.8136,-2.8136,-2.8136,-2.8136,-2.8136,-2.8136,-2.8136,-2.8136,-2.8136,-2.8136,-2.8136,-2.8136,-2.8136,-2.8136,-2.8136,-2.8136,-2.8136,-2.7816,-2.7255,-2.664,-2.6386,-2.6386,-2.6386,-2.6386,-2.6253,-2.5077,-2.4636,-2.4636,0.0,0.0,0.0,0.0,0.0,0.0,0.0,0.0,0.0,0.0,0.0,0.0,0.0,0.0,0.0,0.0,0.0,0.0,0.0,0.0,0.0,0.0,0.0,0.0,0.0,0.0,0.0,0.0,0.0,0.0,0.0,0.0,0.0,0.0,0.0,0.0,0.0,0.0,0.0,0.0,0.0,0.0,0.0,0.0,0.0,0.0,0.0,0.0,0.0,0.0,-1.7235,-1.7877,-1.6786,-1.7,-1.7644,-1.7619,-1.7123,-1.6671,-1.6947,-1.5743,-1.4401,-1.4123,-1.4283,-1.4211,-1.2692,-1.3622,0.0,0.0,0.0,-1.4856,-1.479,0.0,0.0,0.0,0.0,0.0,0.0,0.0,0.0,0.0,0.0,0.0,0.0,0.0,0.0,0.0,0.0,0.0,-2.8136,-2.8136,-2.8136,-2.8136,-2.8136,-2.8136,-2.8136,-2.8136,-2.8136,-2.8136,-2.8136,-2.8136,-2.8136,-2.8136,-2.8136,-2.8136,-2.8136,-2.8003,-2.7696,-2.6774,-2.6386,-2.6386,-2.6386,-2.6386,-2.6279,-2.5358,-2.485,-2.4636,0.0,0.0,0.0,0.0,0.0,0.0,0.0,0.0,0.0,0.0,0.0,0.0,0.0,0.0,0.0,0.0,0.0,0.0,0.0,0.0,0.0,0.0,0.0,0.0,0.0,0.0,0.0,0.0,0.0,0.0,0.0,0.0,0.0,0.0,0.0,0.0,0.0,0.0,0.0,0.0,0.0,0.0,0.0,0.0,0.0,0.0,0.0,0.0,0.0,0.0,0.0,-1.6647,-1.7305,-1.9494,-2.1205,-1.7529,0.0,0.0,-1.9705,-1.811,-1.6585,-1.655,-1.5253,-1.3721,-1.2451,0.0,0.0,0.0,-1.3849,-1.4482,-1.4215,-1.4669,0.0,0.0,0.0,0.0,0.0,0.0,0.0,0.0,0.0,0.0,0.0,0.0,0.0,0.0,0.0,0.0,-2.8136,-2.8136,-2.8136,-2.8136,-2.8136,-2.8136,-2.8136,-2.8136,-2.8136,-2.8136,-2.8136,-2.8136,-2.8136,-2.8136,-2.8136,-2.8136,-2.8136,-2.7535,0.0,-2.644,-2.6386,-2.6386,-2.6386,-2.6386,-2.6373,-2.6266,-2.5558,-2.4636,0.0,0.0,0.0,0.0,0.0,0.0,0.0,0.0,0.0,0.0,0.0,0.0,0.0,0.0,0.0,0.0,0.0,0.0,0.0,0.0,0.0,0.0,0.0,0.0,0.0,0.0,0.0,0.0,0.0,0.0,0.0,0.0,0.0,0.0,0.0,0.0,0.0,0.0,0.0,0.0,0.0,0.0,0.0,0.0,0.0,0.0,0.0,0.0,0.0,0.0,0.0,0.0,-1.5899,-1.7368,0.0,0.0,-1.9224,-1.9895,-2.0627,-1.9814,-1.851,-1.8465,-1.7582,-1.64,-1.5383,0.0,0.0,-1.4482,-1.4343,-1.4282,-1.4335,-1.4536,-1.487,0.0,0.0,0.0,0.0,0.0,0.0,0.0,0.0,0.0,0.0,0.0,0.0,0.0,0.0,0.0,-2.8136,-2.8136,-2.8136,-2.8136,-2.8136,-2.8136,-2.8136,-2.8136,-2.8136,-2.8136,-2.8136,-2.8136,-2.8136,-2.8136,-2.7749,-2.7081,-2.7081,-2.6814,0.0,-2.6386,-2.6386,-2.6386,-2.6386,-2.6386,-2.6386,-2.6386,-2.5638,-2.4636,0.0,0.0,0.0,0.0,0.0,0.0,0.0,0.0,0.0,0.0,0.0,0.0,0.0,0.0,0.0,0.0,0.0,0.0,0.0,0.0,0.0,0.0,0.0,0.0,0.0,0.0,0.0,0.0,0.0,0.0,0.0,0.0,0.0,0.0,0.0,0.0,0.0,0.0,0.0,0.0,0.0,0.0,0.0,0.0,0.0,0.0,0.0,0.0,0.0,0.0,0.0,0.0,0.0,0.0,0.0,0.0,-1.9069,-1.9436,-2.1305,-2.0939,-1.9991,-1.999,-1.9018,-1.7888,0.0,0.0,0.0,-1.4708,-1.4313,-1.4148,-1.4349,-1.4469,-1.4616,-1.491,0.0,0.0,0.0,0.0,0.0,0.0,0.0,0.0,0.0,0.0,0.0,0.0,0.0,0.0,-2.8136,-2.8136,-2.8136,-2.8136,-2.8136,-2.8136,-2.8136,-2.8136,-2.8136,-2.8136,-2.8136,-2.8136,-2.8136,-2.8136,-2.7696,-2.6894,-2.6533,-2.6386,0.0,-2.6386,-2.6386,-2.636,-2.6012,-2.6079,-2.6386,-2.6386,-2.5638,-2.4636,0.0,0.0,0.0,0.0,0.0,0.0,0.0,0.0,0.0,0.0,0.0,0.0,0.0,0.0,0.0,0.0,0.0,0.0,0.0,0.0,0.0,0.0,0.0,0.0,0.0,0.0,0.0,-1.0127,-1.0421,0.0,0.0,0.0,0.0,0.0,0.0,0.0,0.0,0.0,0.0,0.0,0.0,0.0,0.0,0.0,0.0,0.0,0.0,0.0,0.0,0.0,0.0,0.0,0.0,0.0,0.0,0.0,-1.8611,-2.0882,-2.1777,-2.152,-2.092,-2.1079,-1.9266,-1.6739,0.0,0.0,0.0,-1.3016,-1.341,-1.4082,-1.4095,-1.4322,-1.4616,-1.491,-1.5204,0.0,0.0,0.0,0.0,0.0,0.0,0.0,0.0,0.0,0.0,0.0,0.0,0.0,-2.8136,-2.8136,-2.8136,-2.8136,-2.8136,-2.8136,-2.8136,-2.8136,-2.8136,-2.8136,-2.8136,-2.8136,-2.8136,-2.8136,-2.8136,-2.8056,-2.6894,-2.6386,0.0,-2.6386,-2.6386,-2.6266,-2.5104,-2.5371,-2.6386,-2.6386,-2.5638,-2.4636,0.0,0.0,0.0,0.0,0.0,0.0,0.0,0.0,0.0,0.0,0.0,0.0,0.0,0.0,0.0,0.0,0.0,0.0,0.0,0.0,0.0,0.0,0.0,0.0,0.0,0.0,-0.9927,-1.0421,-1.0715,-1.0862,0.0,0.0,0.0,0.0,0.0,0.0,0.0,0.0,0.0,0.0,0.0,0.0,0.0,0.0,0.0,0.0,0.0,0.0,0.0,0.0,0.0,0.0,0.0,0.0,0.0,0.0,0.0,0.0,-1.9546,-2.0015,-2.0144,-2.0272,-1.8885,-1.7277,-1.6402,0.0,0.0,-1.4359,-1.4169,-1.4148,-1.4349,-1.4295,-1.4456,-1.515,-1.5337,0.0,0.0,0.0,0.0,0.0,0.0,0.0,0.0,0.0,0.0,0.0,0.0,0.0,-2.8136,-2.8136,-2.8136,-2.8136,-2.8136,-2.8136,-2.8136,-2.8136,-2.8136,-2.8136,-2.8136,-2.8136,-2.8136,-2.8136,-2.7709,-2.6921,-2.6547,-2.6386,-2.6386,-2.6386,-2.6386,-2.6266,-2.509,-2.4863,-2.5291,-2.6092,-2.5638,-2.4636,0.0,0.0,0.0,0.0,0.0,0.0,0.0,0.0,0.0,0.0,0.0,0.0,0.0,0.0,0.0,0.0,0.0,0.0,0.0,0.0,0.0,0.0,0.0,0.0,0.0,-0.9619,-0.9967,-1.0618,-1.0848,-1.1049,-1.1169,-1.1463,-1.1597,0.0,0.0,0.0,0.0,0.0,0.0,0.0,0.0,0.0,-1.2486,0.0,0.0,0.0,0.0,0.0,0.0,0.0,0.0,0.0,0.0,0.0,0.0,0.0,-1.4603,0.0,0.0,-1.8517,-1.9132,-1.9132,-1.8183,0.0,0.0,0.0,0.0,0.0,0.0,-1.4135,-1.4322,-1.4215,-1.4295,-1.4963,-1.5164,0.0,0.0,0.0,0.0,0.0,0.0,0.0,0.0,0.0,0.0,0.0,0.0,0.0,-2.8136,-2.8136,-2.8136,-2.8136,-2.8136,-2.8136,-2.8136,-2.8136,-2.8136,-2.8136,-2.8136,-2.8136,-2.8123,-2.7682,-2.7081,-2.6386,-2.6386,-2.6386,0.0,-2.6386,-2.6132,-2.5651,-2.4917,-2.4636,-2.473,-2.5451,-2.5264,-2.4636,0.0,0.0,0.0,0.0,0.0,0.0,0.0,0.0,0.0,0.0,0.0,0.0,0.0,0.0,0.0,0.0,0.0,0.0,0.0,0.0,0.0,0.0,0.0,0.0,0.0,-0.9539,-0.998,-1.0658,-1.0875,-1.1169,-1.1463,-1.1784,-1.1917,-1.1917,0.0,0.0,0.0,0.0,0.0,0.0,0.0,0.0,0.0,0.0,0.0,0.0,0.0,0.0,0.0,0.0,0.0,0.0,0.0,0.0,0.0,0.0,0.0,0.0,0.0,0.0,0.0,0.0,0.0,0.0,0.0,0.0,0.0,0.0,0.0,0.0,0.0,0.0,-1.4202,-1.4522,0.0,0.0,0.0,0.0,0.0,0.0,0.0,0.0,0.0,0.0,0.0,0.0,0.0,0.0,-2.8136,-2.8136,-2.8136,-2.811,-2.811,-2.811,-2.8096,-2.8123,-2.8136,-2.8136,-2.8056,-2.8016,-2.7976,-2.6881,-2.6386,0.0,-2.6386,-2.6346,-2.6266,-2.6266,-2.5625,-2.4636,-2.4636,-2.4636,-2.4636,-2.4636,-2.4636,-2.4636,0.0,0.0,0.0,0.0,0.0,0.0,0.0,0.0,0.0,0.0,0.0,0.0,0.0,0.0,0.0,0.0,0.0,0.0,0.0,0.0,0.0,0.0,0.0,0.0,0.0,-0.9646,-1.0087,-1.0889,-1.1182,-1.1476,-1.177,-1.2365,-1.2425,-1.2211,-1.2505,0.0,0.0,0.0,0.0,0.0,0.0,0.0,0.0,0.0,0.0,0.0,-1.161,-1.153,0.0,0.0,0.0,0.0,0.0,0.0,0.0,0.0,-1.3253,-1.34,-1.3814,0.0,-1.495,0.0,0.0,0.0,0.0,0.0,0.0,0.0,0.0,0.0,0.0,0.0,0.0,0.0,0.0,0.0,0.0,0.0,0.0,0.0,0.0,0.0,0.0,0.0,0.0,0.0,0.0,-2.8136,-2.8136,-2.8136,-2.8043,-2.7816,-2.7802,-2.7762,-2.7696,-2.7989,-2.8136,-2.8136,-2.7228,-2.68,-2.6787,-2.652,-2.6386,-2.6386,-2.6386,-2.5879,-2.505,-2.505,-2.489,-2.4636,-2.4636,-2.4636,-2.4636,-2.4636,-2.4636,-2.4636,0.0,0.0,0.0,0.0,0.0,0.0,0.0,0.0,0.0,0.0,0.0,0.0,0.0,0.0,0.0,0.0,0.0,0.0,0.0,0.0,0.0,0.0,0.0,0.0,0.0,-1.0319,-1.067,-1.1196,-1.1356,-1.1717,-1.2352,-1.2674,-1.2741,-1.2505,-1.2532,-1.2452,-1.2305,0.0,0.0,0.0,-1.2251,0.0,0.0,0.0,0.0,0.0,-1.1436,-1.1343,0.0,-1.1717,-1.1864,-1.1944,0.0,0.0,0.0,0.0,-1.2893,-1.2973,-1.2826,-1.3333,-1.3841,-1.3681,-1.3868,-1.4015,0.0,0.0,0.0,0.0,0.0,0.0,0.0,0.0,0.0,0.0,0.0,0.0,0.0,0.0,0.0,0.0,0.0,0.0,0.0,0.0,0.0,0.0,0.0,-2.8136,-2.8136,-2.8136,-2.8003,-2.7709,-2.7696,-2.7602,-2.7428,-2.7629,-2.7696,-2.7589,-2.6774,-2.6386,-2.6386,-2.6386,-2.6386,-2.6386,-2.6386,-2.5718,-2.4636,-2.4636,-2.4636,-2.4636,-2.4636,-2.4636,-2.4636,-2.4636,-2.4636,-2.4636,0.0,0.0,0.0,0.0,0.0,0.0,0.0,0.0,0.0,0.0,0.0,0.0,0.0,0.0,0.0,0.0,0.0,0.0,0.0,0.0,0.0,0.0,0.0,-1.0988,-1.0565,-1.0887,-1.1162,-1.1423,-1.1476,-1.1931,-1.2822,-1.2916,-1.2943,-1.2876,-1.2505,-1.2345,-1.2305,-1.2305,0.0,0.0,-1.2211,0.0,0.0,0.0,0.0,0.0,0.0,0.0,0.0,-1.157,-1.1797,-1.1917,-1.2158,0.0,0.0,0.0,0.0,0.0,-1.2425,-1.2986,-1.3546,-1.3534,-1.3801,-1.4001,0.0,0.0,0.0,0.0,0.0,0.0,0.0,0.0,0.0,0.0,0.0,0.0,0.0,0.0,0.0,0.0,0.0,0.0,0.0,0.0,0.0,0.0,0.0,-2.803,-2.807,-2.803,-2.7896,-2.7642,-2.7589,-2.7402,-2.7068,-2.7108,-2.7054,-2.6881,-2.6547,-2.6293,-2.6132,-2.6306,-2.6293,-2.6119,-2.6119,0.0,-2.4636,-2.4636,-2.4636,-2.4636,-2.4636,-2.4636,-2.4636,-2.4636,-2.4636,-2.4636,0.0,0.0,0.0,0.0,0.0,0.0,0.0,0.0,0.0,0.0,0.0,0.0,0.0,0.0,0.0,0.0,0.0,0.0,0.0,0.0,0.0,0.0,-1.093,-1.0019,-0.9833,-0.9887,-1.0424,-1.1423,-1.1677,-1.2131,-1.2835,-1.3267,-1.3373,-1.312,-1.2812,-1.2545,-1.2305,-1.2305,-1.2278,-1.2238,-1.2278,0.0,0.0,0.0,0.0,0.0,0.0,0.0,0.0,-1.1102,-1.1463,-1.1877,-1.1917,0.0,0.0,0.0,0.0,0.0,-1.2701,-1.3146,-1.352,-1.3013,-1.3494,-1.3948,0.0,0.0,0.0,0.0,0.0,0.0,0.0,0.0,0.0,0.0,0.0,0.0,0.0,0.0,0.0,0.0,0.0,0.0,0.0,0.0,0.0,0.0,0.0,-2.7509,-2.7749,-2.7535,-2.7375,-2.7335,-2.7081,-2.6707,-2.6159,-2.64,-2.6507,-2.648,-2.6413,-2.5865,-2.4943,-2.5932,-2.5838,-2.4903,0.0,-2.481,-2.4636,-2.4636,-2.4636,-2.4636,-2.4636,-2.4636,-2.4636,-2.4636,-2.4636,-2.4636,0.0,0.0,0.0,0.0,0.0,0.0,0.0,0.0,0.0,0.0,0.0,0.0,0.0,0.0,0.0,0.0,0.0,0.0,0.0,0.0,0.0,0.0,-1.1127,-1.0678,-1.0778,-1.0957,-1.1247,-1.1663,-1.1957,-1.2492,-1.324,-1.3347,-1.3333,-1.3186,-1.2719,-1.2425,-1.2305,-1.2305,-1.2305,-1.2305,0.0,0.0,0.0,0.0,0.0,0.0,0.0,0.0,0.0,0.0,-1.177,-1.1904,-1.2051,0.0,0.0,0.0,0.0,0.0,-1.2465,-1.2826,-1.3133,-1.3026,-1.3788,-1.4402,0.0,0.0,0.0,0.0,0.0,0.0,0.0,0.0,0.0,0.0,0.0,0.0,0.0,0.0,0.0,0.0,0.0,0.0,0.0,0.0,0.0,0.0,0.0,0.0,-2.7455,-2.7335,-2.7188,-2.7028,-2.6894,-2.6547,-2.5959,-2.5932,-2.5972,-2.6066,-2.5638,-2.5491,-2.5585,-2.5478,-2.5144,-2.4636,0.0,-2.4636,-2.4609,-2.4302,-2.4356,-2.4636,-2.4636,-2.4636,-2.4636,-2.4636,-2.4636,-2.4636,0.0,0.0,0.0,0.0,0.0,0.0,0.0,0.0,0.0,0.0,0.0,0.0,0.0,0.0,0.0,0.0,0.0,0.0,0.0,0.0,-1.2445,-1.1488,-1.1391,-1.143,-1.1464,-1.1762,-1.1963,-1.1971,-1.2331,-1.2933,-1.3734,-1.3454,-1.328,-1.3186,-1.2639,-1.2371,-1.2305,-1.2305,-1.2305,-1.2305,0.0,0.0,0.0,0.0,0.0,0.0,0.0,0.0,0.0,0.0,0.0,0.0,0.0,0.0,0.0,-1.2305,-1.2305,-1.2318,-1.2385,-1.2625,-1.2906,-1.3146,0.0,0.0,0.0,0.0,0.0,0.0,0.0,0.0,0.0,0.0,0.0,0.0,0.0,0.0,0.0,0.0,0.0,0.0,0.0,0.0,0.0,0.0,0.0,0.0,0.0,0.0,-2.7054,-2.6934,-2.6814,-2.672,-2.6587,-2.6306,-2.5852,-2.5558,-2.5504,-2.5665,-2.497,-2.5104,-2.5945,-2.505,-2.4636,-2.4636,-2.4636,-2.4636,-2.4596,-2.4155,-2.4155,-2.4449,-2.4583,-2.4462,-2.4249,-2.4529,-2.4636,-2.4636,0.0,0.0,0.0,0.0,0.0,0.0,0.0,0.0,0.0,0.0,0.0,0.0,0.0,0.0,0.0,0.0,0.0,0.0,0.0,0.0,-1.2578,-1.1801,-1.1704,-1.1337,-1.0662,-1.0951,-1.1478,-1.2265,-1.2852,-1.3454,-1.4055,-1.3748,-1.3467,-1.32,-1.2866,-1.2559,-1.2305,-1.2305,-1.2305,-1.2305,-1.2305,0.0,0.0,0.0,0.0,0.0,0.0,0.0,0.0,0.0,0.0,0.0,0.0,0.0,-1.2305,-1.2305,-1.2305,-1.2358,-1.2714,-1.2946,-1.3186,-1.32,0.0,0.0,0.0,0.0,0.0,0.0,0.0,0.0,0.0,0.0,0.0,0.0,0.0,0.0,0.0,0.0,0.0,0.0,0.0,0.0,0.0,0.0,0.0,0.0,0.0,0.0,-2.644,-2.5932,-2.5879,-2.64,-2.5892,-2.5585,-2.5545,-2.5264,-2.5157,-2.5251,-2.4836,-2.4676,-2.4756,-2.4676,-2.4636,-2.4636,-2.4636,-2.4636,-2.4636,-2.4596,-2.4289,-2.3888,-2.4422,-2.3968,-2.3126,-2.4235,-2.4636,-2.4636,0.0,0.0,0.0,0.0,0.0,0.0,0.0,0.0,0.0,0.0,0.0,0.0,0.0,0.0,0.0,0.0,0.0,0.0,0.0,0.0,-1.2476,-1.1507,-1.1622,-1.1325,-1.0604,-1.1022,-1.1516,-1.2037,-1.2826,-1.3414,-1.3801,-1.332,-1.3026,-1.2906,-1.2599,-1.2412,-1.2305,-1.2305,-1.2305,-1.2305,-1.2305,-1.2238,0.0,0.0,0.0,0.0,0.0,0.0,0.0,0.0,-1.2118,-1.2278,0.0,-1.2211,-1.2305,-1.2305,-1.2305,-1.2331,-1.2438,-1.2839,-1.3253,-1.344,0.0,0.0,0.0,0.0,0.0,0.0,0.0,0.0,0.0,0.0,0.0,0.0,0.0,0.0,0.0,0.0,0.0,0.0,0.0,0.0,0.0,0.0,0.0,0.0,0.0,0.0,-2.5852,-2.5638,-2.5611,-2.5838,-2.5625,-2.5424,-2.5251,-2.513,-2.4917,-2.4583,-2.4623,-2.4636,-2.4636,-2.4636,-2.4636,-2.4636,-2.4636,-2.4636,-2.4636,-2.4636,-2.4289,-2.3834,-2.4409,-2.3915,-2.2913,-2.3367,-2.3527,-2.3527,0.0,0.0,0.0,0.0,0.0,0.0,0.0,0.0,0.0,0.0,0.0,0.0,0.0,0.0,0.0,0.0,0.0,0.0,0.0,-1.2891,-1.2494,-1.1489,-1.1584,-1.1333,-1.0629,-1.1073,-1.1516,-1.2011,-1.2812,-1.3307,-1.3494,-1.2986,-1.2822,-1.2808,-1.2438,-1.2305,-1.2305,-1.2305,-1.2305,-1.2305,-1.2305,-1.2305,0.0,0.0,0.0,0.0,0.0,0.0,0.0,0.0,0.0,0.0,0.0,0.0,0.0,-1.2305,-1.2305,-1.2305,-1.2305,-1.2679,-1.3133,0.0,0.0,0.0,0.0,0.0,0.0,0.0,0.0,0.0,0.0,0.0,0.0,0.0,0.0,0.0,0.0,0.0,0.0,0.0,0.0,0.0,0.0,0.0,0.0,0.0,0.0,0.0,0.0,-2.5237,-2.5237,-2.5237,-2.5237,-2.5144,-2.4943,-2.485,-2.4583,-2.4155,-2.4302,-2.4369,-2.4356,-2.4168,-2.4075,-2.4075,-2.4075,-2.4075,-2.4075,-2.4075,-2.3848,-2.3527,-2.3915,-2.3581,-2.2859,-2.2859,-2.2859,-2.2859,0.0,0.0,0.0,0.0,0.0,0.0,0.0,0.0,0.0,0.0,0.0,0.0,0.0,0.0,0.0,0.0,0.0,0.0,0.0,-1.2891,-1.2559,-1.1814,-1.1721,-1.1399,-1.0679,-1.0905,-1.1423,-1.2305,-1.2906,-1.32,-1.32,-1.2879,-1.2808,-1.2808,0.0,-1.2305,-1.2305,-1.2305,-1.2305,-1.2305,-1.2305,-1.2305,-1.2305,0.0,0.0,0.0,0.0,0.0,0.0,0.0,-1.2305,0.0,0.0,0.0,0.0,0.0,-1.2305,-1.2305,-1.2305,-1.2518,0.0,0.0,0.0,0.0,0.0,0.0,0.0,0.0,0.0,0.0,0.0,0.0,0.0,0.0,0.0,0.0,0.0,0.0,0.0,0.0,0.0,0.0,0.0,0.0,0.0,0.0,0.0,0.0,0.0,-2.4623,-2.4623,-2.4623,-2.4623,-2.4623,-2.4623,-2.4342,-2.4142,-2.4035,-2.3861,-2.3768,-2.3741,-2.314,-2.2859,-2.2859,-2.2859,-2.2859,-2.2859,-2.2859,-2.2859,-2.2859,-2.2859,-2.2859,-2.2859,-2.2859,-2.2859,-2.2859,0.0,0.0,0.0,0.0,0.0,0.0,0.0,0.0,0.0,0.0,0.0,0.0,0.0,0.0,0.0,0.0,0.0,0.0,0.0,-1.2891,-1.2494,-1.1506,-1.1584,-1.1226,-1.0324,-1.0776,-1.1423,-1.2305,-1.2278,-1.2478,-1.2879,-1.2371,-1.2238,-1.2425,0.0,-1.2305,-1.2305,-1.2305,-1.2305,-1.2305,-1.2305,-1.2305,-1.2305,0.0,0.0,0.0,0.0,0.0,0.0,0.0,0.0,0.0,0.0,0.0,0.0,-1.2305,-1.2305,-1.2305,-1.2305,0.0,0.0,0.0,0.0,0.0,0.0,0.0,0.0,0.0,0.0,0.0,0.0,0.0,0.0,0.0,0.0,0.0,0.0,0.0,0.0,0.0,0.0,0.0,0.0,0.0,0.0,0.0,0.0,0.0,0.0,-2.4022,-2.4022,-2.4022,-2.4022,-2.4022,-2.4022,-2.3941,-2.3674,-2.322,-2.3594,-2.3541,-2.3126,-2.2939,-2.2859,-2.2859,-2.2859,-2.2859,-2.2859,-2.2859,-2.2859,-2.2859,-2.2859,-2.2859,-2.2859,-2.2859,-2.2859,-2.2859,0.0,0.0,0.0,0.0,0.0,0.0,0.0,0.0,0.0,0.0,0.0,0.0,0.0,0.0,0.0,0.0,0.0,0.0,0.0,0.0,-1.2113,-1.1341,-1.1392,-1.1137,-1.0461,-1.0808,-1.1249,-1.1784,-1.1717,-1.1931,-1.2459,-1.2037,-1.2091,-1.2478,0.0,-1.2371,-1.2478,-1.2358,-1.2305,-1.2305,-1.2305,-1.2305,-1.2305,0.0,0.0,0.0,0.0,0.0,0.0,0.0,0.0,0.0,0.0,0.0,0.0,-1.2171,-1.2211,-1.2305,-1.2305,0.0,0.0,0.0,0.0,0.0,0.0,0.0,0.0,0.0,0.0,0.0,0.0,0.0,0.0,0.0,0.0,0.0,0.0,0.0,0.0,0.0,0.0,0.0,0.0,0.0,0.0,0.0,0.0,0.0,-2.3607,-2.3714,-2.3714,-2.3594,-2.3714,-2.3714,-2.3594,-2.3474,-2.3166,-2.2686,-2.2939,-2.2832,-2.2405,-2.2726,-2.2859,-2.2859,-2.2859,-2.2859,-2.2859,-2.2859,-2.2859,-2.2859,-2.2859,-2.2859,-2.2859,-2.2859,-2.2859,-2.2859,0.0,0.0,0.0,0.0,0.0,0.0,0.0,0.0,0.0,0.0,0.0,0.0,0.0,0.0,0.0,0.0,0.0,0.0,0.0,0.0,-1.1659,-1.1231,-1.1145,-1.1001,-1.0942,-1.0955,-1.0955,-1.0955,-1.1249,-1.1557,0.0,0.0,-1.2217,-1.2768,0.0,-1.2452,-1.2768,-1.2412,-1.2305,-1.2305,-1.2305,-1.2305,-1.2305,-1.2278,0.0,0.0,0.0,0.0,0.0,0.0,0.0,0.0,0.0,0.0,-1.2251,-1.1984,-1.2091,-1.2318,0.0,0.0,0.0,0.0,0.0,0.0,0.0,0.0,0.0,0.0,0.0,0.0,0.0,0.0,0.0,0.0,0.0,0.0,0.0,0.0,0.0,0.0,0.0,0.0,0.0,0.0,0.0,0.0,0.0,-2.3487,-2.322,-2.346,-2.3487,-2.322,-2.346,-2.3474,-2.3207,-2.2926,-2.2632,-2.2338,-2.2084,-2.1844,-2.167,-2.2485,-2.2806,-2.2699,-2.2699,-2.2766,-2.2859,-2.2859,-2.2859,-2.2859,-2.2859,-2.2859,-2.2859,-2.2859,-2.2859,-2.2859,0.0,0.0,0.0,0.0,0.0,0.0,0.0,0.0,0.0,0.0,0.0,0.0,0.0,0.0,0.0,0.0,0.0,0.0,0.0,0.0,-1.1507,-1.0882,-1.0732,-1.0703,-1.0712,-1.0712,-1.0712,-1.0712,-1.0942,0.0,0.0,0.0,0.0,-1.2398,0.0,-1.2345,-1.2398,-1.2331,-1.2305,-1.2305,-1.2305,-1.2305,-1.2278,-1.2051,-1.2064,0.0,0.0,0.0,0.0,0.0,0.0,0.0,-1.1797,-1.2064,-1.2291,-1.2225,-1.2251,0.0,0.0,0.0,0.0,0.0,0.0,0.0,0.0,0.0,0.0,0.0,0.0,0.0,0.0,0.0,0.0,0.0,0.0,0.0,0.0,0.0,0.0,0.0,0.0,0.0,0.0,0.0,0.0,0.0,-2.2365,-2.2338,-2.2271,-2.2338,-2.2338,-2.2271,-2.2338,-2.2338,-2.2271,-2.2205,-2.2031,-2.1737,-2.175,-2.1577,-2.1269,-2.2365,-2.2352,-2.1483,-2.1483,-2.2004,-2.2859,-2.2859,-2.2859,-2.2859,-2.2859,-2.2859,-2.2859,-2.2859,-2.2859,-2.2859,0.0,0.0,0.0,0.0,0.0,0.0,0.0,0.0,0.0,0.0,0.0,0.0,0.0,0.0,0.0,0.0,0.0,0.0,0.0,0.0,0.0,-1.0647,-1.0643,-1.0685,-1.0768,-1.0698,-1.0618,-1.0618,0.0,0.0,0.0,0.0,0.0,-1.2505,0.0,-1.2385,-1.2505,-1.2358,-1.2305,-1.2305,-1.2305,-1.2305,-1.2278,-1.2131,-1.2091,-1.2091,-1.2078,0.0,0.0,0.0,0.0,0.0,0.0,0.0,-1.2278,-1.2131,-1.2198,-1.2371,0.0,0.0,0.0,0.0,0.0,0.0,0.0,0.0,0.0,0.0,0.0,0.0,0.0,0.0,0.0,0.0,0.0,0.0,0.0,0.0,0.0,0.0,0.0,0.0,0.0,0.0,0.0,-2.1991,-2.1991,-2.1991,-2.1991,-2.1991,-2.1991,-2.1991,-2.1991,-2.1991,-2.1991,-2.1844,-2.1697,-2.155,-2.1456,-2.1309,-2.1136,-2.175,-2.1683,-2.1109,-2.1109,-2.1456,-2.2017,-2.2017,-2.2017,-2.2017,-2.2017,-2.2365,-2.2859,-2.2859,-2.2859,-2.2779,0.0,0.0,0.0,0.0,0.0,0.0,0.0,0.0,0.0,0.0,0.0,0.0,0.0,0.0,0.0,0.0,0.0,0.0,0.0,0.0,0.0,0.0,-1.0591,-1.0675,-1.0915,-1.0688,-1.0618,-1.0618,0.0,0.0,0.0,0.0,0.0,-1.2728,0.0,-1.2438,-1.2728,-1.2412,-1.2305,-1.2305,-1.2305,-1.2305,-1.2291,-1.2251,-1.2104,-1.1971,-1.2158,-1.1917,-1.1543,-1.1784,0.0,0.0,0.0,0.0,-1.2251,-1.2011,-1.2118,-1.2318,0.0,0.0,0.0,0.0,0.0,0.0,0.0,0.0,0.0,0.0,0.0,0.0,0.0,0.0,0.0,0.0,0.0,0.0,0.0,0.0,0.0,0.0,0.0,0.0,0.0,0.0,0.0,-2.183,-2.183,-2.183,-2.183,-2.183,-2.183,-2.183,-2.183,-2.183,-2.183,-2.1603,-2.147,-2.147,-2.1229,-2.1109,-2.1109,-2.1109,-2.1109,-2.1109,-2.1109,-2.1109,-2.1109,-2.1109,-2.1109,-2.1109,-2.1109,-2.171,-2.2565,-2.2565,-2.2565,-2.2418,0.0,0.0,0.0,0.0,0.0,0.0,0.0,0.0,0.0,0.0,0.0,0.0,0.0,0.0,0.0,0.0,0.0,0.0,-1.1358,0.0,0.0,-1.0167,-1.0421,-1.0645,-1.0685,-1.0645,-1.0618,0.0,0.0,0.0,0.0,0.0,0.0,-1.2358,0.0,0.0,-1.2358,-1.2318,-1.2305,-1.2305,-1.2305,-1.2305,-1.2278,-1.2024,-1.2064,-1.2211,-1.1997,-1.1877,-1.1824,-1.185,-1.1864,0.0,0.0,0.0,-1.2291,-1.2251,-1.2278,0.0,0.0,0.0,0.0,0.0,0.0,0.0,0.0,0.0,0.0,0.0,0.0,0.0,0.0,0.0,0.0,0.0,0.0,0.0,0.0,0.0,0.0,0.0,0.0,0.0,0.0,0.0,0.0,-2.1229,-2.1229,-2.1229,-2.1229,-2.1229,-2.1229,-2.1229,-2.1229,-2.1229,-2.1229,-2.1189,-2.1162,-2.1162,-2.1122,-2.1109,-2.1109,-2.1109,-2.1109,-2.1109,-2.1109,-2.1109,-2.1109,-2.1109,-2.1109,-2.1109,-2.1109,-2.1203,-2.1336,-2.1336,-2.1336,-2.1323,0.0,0.0,0.0,0.0,0.0,0.0,0.0,0.0,0.0,0.0,0.0,0.0,0.0,0.0,0.0,-1.3203,-1.2716,-1.2307,-1.2081,-1.142,-1.1081,-1.1081,-1.0725,-1.0618,-1.0618,-1.0618,-1.0618,0.0,0.0,0.0,0.0,-1.2131,-1.2518,0.0,0.0,0.0,0.0,0.0,0.0,-1.2305,-1.2305,-1.2211,-1.2064,-1.2104,-1.2091,-1.2064,-1.2104,-1.2104,-1.2104,-1.2104,-1.2104,-1.2104,-1.2104,0.0,0.0,0.0,-1.2305,0.0,0.0,0.0,0.0,0.0,0.0,0.0,0.0,0.0,0.0,0.0,0.0,0.0,0.0,0.0,0.0,0.0,0.0,0.0,0.0,0.0,0.0,0.0,0.0,0.0,0.0,0.0,-2.0869,-2.0869,-2.0869,-2.0869,-2.0869,-2.0708,-2.0615,-2.0615,-2.0615,-2.0615,-2.0615,-2.0788,-2.0869,-2.0869,-2.1029,-2.0935,-2.0628,-2.0788,-2.0949,-2.1109,-2.1109,-2.1109,-2.1109,-2.1109,-2.1109,-2.1109,-2.1109,-2.1109,-2.1109,-2.1109,-2.1109,-2.1109,0.0,0.0,0.0,0.0,0.0,0.0,0.0,0.0,0.0,0.0,0.0,0.0,0.0,0.0,0.0,0.0,-1.3122,-1.2767,-1.268,-1.1951,-1.1593,-1.1764,-1.1045,-1.0618,-1.0618,-1.0618,0.0,0.0,0.0,0.0,-1.1784,-1.2599,-1.3133,0.0,-1.328,0.0,0.0,0.0,0.0,0.0,0.0,0.0,0.0,-1.2131,-1.2104,-1.2024,-1.2305,-1.2358,-1.2318,-1.2385,-1.2358,-1.2305,-1.2305,-1.2305,0.0,0.0,0.0,0.0,0.0,0.0,0.0,0.0,0.0,0.0,0.0,0.0,0.0,0.0,0.0,0.0,0.0,0.0,0.0,0.0,0.0,0.0,0.0,0.0,0.0,0.0,0.0,0.0,0.0,0.0,-2.0561,-2.0561,-2.0561,-2.0561,-2.0561,-2.0361,-2.0227,-2.0227,-2.0227,-2.0227,-2.0227,-2.0454,-2.0561,-2.0561,-2.0788,-2.0655,-2.0241,-2.0468,-2.0681,-2.0895,-2.0962,-2.1042,-2.1109,-2.1109,-2.1109,-2.1109,-2.1109,-2.1109,-2.1109,-2.1109,-2.1109,-2.1109,0.0,0.0,0.0,0.0,0.0,0.0,0.0,0.0,0.0,0.0,0.0,0.0,-1.3437,-1.3477,-1.3652,-1.4009,-1.3756,-1.3397,-1.302,-1.1531,-1.0982,-1.1764,-1.1045,0.0,-1.0618,-1.0618,0.0,0.0,0.0,0.0,-1.2768,-1.3307,-1.3761,-1.4015,-1.3454,-1.32,-1.3173,0.0,0.0,0.0,0.0,0.0,0.0,0.0,0.0,0.0,0.0,-1.2545,-1.2345,-1.2701,-1.2532,-1.2305,-1.2305,-1.2305,-1.2305,0.0,0.0,0.0,0.0,0.0,0.0,0.0,0.0,0.0,0.0,0.0,0.0,0.0,0.0,0.0,0.0,0.0,0.0,0.0,0.0,0.0,0.0,0.0,0.0,0.0,0.0,0.0,0.0,0.0,-2.0254,-2.0254,-2.0254,-2.0254,-2.0254,-2.0241,-2.0227,-2.0227,-2.0227,-2.0227,-2.0227,-2.0254,-2.0254,-2.0254,-2.0267,-2.0267,-2.0227,-2.0254,-2.0267,-2.0294,-2.0575,-2.0855,-2.1109,-2.1109,-2.1109,-2.1109,-2.1109,-2.1109,-2.1109,-2.1109,-2.1109,-2.1109,0.0,0.0,0.0,0.0,0.0,0.0,0.0,0.0,0.0,0.0,0.0,0.0,0.0,-1.375,-1.4082,-1.4512,-1.4183,-1.3696,-1.3053,-1.1965,-1.1531,-1.1764,-1.1045,-1.0618,-1.0618,-1.0618,0.0,0.0,0.0,-1.169,-1.2271,-1.2786,-1.312,-1.324,-1.3614,-1.3667,-1.3467,-1.3173,0.0,0.0,0.0,0.0,0.0,0.0,0.0,0.0,0.0,0.0,0.0,-1.2946,-1.2973,-1.2852,-1.2652,-1.2585,-1.2545,-1.2358,-1.2305,-1.2305,0.0,0.0,0.0,0.0,0.0,0.0,0.0,0.0,0.0,0.0,0.0,0.0,0.0,0.0,0.0,0.0,0.0,0.0,0.0,0.0,0.0,0.0,0.0,0.0,0.0,0.0,-1.9679,-1.9679,-1.9853,-1.9867,-1.9693,-1.9492,-1.9305,-1.9118,-1.9118,-1.9292,-1.9679,-1.9867,-1.996,-1.996,-2.0147,-2.004,-1.9679,-1.9867,-1.996,-1.996,-2.0067,-2.0388,-2.0842,-2.1029,-2.1109,-2.1109,-2.1109,-2.1109,-2.1109,-2.1109,-2.1109,-2.1109,0.0,0.0,0.0,0.0,0.0,0.0,0.0,0.0,0.0,0.0,0.0,0.0,0.0,0.0,-1.4531,-1.4961,-1.4245,-1.3674,-1.3433,-1.2151,-1.1531,-1.1764,-1.1045,-1.0618,-1.0618,-1.0618,0.0,0.0,0.0,0.0,0.0,-1.2634,-1.2876,-1.2933,-1.352,-1.3681,0.0,0.0,0.0,-1.3173,0.0,0.0,-1.2599,0.0,0.0,0.0,0.0,0.0,0.0,0.0,-1.3227,-1.3039,-1.2933,-1.2903,-1.2768,-1.2385,-1.2305,-1.2305,-1.2305,0.0,0.0,0.0,0.0,0.0,0.0,0.0,0.0,0.0,0.0,0.0,0.0,0.0,0.0,0.0,0.0,0.0,0.0,0.0,0.0,0.0,0.0,0.0,0.0,0.0,-1.9078,-1.9078,-1.9252,0.0,-1.9078,-1.8891,-1.8691,-1.8504,-1.849,-1.8677,-1.9065,-1.9265,-1.9359,-1.9359,-1.9653,-1.9586,-1.9225,-1.9519,-1.9653,-1.9653,-1.9653,-1.9987,-2.0548,-2.0748,-2.0953,-2.0967,-2.1061,-2.1101,-2.1115,-2.1082,-2.1109,-2.1109,0.0,0.0,0.0,0.0,0.0,0.0,0.0,0.0,0.0,-1.4107,0.0,0.0,0.0,0.0,0.0,-1.5294,-1.395,-1.339,-1.4052,-1.1919,-1.101,-1.1717,-1.1073,-1.0645,-1.0645,-1.0645,0.0,0.0,0.0,0.0,0.0,0.0,-1.2893,0.0,-1.3186,-1.3186,-1.3173,0.0,-1.2946,-1.3146,0.0,-1.2452,-1.3186,0.0,0.0,0.0,-1.3988,-1.3908,0.0,-1.3681,0.0,0.0,0.0,0.0,-1.2768,-1.2398,-1.2305,-1.2305,0.0,0.0,0.0,0.0,0.0,0.0,0.0,0.0,0.0,0.0,0.0,0.0,0.0,0.0,0.0,0.0,0.0,0.0,0.0,0.0,0.0,0.0,0.0,0.0,0.0,0.0,-1.8464,-1.8477,-1.8477,-1.8477,-1.8477,-1.8464,-1.8464,-1.8464,-1.8464,-1.8464,-1.8477,-1.8477,-1.8477,-1.849,-1.8784,-1.8918,-1.8931,-1.9225,-1.9372,-1.9372,-1.9372,-1.9693,-2.0214,-2.0362,-2.051,-2.0551,-2.0971,-2.1094,-2.1135,-2.1128,-2.1096,-2.1109,0.0,0.0,0.0,0.0,0.0,0.0,0.0,0.0,0.0,0.0,0.0,0.0,-1.4403,-1.5441,-1.547,-1.3591,-1.4298,-1.3988,-1.2025,-1.2116,-1.1948,-1.1265,-1.1208,-1.1182,-1.1182,-1.1182,0.0,0.0,0.0,0.0,0.0,0.0,0.0,0.0,-1.2559,-1.2559,-1.2585,-1.316,0.0,0.0,-1.3253,-1.3307,0.0,0.0,0.0,0.0,0.0,-1.4349,-1.4309,0.0,-1.4349,-1.3975,0.0,0.0,0.0,-1.2728,-1.2478,-1.2305,-1.2305,0.0,0.0,0.0,0.0,0.0,0.0,0.0,0.0,0.0,0.0,0.0,0.0,0.0,0.0,0.0,0.0,0.0,0.0,0.0,0.0,0.0,0.0,0.0,0.0,-1.7969,-1.7929,0.0,-1.817,-1.817,-1.817,-1.7956,-1.7836,-1.7836,-1.7836,-1.7943,-1.817,-1.817,-1.8277,-1.849,-1.8784,-1.8918,-1.8931,-1.9225,-1.9372,-1.9372,-1.9372,-1.9452,-1.9626,-1.9959,-2.0174,-2.0262,-2.0265,-2.0615,-2.1115,-2.0842,-2.0922,-2.1109,0.0,0.0,0.0,0.0,0.0,0.0,0.0,0.0,0.0,0.0,0.0,0.0,-1.5252,-1.6095,-1.6064,-1.4493,-1.5062,-1.4569,-1.2416,-1.2661,-1.2356,-1.1249,-1.1329,-1.1423,-1.1423,-1.1423,0.0,0.0,0.0,0.0,0.0,0.0,0.0,0.0,0.0,0.0,0.0,0.0,0.0,0.0,-1.332,0.0,0.0,-1.4015,-1.4162,0.0,0.0,0.0,-1.5057,-1.499,-1.4763,0.0,0.0,0.0,0.0,-1.2973,-1.2812,-1.2679,-1.2679,0.0,0.0,0.0,0.0,0.0,-1.2532,-1.2665,0.0,0.0,0.0,0.0,0.0,0.0,0.0,0.0,0.0,0.0,0.0,0.0,0.0,0.0,0.0,0.0,0.0,-1.7328,-1.7288,-1.7475,-1.7488,-1.7488,-1.7488,-1.7315,-1.7221,-1.7221,-1.7221,-1.7301,-1.7488,-1.7488,-1.7635,-1.7929,-1.8223,-1.8437,-1.8584,-1.9125,-1.9374,-1.9407,-1.9394,-1.9421,-1.9456,-1.9623,-1.9813,-1.9853,-1.9947,-2.0347,-2.0873,-2.0695,-2.0855,-2.1109,0.0,0.0,0.0,0.0,0.0,0.0,0.0,0.0,0.0,0.0,-1.6088,-1.6301,-1.6625,-1.6889,-1.6883,-1.667,-1.6132,-1.5309,-1.4197,-1.3473,-1.2589,-1.153,-1.153,-1.153,-1.153,-1.153,0.0,0.0,0.0,0.0,0.0,0.0,0.0,0.0,0.0,0.0,0.0,0.0,0.0,-1.3186,-1.2946,-1.352,0.0,0.0,-1.491,-1.5404,-1.5431,-1.5605,-1.5752,-1.5204,-1.4816,0.0,0.0,0.0,0.0,0.0,-1.324,0.0,0.0,0.0,0.0,0.0,0.0,0.0,-1.2849,-1.2572,-1.2465,0.0,0.0,0.0,0.0,0.0,0.0,0.0,0.0,0.0,0.0,0.0,0.0,0.0,0.0,0.0,-1.67,-1.6673,-1.6673,-1.67,-1.67,-1.67,-1.67,-1.67,-1.67,-1.67,-1.6673,-1.6673,-1.67,-1.6673,-1.6807,-1.7217,-1.7422,-1.7849,-1.8144,-1.8986,-1.9374,-1.9403,-1.9334,-1.93,-1.9453,-1.9381,-1.9386,-1.9439,-1.9929,-2.0226,-2.0416,-2.0494,-2.0788,-2.1069,-1.4473,0.0,0.0,0.0,0.0,0.0,0.0,0.0,0.0,-1.5724,-1.6252,-1.6628,-1.6615,-1.7922,-1.818,-1.6624,-1.6934,-1.6448,-1.4475,-1.4094,-1.3404,-1.2217,-1.2131,-1.2131,-1.2131,-1.2131,0.0,0.0,0.0,0.0,0.0,0.0,0.0,0.0,0.0,0.0,0.0,0.0,0.0,-1.3227,-1.34,0.0,-1.4549,-1.479,-1.5097,-1.5431,-1.5658,-1.5778,-1.5778,-1.5431,-1.5124,-1.4803,0.0,0.0,0.0,-1.3574,0.0,0.0,0.0,0.0,0.0,0.0,0.0,0.0,-1.2997,-1.2893,-1.2906,0.0,0.0,0.0,0.0,0.0,0.0,0.0,0.0,0.0,0.0,0.0,0.0,0.0,0.0,0.0,-1.67,-1.6486,-1.646,-1.6687,-1.67,-1.67,-1.67,-1.67,-1.67,-1.67,-1.6473,-1.6473,-1.67,-1.6473,-1.6612,-1.7022,-1.7445,-1.7622,-1.7702,-1.8413,-1.8931,-1.9389,-1.8865,-1.8971,-1.9453,-1.9381,-1.9376,-1.943,-1.9519,-1.9773,-2.0066,-2.0027,-2.0307,-2.0762,-1.4746,0.0,0.0,0.0,0.0,0.0,0.0,0.0,0.0,-1.6476,-1.7166,-1.775,-1.7958,-1.8735,-1.8673,-1.7151,-1.7915,-1.7379,-1.4714,-1.4926,-1.4471,-1.2835,-1.2759,-1.2759,-1.2759,-1.2759,-1.2679,0.0,0.0,0.0,0.0,0.0,0.0,0.0,0.0,0.0,0.0,0.0,-1.4277,-1.4963,-1.3815,0.0,-1.4349,-1.479,-1.515,-1.5431,-1.5725,-1.6197,-1.6626,-1.567,-1.5741,0.0,0.0,-1.4416,-1.4269,0.0,-1.3975,-1.3828,0.0,0.0,0.0,-1.3681,0.0,0.0,0.0,-1.2973,-1.2933,0.0,0.0,0.0,0.0,0.0,0.0,0.0,0.0,0.0,0.0,0.0,0.0,0.0,0.0,0.0,-1.5832,-1.5832,-1.5952,-1.6246,-1.6273,-1.6273,-1.6273,-1.6273,-1.6273,-1.6273,-1.6126,-1.6126,-1.6273,-1.6126,-1.6303,-1.6711,-1.668,-1.7074,-1.7617,-1.7943,-1.8279,-1.8442,-1.8144,-1.8374,-1.8918,-1.9085,-1.9097,-1.91,-1.9359,-1.9626,-1.9867,-1.9853,-2.0174,-2.0681,-1.4902,0.0,0.0,0.0,0.0,0.0,0.0,0.0,0.0,0.0,-1.8359,-1.9023,-1.9375,-1.9414,-1.9087,-1.8249,-1.8695,-1.7929,-1.5571,-1.5731,-1.525,-1.3817,-1.3595,-1.3488,-1.3355,-1.3488,-1.3393,0.0,0.0,0.0,0.0,0.0,0.0,0.0,0.0,0.0,0.0,0.0,0.0,-1.6563,0.0,-1.3995,-1.4638,-1.4798,-1.5124,-1.5511,-1.5752,-1.648,-1.7188,-1.5923,-1.6063,-1.6635,-1.5096,-1.4816,0.0,0.0,0.0,0.0,0.0,0.0,0.0,0.0,0.0,-1.3788,0.0,0.0,0.0,0.0,0.0,0.0,0.0,0.0,0.0,0.0,0.0,0.0,0.0,0.0,0.0,0.0,0.0,-1.479,-1.479,-1.5057,-1.5324,-1.5565,-1.5631,-1.5631,-1.5578,-1.5685,-1.5752,-1.5752,-1.5805,-1.5832,-1.5832,-1.5832,-1.5952,-1.6289,-1.5914,-1.6289,-1.7225,-1.7459,-1.7607,-1.7647,-1.7642,-1.7908,-1.8455,-1.8624,-1.8751,-1.8831,-1.9252,-1.9506,-1.972,-1.972,-2.0094,-2.0588,-1.5352,-1.5371,0.0,0.0,0.0,0.0,0.0,0.0,0.0,0.0,0.0,0.0,0.0,0.0,0.0,0.0,0.0,0.0,-1.8104,0.0,-1.5096,-1.5847,-1.5096,-1.4436,-1.4079,-1.4421,-1.4632,-1.4587,0.0,0.0,0.0,0.0,0.0,0.0,-1.453,0.0,0.0,0.0,-1.5265,0.0,-1.537,-1.556,0.0,-1.498,-1.507,-1.5792,-1.5818,-1.5927,-1.6008,0.0,-1.5698,-1.5562,0.0,-1.5137,-1.495,-1.4923,0.0,0.0,0.0,0.0,0.0,0.0,-1.4643,0.0,0.0,0.0,-1.3801,-1.3307,0.0,0.0,0.0,0.0,0.0,0.0,0.0,0.0,0.0,0.0,0.0,0.0,0.0,-1.4188,-1.4188,-1.4442,-1.4629,-1.4669,-1.491,-1.495,-1.4683,-1.5164,-1.5444,-1.5444,-1.5698,-1.5832,-1.5832,-1.5832,-1.5845,-1.5885,-1.5822,-1.5869,-1.6045,-1.7056,-1.7558,-1.7585,-1.7595,-1.7833,-1.8211,-1.8273,-1.8565,-1.8958,-1.9252,-1.9386,-1.9412,-1.9412,-1.9786,-2.0281,-1.5508,-1.5605,0.0,0.0,0.0,0.0,0.0,0.0,0.0,0.0,0.0,0.0,0.0,0.0,0.0,0.0,0.0,-1.957,0.0,0.0,-1.7209,-1.7266,-1.6589,-1.6269,-1.6413,-1.6285,-1.6142,-1.5998,-1.5998,0.0,0.0,0.0,0.0,0.0,-1.6497,0.0,-1.8245,0.0,0.0,0.0,0.0,0.0,0.0,-1.6223,-1.5903,-1.6558,-1.5844,-1.6593,-1.7732,0.0,-1.6071,0.0,0.0,0.0,0.0,0.0,0.0,0.0,0.0,0.0,0.0,0.0,0.0,0.0,-1.4028,0.0,-1.3801,0.0,0.0,0.0,0.0,0.0,0.0,0.0,-1.2852,0.0,0.0,0.0,0.0,0.0,0.0,0.0,-1.3814,-1.3935,-1.4082,-1.4255,-1.4389,-1.4469,-1.4522,-1.475,-1.4963,-1.5137,-1.5431,-1.5578,-1.5578,-1.5752,-1.5832,-1.5832,-1.5843,-1.5783,-1.583,-1.6526,-1.6954,-1.7144,-1.7224,-1.741,-1.7555,-1.7915,-1.8071,-1.8216,-1.8805,-1.9212,-1.9372,-1.9372,-1.9626,-2.0,-1.5898,0.0,0.0,0.0,0.0,0.0,0.0,0.0,0.0,0.0,0.0,0.0,-2.0959,-2.1587,0.0,0.0,-2.1911,-2.1212,0.0,0.0,-1.9102,0.0,0.0,0.0,0.0,-1.8006,-1.7785,-1.7473,0.0,0.0,0.0,0.0,0.0,0.0,0.0,-1.8602,-1.9574,0.0,0.0,-2.0236,-1.8506,-1.8387,-1.9037,-1.735,-1.6722,-1.6833,-1.6134,-1.6974,-1.8056,-1.6188,-1.6206,-1.7001,-1.5858,-1.5605,-1.5671,0.0,0.0,0.0,-1.661,0.0,0.0,0.0,0.0,0.0,0.0,0.0,0.0,0.0,0.0,0.0,0.0,0.0,-1.3227,-1.2919,0.0,-1.2746,0.0,0.0,0.0,0.0,0.0,0.0,0.0,-1.34,-1.3494,-1.3707,-1.3801,-1.3935,-1.4148,-1.4309,-1.4536,-1.483,-1.5204,-1.5391,-1.5391,-1.5685,-1.5832,-1.5832,-1.5832,-1.583,-1.5822,-1.6122,-1.6393,-1.6607,-1.6981,-1.7141,-1.7065,-1.7596,-1.7741,-1.7725,-1.8486,-1.8985,-1.9252,-1.9332,-1.9546,-1.984,-1.6636,-1.6636,0.0,0.0,0.0,0.0,0.0,0.0,0.0,0.0,0.0,0.0,0.0,0.0,0.0,0.0,0.0,-2.2378,-2.2066,0.0,-2.0079,0.0,0.0,-1.9552,0.0,0.0,-1.9336,-1.8939,0.0,0.0,0.0,0.0,0.0,0.0,0.0,-1.9102,-2.0488,-1.8911,-1.8917,-1.9905,-1.9206,-1.8318,-1.7449,0.0,-1.7337,-1.6208,-1.6758,0.0,-1.5537,-1.5725,-1.5818,-1.5818,-1.5818,-1.5631,0.0,0.0,0.0,0.0,0.0,0.0,0.0,-1.6655,0.0,0.0,0.0,0.0,-1.4416,0.0,0.0,0.0,-1.4135,-1.3841,-1.3534,-1.324,-1.32,0.0,0.0,0.0,0.0,0.0,0.0,0.0,0.0,-1.2849,-1.2849,-1.2862,-1.3066,-1.324,-1.3253,-1.3788,-1.4242,-1.4522,-1.5097,-1.5391,-1.5391,-1.5685,-1.5832,-1.5832,-1.5832,-1.5832,-1.5845,-1.6139,-1.6273,-1.6326,-1.6786,-1.7025,-1.7052,-1.7462,-1.7649,-1.7711,-1.826,-1.8677,-1.8971,-1.9265,-1.9546,-1.984,0.0,0.0,0.0,0.0,0.0,0.0,0.0,-2.0234,0.0,0.0,0.0,0.0,0.0,-2.4583,-2.5237,0.0,0.0,-2.4694,-2.3691,-2.2701,0.0,0.0,0.0,-2.1282,0.0,0.0,0.0,0.0,0.0,0.0,0.0,0.0,0.0,0.0,0.0,-1.9678,0.0,0.0,0.0,0.0,0.0,-1.9758,-1.8603,0.0,-1.753,-1.7154,-1.585,-1.6373,-1.7462,-1.6054,-1.5671,-1.5832,-1.5832,-1.5765,-1.5873,-1.67,-1.6872,-1.715,-1.8407,-1.7949,-1.7022,-1.7026,-1.6126,-1.5097,-1.4509,0.0,0.0,0.0,0.0,0.0,-1.4304,-1.4573,-1.4568,-1.336,-1.3213,-1.2999,0.0,0.0,0.0,0.0,0.0,0.0,0.0,0.0,0.0,-1.2438,-1.2371,-1.2585,-1.3173,-1.34,-1.3734,-1.4215,-1.4803,-1.511,-1.511,-1.5591,-1.5832,-1.5832,-1.5832,-1.5832,-1.5832,-1.5939,-1.5979,-1.6005,-1.6381,-1.6403,-1.6315,-1.7251,-1.7875,-1.8198,-1.826,-1.8539,-1.8958,-1.9252,-1.9546,-1.9867,-1.8789,0.0,0.0,0.0,0.0,0.0,0.0,0.0,0.0,0.0,-2.3332,0.0,-2.5107,0.0,-2.6738,0.0,-2.6934,-2.6211,-2.4746,-2.4414,0.0,-2.2969,-2.2832,0.0,0.0,0.0,0.0,0.0,0.0,-2.1094,0.0,0.0,0.0,0.0,0.0,0.0,0.0,0.0,-2.0312,0.0,0.0,-2.032,0.0,0.0,-1.7893,-1.7795,-1.6615,-1.6891,-1.7642,-1.6378,-1.579,-1.5698,-1.5792,-1.6035,-1.6392,-1.6779,-1.7505,-1.8224,-1.8573,-1.8226,-1.7609,-1.7251,-1.6281,-1.5271,-1.479,-1.491,-1.4977,-1.4496,0.0,0.0,-1.5176,-1.5456,-1.5368,-1.4214,-1.3584,-1.2999,0.0,-1.2305,0.0,0.0,0.0,0.0,0.0,0.0,-1.2104,-1.2291,-1.2131,-1.2371,0.0,-1.3213,-1.348,-1.4068,-1.4549,-1.4856,-1.4963,-1.5431,-1.5725,-1.5832,-1.5832,-1.5832,-1.5832,-1.5832,-1.5832,-1.5763,-1.6111,-1.6034,-1.5846,-1.7107,-1.7822,-1.8171,-1.833,-1.8597,-1.8824,-1.9225,-1.9613,-2.0027,0.0,0.0,0.0,0.0,-1.9668,0.0,0.0,0.0,-2.2891,0.0,-2.4648,-2.5703,-2.6973,-2.7129,-2.7461,-2.8262,-2.7949,-2.7012,-2.5312,-2.5957,0.0,0.0,-2.3809,-2.3672,-2.2012,0.0,0.0,0.0,0.0,0.0,0.0,0.0,0.0,0.0,-2.0566,0.0,-2.0566,-2.0547,-2.0527,-2.0527,-2.0566,-1.9942,-1.8993,-1.9054,-1.8545,-1.7962,-1.8941,-1.8012,-1.6365,-1.6907,-1.633,-1.5602,-1.5886,-1.6494,-1.707,-1.6021,-1.7372,-1.8896,-1.7627,-1.7522,-1.7702,-1.7266,-1.631,-1.5337,-1.5057,-1.5295,-1.5429,-1.503,-1.5903,-1.6668,-1.6653,-1.6129,-1.5673,-1.5423,-1.4172,-1.3013,-1.2425,0.0,0.0,0.0,0.0,0.0,0.0,-1.2291,-1.2291,-1.2305,-1.2291,0.0,0.0,-1.3213,-1.348,-1.4068,-1.4389,-1.4683,-1.4963,-1.5271,-1.5551,-1.5832,-1.5832,-1.5832,-1.5832,-1.5832,-1.5832,-1.5777,-1.5789,-1.5808,-1.5985,-1.7107,-1.7595,-1.7662,-1.8496,-1.8642,-1.8611,-1.9199,-1.976,-2.0281,-1.9668,-1.9922,-2.0215,0.0,-2.0273,-2.0176,0.0,0.0,0.0,0.0,-2.6328,-2.7715,-2.8359,-2.8711,-2.8867,-2.8769,-2.8652,0.0,0.0,0.0,0.0,-2.4961,-2.4902,-2.4394,-2.332,-2.3398,0.0,-2.1719,0.0,0.0,-2.0742,0.0,0.0,0.0,0.0,0.0,-2.0547,-2.0215,-2.0078,-2.0117,-2.043,-2.0112,-1.9354,0.0,-1.9691,-1.8924,-1.8138,-1.8141,-1.8479,-1.7839,-1.7565,-1.7523,-1.7528,-1.7919,-1.8491,-1.9129,-2.0024,-2.0427,-1.9257,-1.8975,-1.8564,-1.6649,-1.59,-1.5645,-1.5351,-1.6239,-1.6679,-1.5251,-1.661,-1.7392,-1.543,-1.5403,-1.5345,-1.4239,-1.3547,-1.316,-1.2999,0.0,0.0,-1.3267,0.0,0.0,0.0,-1.2104,-1.2078,-1.2291,-1.2104,0.0,0.0,0.0,-1.348,-1.4068,-1.4589,-1.4883,-1.4757,-1.5365,-1.5752,-1.5832,-1.5832,-1.5832,-1.5832,-1.5832,-1.5843,-1.5848,-1.5767,-1.6263,-1.7177,-1.7435,-1.7596,-1.7714,-1.8343,-1.887,-1.9212,-1.98,-2.0107,-2.0307,-2.0371,0.0,0.0,-2.1504,0.0,0.0,-2.2266,0.0,0.0,-2.5234,-2.6758,0.0,-2.8066,-2.8633,-2.8906,-2.8672,-2.8652,0.0,-2.7441,0.0,0.0,-2.5781,-2.5684,-2.5059,-2.3828,-2.3418,0.0,-2.1894,0.0,0.0,-2.0859,0.0,0.0,0.0,0.0,-2.0566,0.0,-2.0312,-2.0195,-2.0215,-2.0469,-2.0311,0.0,-2.041,-2.0311,-1.9826,-1.9029,-1.8941,-1.9156,-1.8659,-1.8263,-1.8038,-1.8202,-1.8729,-1.9436,-1.9782,-2.0781,-2.1368,-1.9281,-1.9131,-1.8948,-1.6386,-1.5832,-1.5792,-1.5618,-1.6261,-1.657,-1.5589,-1.6652,-1.7363,-1.5963,-1.5922,-1.5558,-1.4061,-1.3587,-1.336,0.0,0.0,0.0,0.0,-1.316,0.0,-1.2719,-1.2305,-1.2131,-1.2291,-1.2144,0.0,0.0,0.0,-1.3427,-1.3881,-1.4469,-1.483,-1.486,-1.5312,-1.5604,-1.5832,-1.5832,-1.5832,-1.5832,-1.5832,-1.5774,-1.5843,-1.613,-1.6759,-1.7633,-1.758,-1.7569,-1.7648,-1.8207,-1.8851,-1.9439,-2.0013,-2.0227,-2.0321,0.0,0.0,0.0,0.0,0.0,0.0,0.0,-2.4219,0.0,-2.5918,0.0,-2.748,-2.7363,-2.8066,-2.8496,-2.8379,0.0,-2.8027,-2.7226,-2.7832,-2.7519,-2.5977,-2.6152,-2.5547,-2.3906,-2.3027,-2.2383,0.0,0.0,0.0,0.0,0.0,0.0,0.0,0.0,0.0,0.0,-2.0547,-2.0527,-2.0488,-2.0547,-2.0566,-2.0566,-2.0566,-2.0566,-2.0566,-2.0566,-2.0001,-1.925,-1.9516,-1.8971,-1.8196,-1.8431,-1.9245,-2.0045,-1.9487,-2.0793,-2.1806,-1.8776,-1.8688,-1.8948,-1.6386,-1.5832,-1.5832,-1.5832,-1.5927,-1.6021,-1.5832,-1.6494,-1.698,-1.698,-1.6639,-1.5893,-1.4453,-1.3988,0.0,0.0,0.0,0.0,0.0,0.0,0.0,0.0,0.0,0.0,0.0,0.0,0.0,0.0,0.0,-1.34,-1.3694,-1.4269,-1.4723,-1.512,-1.5206,-1.5485,-1.579,-1.5845,-1.5832,-1.5832,-1.5832,-1.5909,-1.6117,-1.6593,-1.713,-1.7571,-1.7593,-1.7635,-1.7756,-1.829,-1.8851,-1.9439,-2.0013,-2.0227,-2.0321,0.0,0.0,0.0,0.0,0.0,-2.4668,-2.5762,-2.6523,-2.7187,-2.7773,-2.9219,-2.9941,-2.9199,-2.957,-2.957,-2.8867,-2.8809,0.0,0.0,0.0,0.0,-2.6816,-2.6191,-2.5371,-2.4336,-2.3477,-2.2832,0.0,0.0,0.0,0.0,0.0,0.0,0.0,0.0,0.0,-2.0059,-2.041,0.0,-2.0059,-2.043,-2.0566,-2.0566,-2.0566,-2.0566,-2.0566,-2.0566,-2.0489,-2.0333,-2.041,-2.0272,-2.0115,-2.0191,-2.0537,-2.1,-2.1256,-2.189,-2.1978,-1.976,-1.9314,-1.8948,-1.6386,-1.5832,-1.5832,-1.5832,-1.6574,-1.7044,-1.6021,-1.6494,-1.6889,-1.5929,-1.5513,-1.5191,-1.4919,-1.4763,0.0,0.0,0.0,0.0,0.0,0.0,-1.3667,0.0,0.0,0.0,0.0,0.0,0.0,0.0,0.0,-1.3707,-1.4001,-1.4576,-1.5134,-1.5626,-1.5712,-1.5695,-1.5751,-1.583,-1.5832,-1.5832,-1.5832,-1.6346,-1.7313,-1.7369,-1.7469,-1.762,-1.7569,-1.7996,-1.859,-1.8574,-1.8851,-1.9439,-2.0013,-2.0227,-2.0321,0.0,0.0,0.0,0.0,0.0,0.0,0.0,-2.8242,-2.8555,-2.832,-2.9023,-2.9375,-2.8945,-2.9277,-2.9375,-2.8945,-2.8711,-2.8516,-2.8301,-2.7891,-2.748,-2.7031,-2.6191,-2.5332,-2.4434,-2.3164,-2.25,-2.2519,0.0,-2.1133,-2.1562,0.0,0.0,0.0,0.0,-2.0996,0.0,0.0,-2.0449,-2.0273,-2.0488,-2.0566,-2.0566,-2.0566,-2.0566,-2.0566,-2.0566,-2.0566,-2.0566,-2.0566,-2.0566,-2.0566,-2.0566,-2.0723,-2.0977,-2.1426,-2.1403,-2.1022,-2.036,-1.9348,-1.8319,-1.703,-1.6292,-1.5832,-1.5832,-1.6292,-1.6574,-1.5927,-1.6168,-1.6337,-1.5712,-1.5915,-1.5979,-1.5268,-1.5708,0.0,0.0,0.0,-1.475,0.0,0.0,0.0,0.0,0.0,0.0,0.0,0.0,0.0,0.0,0.0,-1.3707,-1.3854,-1.4576,-1.5134,-1.5372,-1.5832,-1.6007,-1.5827,-1.579,-1.5832,-1.5832,-1.5832,-1.6263,-1.7155,-1.7268,-1.7395,-1.7595,-1.7756,-1.809,-1.8628,-1.8664,-1.8985,-1.9412,-1.9853,-2.0107,-2.0321,0.0,-2.4551,0.0,0.0,-2.6738,0.0,-2.8516,-2.9258,-2.9453,-2.8789,-2.8613,-2.8535,-2.8437,-2.8809,-2.8984,-2.8809,-2.8574,-2.834,-2.8164,-2.7773,-2.7344,-2.6894,-2.5957,-2.5137,-2.4434,-2.2832,-2.2187,0.0,0.0,-2.1211,-2.1894,0.0,0.0,0.0,0.0,0.0,0.0,-2.0762,-2.0625,-2.0703,-2.0605,-2.0566,-2.0566,-2.0566,-2.0566,-2.0566,-2.0566,-2.0566,-2.0566,-2.0566,-2.0566,-2.0566,-2.0566,-2.0566,-2.0664,-2.1094,-2.0775,-2.028,-2.058,-1.9524,-1.821,-1.7764,-1.6836,-1.6101,-1.6101,-1.5913,-1.5846,-1.6089,-1.6197,-1.6292,-1.656,-1.7169,-1.7356,-1.638,-1.6824,-1.6919,-1.5708,0.0,0.0,0.0,0.0,0.0,-1.4769,0.0,0.0,0.0,0.0,0.0,-1.34,0.0,-1.3734,-1.3734,-1.4536,-1.499,-1.5057,-1.5885,-1.6184,-1.5925,-1.5858,-1.5858,-1.5925,-1.5925,-1.6246,-1.6908,-1.7035,-1.7257,-1.7583,-1.7835,-1.825,-1.8611,-1.8838,-1.9105,-1.9399,-1.9693,-1.9987,-2.0307,0.0,0.0,0.0,0.0,0.0,0.0,-2.7891,-2.9121,-3.0117,-3.0019,-2.9687,-2.9297,-2.8906,-2.9258,-2.9199,-2.8418,-2.8672,-2.8535,-2.7773,-2.7324,-2.6894,-2.6465,-2.5215,-2.4492,-2.4414,-2.3125,-2.248,0.0,-2.2012,-2.1797,-2.1894,-2.2266,0.0,0.0,0.0,-2.1602,-2.1211,-2.0762,-2.0801,-2.1133,-2.0723,-2.0566,-2.0566,-2.0566,-2.0566,-2.0566,-2.0566,-2.0566,-2.0566,-2.0566,-2.0566,-2.0566,-2.0566,-2.0566,-2.0664,-2.1094,-2.117,-2.1039,-2.0784,-2.0569,-1.9886,-1.7748,-1.7115,-1.7024,-1.7024,-1.6232,-1.5882,-1.7252,-1.7498,-1.787,-1.8948,-1.919,-1.9265,-1.9174,-1.8272,-1.7624,-1.7517,0.0,-1.6817,-1.6419,0.0,0.0,-1.696,-1.5199,0.0,0.0,-1.4309,0.0,0.0,-1.4028,-1.4041,-1.4041,-1.4643,-1.5097,-1.5351,-1.5671,-1.5965,-1.6233,-1.5965,-1.5979,-1.6343,-1.6343,-1.6779,-1.7565,-1.7565,-1.7566,-1.7646,-1.7915,-1.826,-1.8765,-1.8905,-1.9105,-1.9399,-1.9693,-1.9987,-2.0281,0.0,0.0,0.0,0.0,0.0,0.0,0.0,-2.9512,-2.9531,-2.9785,-2.9668,-2.9512,-2.9336,-2.9238,-2.9043,-2.8691,-2.8594,-2.8301,-2.7715,-2.7266,-2.6699,-2.6035,-2.498,-2.4297,-2.4043,-2.3047,-2.2519,0.0,-2.2344,-2.2266,-2.2266,-2.2441,-2.2285,-2.1894,-2.1894,-2.1797,-2.1621,-2.1445,-2.1309,-2.1211,-2.1035,-2.0977,-2.0937,-2.0664,-2.0742,-2.0937,-2.0664,-2.0566,-2.0566,-2.0566,-2.0566,-2.0566,-2.0566,-2.0566,-2.0605,-2.0781,-2.0518,-2.0335,-2.1183,-2.0544,-1.9621,-1.9647,-1.9085,-1.8541,-1.8541,-1.8193,-1.8056,-1.8656,-1.878,-1.8948,-1.9405,-2.0116,-2.0296,-1.9588,-1.9679,-1.9505,-1.8478,0.0,0.0,-1.6443,0.0,-1.597,0.0,-1.4573,0.0,0.0,0.0,0.0,0.0,-1.4255,-1.4269,-1.4095,-1.483,-1.519,-1.5137,-1.5605,-1.5979,-1.6273,-1.6152,-1.6246,-1.654,-1.654,-1.6867,-1.7387,-1.7563,-1.7768,-1.7941,-1.8114,-1.8557,-1.9199,-1.9246,-1.9265,-1.9399,-1.9693,-1.9987,-2.0281,-2.7344,0.0,-2.7891,0.0,-2.8965,-2.918,-3.0156,-2.9512,-2.8984,-2.916,-2.9199,-2.9199,-2.9199,-2.8926,-2.873,-2.873,-2.8457,-2.8066,-2.7519,-2.7187,-2.6582,-2.5586,-2.4824,0.0,-2.3809,-2.3066,-2.2637,-2.2519,-2.2637,-2.2578,-2.2324,-2.2461,-2.2285,-2.1894,-2.2012,-2.207,-2.2051,-2.1797,-2.166,-2.1582,-2.1191,-2.1113,-2.1191,-2.0742,-2.0762,-2.0996,-2.0684,-2.0566,-2.0566,-2.0566,-2.0566,-2.0566,-2.0566,-2.0566,-2.0566,-2.0566,-2.021,-2.0068,-2.1472,-2.0789,-1.9939,-2.0943,-2.0499,-1.9872,-1.9872,-1.9602,-1.9545,-1.9918,-2.0042,-2.0133,-2.0494,-2.1212,-2.1569,-2.0674,-2.0944,-2.0891,-1.9533,-1.9129,0.0,-1.6777,-1.6435,-1.6004,-1.5104,-1.4572,0.0,0.0,0.0,0.0,-1.4215,-1.4322,-1.4335,-1.4215,-1.4897,-1.5217,-1.5097,-1.5671,-1.6072,-1.6273,-1.6366,-1.6553,-1.6834,-1.6927,-1.7074,-1.7288,-1.7488,-1.7809,-1.8196,-1.8163,-1.8704,-1.9347,-1.9408,-1.9372,-1.9399,-1.9693,-1.9987,-2.0267,-2.8105,-2.8613,-2.9043,-2.9492,-2.9902,-2.9902,-2.9062,-2.8926,-2.8769,-2.8359,-2.832,-2.832,-2.832,-2.8301,-2.8301,-2.8301,-2.8301,-2.793,-2.709,-2.7012,-2.6426,0.0,0.0,-2.4219,-2.3809,-2.3359,-2.293,-2.2519,-2.293,-2.2715,-2.1894,-2.2324,-2.2285,-2.1894,-2.2324,-2.25,-2.2441,-2.1602,-2.1719,-2.2383,-2.1094,-2.084,-2.1191,-2.0742,-2.0566,-2.0566,-2.0566,-2.0566,-2.0566,-2.0566,-2.0566,-2.0566,-2.0566,-2.0566,-2.0566,-2.0566,-2.0566,-2.0762,-2.1641,-2.1894,-2.1723,-2.1065,-2.0898,-2.0898,-2.0898,-1.9939,-1.9512,-2.0944,-2.1302,-2.1658,-2.2862,-2.3057,-2.3057,-2.3057,-2.2031,-2.1157,-2.0761,-1.9746,0.0,-1.7894,-1.7165,-1.6931,-1.7237,-1.5587,0.0,0.0,0.0,0.0,-1.4496,-1.4242,-1.4215,-1.4509,-1.4803,-1.511,-1.5391,-1.5979,-1.6273,-1.6273,-1.6567,-1.686,-1.7154,-1.7435,-1.7569,-1.7582,-1.7582,-1.7809,-1.8229,-1.8229,-1.8698,-1.9359,-1.9372,-1.9372,-1.9399,-1.9693,-1.9987,-2.0146,-2.8242,-2.8633,-2.8965,-2.9101,-2.9238,-2.9336,-2.9355,-2.8867,-2.8555,-2.8691,-2.8476,-2.8301,-2.8301,-2.8301,-2.8184,0.0,-2.7871,-2.75,0.0,-2.6582,-2.6133,-2.5117,-2.4648,-2.4219,-2.3809,-2.3359,-2.293,-2.2519,-2.293,-2.2852,-2.2324,-2.2441,-2.2285,-2.1894,-2.2324,-2.2519,-2.2519,-2.2539,-2.2519,-2.2441,-2.1738,-2.1543,-2.1602,-2.084,-2.0762,-2.0977,-2.0684,-2.0566,-2.0566,-2.0566,-2.0566,-2.0566,-2.0566,-2.0566,-2.0566,-2.0566,-2.0781,-2.1152,-2.1738,-2.209,-2.2318,-2.238,-2.2389,-2.2389,-2.2389,-2.2127,-2.197,-2.2473,-2.2492,-2.2668,-2.3038,-2.3144,-2.3144,-2.3144,-2.1895,-2.0848,-2.0449,-1.9229,-1.7875,-1.649,-1.6202,-1.5767,-1.5159,-1.4585,0.0,0.0,0.0,0.0,-1.4215,-1.4522,-1.4629,-1.4522,-1.519,-1.5605,-1.5698,-1.6072,-1.6473,-1.6874,-1.6967,-1.7168,-1.7448,-1.7542,-1.7702,-1.7903,-1.7903,-1.8237,-1.8658,-1.8533,-1.8757,-1.9372,-1.9372,-1.9372,-1.9399,-1.9693,-1.9853,-2.0013,-2.8301,-2.8633,-2.8926,-2.8926,-2.8926,-2.9004,-2.9277,-2.873,-2.8398,-2.8652,-2.8457,-2.8301,-2.8301,-2.8301,-2.8125,-2.7695,-2.7676,-2.7305,-2.6445,-2.6387,-2.5996,-2.5117,-2.4648,-2.4219,-2.3809,-2.3359,-2.3008,-2.2754,-2.2852,-2.2773,-2.2519,-2.2519,-2.2363,-2.2148,-2.2559,-2.2754,-2.2754,-2.2852,-2.2852,-2.2676,-2.1934,-2.1738,-2.1797,-2.1094,-2.0996,-2.1211,-2.1094,-2.0957,-2.082,-2.082,-2.0703,-2.0586,-2.0762,-2.082,-2.082,-2.082,-2.1133,-2.1562,-2.2012,-2.2305,-2.2617,-2.3027,-2.3144,-2.3144,-2.3144,-2.3144,-2.3144,-2.3144,-2.3144,-2.3144,-2.3144,-2.3144,-2.3086,-2.293,-2.1776,-2.0698,-2.0069,-1.8431,-1.6959,-1.5989,-1.5587,-1.5162,-1.4502,-1.4509,-1.4616,-1.4683,0.0,-1.4416,-1.4416,-1.4656,-1.4763,-1.4696,-1.5431,-1.5885,-1.5992,-1.6393,-1.6794,-1.7154,-1.7261,-1.7408,-1.7582,-1.7702,-1.7862,-1.805,-1.817,-1.8477,-1.8918,-1.8665,-1.8836,-1.9372,-1.9372,-1.9372,-1.9399,-1.9693,-1.98,-1.988,-2.8301,-2.8613,-2.8867,-2.8867,-2.8867,-2.8867,-2.8867,-2.8535,-2.8301,-2.8301,-2.8301,-2.8281,-2.8262,-2.8242,-2.8066,-2.7617,-2.7598,-2.7266,-2.6406,-2.6348,-2.5977,-2.5156,-2.4668,-2.4238,-2.3848,-2.3379,-2.3144,-2.3144,-2.2754,-2.2559,-2.2559,-2.2559,-2.2559,-2.2578,-2.2969,-2.3144,-2.3125,-2.2715,-2.2754,-2.2988,-2.1797,-2.1523,-2.1797,-2.1426,-2.125,-2.1289,-2.1738,-2.1621,-2.1289,-2.1289,-2.0996,-2.0723,-2.1152,-2.1309,-2.1309,-2.1289,-2.1582,-2.2012,-2.2402,-2.2539,-2.2656,-2.3047,-2.3144,-2.3144,-2.3144,-2.3144,-2.3144,-2.3144,-2.3144,-2.3144,-2.3144,-2.3144,-2.3008,-2.2578,-2.1502,-2.04,-1.9642,-1.7579,-1.6074,-1.6004,-1.5353,-1.4937,-1.4963,-1.519,-1.5231,-1.4977,0.0,-1.4937,-1.4963,-1.4736,-1.4736,-1.5017,-1.5565,-1.6019,-1.6326,-1.6874,-1.7154,-1.7181,-1.7448,-1.7595,-1.7622,-1.7916,-1.8063,-1.813,-1.8397,-1.8691,-1.8958,-1.8691,-1.8863,-1.9372,-1.9372,-1.9372,-1.9399,-1.9666,-1.9773,-1.9853,-2.8301,-2.8379,-2.8437,-2.8437,-2.8437,-2.8437,-2.8437,-2.8359,-2.8301,-2.8301,-2.8301,-2.8164,-2.7851,-2.7812,-2.7519,-2.6758,-2.6992,-2.6797,-2.5957,-2.5898,-2.5801,-2.5586,-2.4824,-2.4375,-2.4277,-2.3535,-2.3144,-2.3144,-2.3047,-2.2988,-2.2988,-2.2988,-2.2988,-2.2988,-2.3086,-2.3144,-2.3125,-2.3027,-2.2871,-2.2637,-2.2324,-2.1875,-2.1406,-2.1641,-2.1523,-2.1289,-2.1738,-2.1816,-2.1738,-2.1738,-2.166,-2.1602,-2.1699,-2.1953,-2.2148,-2.1816,-2.2031,-2.2383,-2.248,-2.2754,-2.3008,-2.3125,-2.3144,-2.3144,-2.3144,-2.3144,-2.3144,-2.3144,-2.3144,-2.3144,-2.3144,-2.3144,-2.3008,-2.2578,-2.0643,-1.8991,-1.8447,-1.6232,-1.4682,-1.4829,-1.4751,-1.471,-1.4937,-1.4816,-1.479,-1.495,-1.475,-1.4723,-1.495,-1.5311,-1.5551,-1.5618,-1.5979,-1.642,-1.6941,-1.7074,-1.7261,-1.7475,-1.7555,-1.7702,-1.7943,-1.8009,-1.829,-1.8718,-1.8784,-1.8985,-1.9265,-1.9252,-1.9292,-1.9372,-1.9372,-1.9372,-1.9372,-1.9439,-1.9466,-1.9546,-2.8301,-2.8301,-2.8301,-2.8301,-2.8301,-2.8301,-2.8301,-2.8301,-2.8301,-2.8301,-2.8125,-2.791,-2.7695,-2.748,-2.7109,-2.6445,-2.6602,-2.6445,-2.5781,-2.5742,-2.5742,-2.5742,-2.4883,-2.4414,-2.4414,-2.3574,-2.3144,-2.3144,-2.3144,-2.3144,-2.3144,-2.3144,-2.3144,-2.3144,-2.3144,-2.3144,-2.3144,-2.3144,-2.3008,-2.2773,-2.2598,-2.2227,-2.1836,-2.209,-2.2031,-2.1875,-2.2305,-2.2344,-2.2168,-2.2168,-2.2051,-2.1914,-2.2109,-2.2324,-2.25,-2.2461,-2.2617,-2.2793,-2.2793,-2.2969,-2.3144,-2.3144,-2.3144,-2.3144,-2.3144,-2.3144,-2.3144,-2.3144,-2.3144,-2.3144,-2.3144,-2.2988,-2.2715,-2.2305,-2.0045,-1.8128,-1.7763,-1.558,-1.4242,-1.4669,-1.4723,-1.4897,-1.5311,-1.5217,-1.519,-1.5351,-1.5204,-1.5244,-1.5551,-1.5858,-1.5965,-1.5832,-1.638,-1.6834,-1.7244,-1.7275,-1.7422,-1.7582,-1.7729,-1.7876,-1.805,-1.833,-1.8624,-1.8931,-1.9065,-1.9225,-1.9372,-1.9372,-1.9372,-1.9372,-1.9372,-1.9372,-1.9372,-1.9372,-1.9452,-1.9626,-2.8301,-2.8301,-2.8301,-2.8301,-2.8301,-2.8301,-2.8301,-2.8301,-2.8301,-2.8301,-2.793,-2.7637,-2.7578,-2.7187,-2.6758,-2.6328,-2.6289,-2.6133,-2.5762,-2.5742,-2.5703,-2.5644,-2.4844,-2.4394,-2.4316,-2.3535,-2.3144,-2.3144,-2.3144,-2.3144,-2.3144,-2.3144,-2.3144,-2.3144,-2.3144,-2.3144,-2.3144,-2.3144,-2.3105,-2.3027,-2.2715,-2.2539,-2.2441,-2.2559,-2.2559,-2.2559,-2.2988,-2.291,-2.2617,-2.2617,-2.2363,-2.2129,-2.25,-2.2617,-2.2676,-2.3027,-2.3144,-2.3144,-2.3144,-2.3144,-2.3144,-2.3144,-2.3144,-2.3144,-2.3144,-2.3144,-2.3144,-2.3144,-2.3144,-2.3144,-2.3144,-2.2793,-2.2402,-2.2031,-1.9775,-1.7946,-1.7711,-1.5786,-1.4679,-1.5417,-1.5659,-1.5832,-1.6116,-1.6171,-1.6103,-1.5965,-1.5925,-1.6019,-1.6326,-1.638,-1.6286,-1.6032,-1.6794,-1.7261,-1.7355,-1.7595,-1.7716,-1.7729,-1.7983,-1.813,-1.8196,-1.8691,-1.8945,-1.8998,-1.9252,-1.9372,-1.9372,-1.9372,-1.9372,-1.9372,-1.9372,-1.9372,-1.9372,-1.9372,-1.9519,-1.9773,-2.8301,-2.8301,-2.8301,-2.8301,-2.8301,-2.8301,-2.8301,-2.8301,-2.8301,-2.8301,-2.793,-2.7519,-2.7148,-2.6738,-2.6309,-2.5879,-2.584,-2.5801,-2.5742,-2.5742,-2.5566,-2.5195,-2.4687,-2.4258,-2.3887,-2.3398,-2.3144,-2.3144,-2.3144,-2.3144,-2.3144,-2.3144,-2.3144,-2.3144,-2.3144,-2.3144,-2.3144,-2.3144,-2.293,-2.2637,-2.293,-2.2617,-2.207,-2.2773,-2.2812,-2.2559,-2.2988,-2.3105,-2.3047,-2.3047,-2.3008,-2.2949,-2.3027,-2.3047,-2.3047,-2.3125,-2.3144,-2.3144,-2.3144,-2.3144,-2.3144,-2.3144,-2.3144,-2.3144,-2.3144,-2.3144,-2.3144,-2.3144,-2.3144,-2.3144,-2.3144,-2.2793,-2.248,-2.2422,-1.9955,-1.8279,-1.9117,-1.7363,-1.642,-1.7754,-1.8507,-1.8672,-1.7867,-1.7816,-1.7548,-1.6652,-1.6339,-1.6326,-1.662,-1.6874,-1.6994,-1.6941,-1.7315,-1.7756,-1.8277,-1.833,-1.8343,-1.8343,-1.8397,-1.8544,-1.8798,-1.8878,-1.9065,-1.9305,-1.9345,-1.9372,-1.9372,-1.9372,-1.9372,-1.9372,-1.9372,-1.9372,-1.9372,-1.9372,-1.9399,-1.9479,-2.9217,-2.8794,-2.8301,-2.8301,-2.8301,-2.8301,-2.8301,-2.8105,-2.7949,-2.7949,-2.7383,-2.6894,-2.6699,-2.6289,-2.5957,-2.5762,-2.5742,-2.5742,-2.5742,-2.5742,-2.5527,-2.5098,-2.4648,-2.4102,-2.3457,-2.3242,-2.3144,-2.3144,-2.3144,-2.3144,-2.3144,-2.3144,-2.3144,-2.3144,-2.3144,-2.3144,-2.3144,-2.3144,-2.3027,-2.2871,-2.3066,-2.291,-2.2598,-2.2988,-2.3027,-2.2871,-2.3066,-2.3144,-2.3144,-2.3144,-2.3144,-2.3144,-2.3144,-2.3144,-2.3144,-2.3144,-2.3144,-2.3144,-2.3144,-2.3144,-2.3144,-2.3144,-2.3144,-2.3144,-2.3144,-2.3144,-2.3144,-2.3144,-2.3144,-2.3144,-2.3144,-2.2793,-2.2519,-2.2519,-2.0411,-1.9112,-1.9823,-1.8583,-1.7927,-1.9024,-1.9645,-1.9926,-1.9526,-1.9574,-1.9155,-1.7867,-1.764,-1.7414,-1.7029,-1.7775,-1.8323,-1.8494,-1.8636,-1.9021,-1.9647,-1.9491,-1.9069,-1.849,-1.8651,-1.8798,-1.8931,-1.9092,-1.9239,-1.9372,-1.9372,-1.9372,-1.9372,-1.9372,-1.9372,-1.9372,-1.9372,-1.9372,-1.9372,-1.9372,-1.9466,-1.9626,-2.9454,-2.8926,-2.8301,-2.8301,-2.8301,-2.8301,-2.8301,-2.8027,-2.7773,-2.7676,-2.7012,-2.6504,-2.6406,-2.5996,-2.5742,-2.5742,-2.5742,-2.5742,-2.5742,-2.5742,-2.5488,-2.4941,-2.4394,-2.3809,-2.3144,-2.3144,-2.3144,-2.3144,-2.3144,-2.3144,-2.3144,-2.3144,-2.3144,-2.3144,-2.3144,-2.3144,-2.3144,-2.3144,-2.3144,-2.3144,-2.3144,-2.3144,-2.3144,-2.3144,-2.3144,-2.3144,-2.3144,-2.3144,-2.3144,-2.3144,-2.3144,-2.3144,-2.3144,-2.3144,-2.3144,-2.3144,-2.3144,-2.3144,-2.3144,-2.3144,-2.3144,-2.3144,-2.3144,-2.3144,-2.3144,-2.3144,-2.3144,-2.3144,-2.3144,-2.3144,-2.3144,-2.2793,-2.2539,-2.2637,-2.0978,-2.0007,-2.0771,-1.9971,-1.9607,-2.0546,-2.1125,-2.1431,-2.1343,-2.1445,-2.0915,-1.946,-1.9437,-1.916,-1.8235,-1.9328,-2.0194,-2.0648,-2.0431,-2.0695,-2.137,-2.0801,-2.007,-1.9236,-1.9031,-1.9025,-1.9038,-1.9265,-1.9372,-1.9372,-1.9372,-1.9372,-1.9372,-1.9372,-1.9372,-1.9372,-1.9372,-1.9372,-1.9372,-1.9372,-1.9506,-1.9693,-2.7904,-2.8133,-2.8301,-2.8301,-2.8301,-2.8301,-2.8301,-2.8262,-2.8105,-2.7715,-2.7266,-2.6816,-2.6426,-2.5996,-2.5742,-2.5742,-2.5742,-2.5742,-2.5742,-2.5742,-2.5352,-2.4512,-2.3672,-2.3203,-2.3144,-2.3144,-2.3144,-2.3144,-2.3144,-2.3144,-2.3144,-2.3144,-2.3144,-2.3144,-2.3144,-2.3144,-2.3144,-2.3144,-2.3144,-2.3144,-2.3144,-2.3144,-2.3144,-2.3144,-2.3144,-2.3144,-2.3144,-2.3144,-2.3144,-2.3144,-2.3144,-2.3144,-2.3144,-2.3144,-2.3144,-2.3144,-2.3144,-2.3144,-2.3144,-2.3144,-2.3144,-2.3144,-2.3144,-2.3144,-2.3144,-2.3144,-2.3144,-2.3144,-2.3144,-2.3144,-2.3144,-2.2793,-2.2637,-2.3027,-2.139,-2.0771,-2.265,-2.1957,-2.1857,-2.3313,-2.4268,-2.4203,-2.2937,-2.318,-2.2898,-2.1577,-2.1788,-2.1854,-2.1424,-2.1837,-2.2654,-2.3919,-2.3009,-2.2797,-2.3517,-2.2158,-2.1496,-2.1398,-1.9998,-1.9332,-1.9332,-1.9359,-1.9372,-1.9372,-1.9372,-1.9372,-1.9372,-1.9372,-1.9372,-1.9372,-1.9372,-1.9372,-1.9372,-1.9372,-1.9386,-1.9399,-2.833,-2.7981,-2.75,-2.75,-2.75,-2.7598,-2.7871,-2.7461,-2.7246,-2.7617,-2.6816,-2.6269,-2.6367,-2.5996,-2.5742,-2.5742,-2.5742,-2.5742,-2.5742,-2.5742,-2.5332,-2.4453,-2.3848,-2.3418,-2.3144,-2.3144,-2.3144,-2.3144,-2.3144,-2.3144,-2.3144,-2.3144,-2.3144,-2.3144,-2.3144,-2.3144,-2.3144,-2.3144,-2.3144,-2.3144,-2.3144,-2.3144,-2.3144,-2.3144,-2.3144,-2.3144,-2.3144,-2.3144,-2.3144,-2.3144,-2.3144,-2.3144,-2.3144,-2.3144,-2.3144,-2.3144,-2.3144,-2.3144,-2.3144,-2.3144,-2.3144,-2.3144,-2.3144,-2.3144,-2.3144,-2.3144,-2.3223,-2.3496,-2.3535,-2.3613,-2.3887,-2.3809,-2.375,-2.3906,-2.3063,-2.2802,-2.3757,-2.3563,-2.3626,-2.4531,-2.5117,-2.5276,-2.4676,-2.4827,-2.4505,-2.3402,-2.3458,-2.3066,-2.2109,-2.3066,-2.4392,-2.6389,-2.602,-2.5502,-2.4802,-2.3382,-2.2274,-2.1586,-2.1031,-2.0816,-2.0816,-2.0816,-2.0816,-2.0702,-1.9809,-1.9372,-1.9372,-1.9372,-1.9372,-1.9372,-1.9372,-1.9479,-1.9613,-1.9439,-1.9599,-1.9853,-2.7962,-2.7502,-2.7012,-2.7012,-2.7012,-2.7109,-2.7422,-2.6973,-2.6758,-2.7207,-2.6484,-2.5996,-2.6172,-2.5918,-2.5742,-2.5742,-2.5742,-2.5742,-2.5742,-2.5605,-2.5195,-2.4453,-2.4004,-2.3574,-2.3144,-2.3144,-2.3144,-2.3144,-2.3144,-2.3144,-2.3144,-2.3144,-2.3144,-2.3144,-2.3144,-2.3144,-2.3144,-2.3144,-2.3144,-2.3144,-2.3144,-2.3144,-2.3144,-2.3144,-2.3144,-2.3144,-2.3144,-2.3144,-2.3144,-2.3144,-2.3144,-2.3144,-2.3144,-2.3144,-2.3144,-2.3144,-2.3242,-2.334,-2.334,-2.3437,-2.3477,-2.3203,-2.334,-2.3477,-2.3203,-2.334,-2.3594,-2.375,-2.3887,-2.4082,-2.4355,-2.4414,-2.4414,-2.4414,-2.418,-2.418,-2.4746,-2.4824,-2.5039,-2.5605,-2.5957,-2.6133,-2.6133,-2.6133,-2.5833,-2.5173,-2.5321,-2.4966,-2.4034,-2.4736,-2.5657,-2.6779,-2.6931,-2.6231,-2.4683,-2.3829,-2.3021,-2.2251,-2.1813,-2.1586,-2.1586,-2.2024,-2.2024,-2.1586,-2.0472,-1.9809,-1.9372,-1.9372,-1.9372,-1.9372,-1.9466,-1.9573,-1.9666,-1.9639,-1.9826,-2.0054,-2.6387,-2.6719,-2.7012,-2.7012,-2.7012,-2.7012,-2.7012,-2.7012,-2.6855,-2.6445,-2.6387,-2.6211,-2.5801,-2.5742,-2.5742,-2.5742,-2.5742,-2.5742,-2.5742,-2.5312,-2.4863,-2.4434,-2.4004,-2.3574,-2.3144,-2.3144,-2.3144,-2.3144,-2.3144,-2.3144,-2.3144,-2.3144,-2.3144,-2.3144,-2.3144,-2.3144,-2.3144,-2.3144,-2.3144,-2.3144,-2.3144,-2.3144,-2.3144,-2.3144,-2.3144,-2.3144,-2.3144,-2.3144,-2.3144,-2.3144,-2.3144,-2.3144,-2.3144,-2.3144,-2.3144,-2.3144,-2.3457,-2.3789,-2.3789,-2.4102,-2.4219,-2.3359,-2.3789,-2.4199,-2.334,-2.3809,-2.4297,-2.3887,-2.4141,-2.4414,-2.4434,-2.4434,-2.4434,-2.4434,-2.4434,-2.4746,-2.5625,-2.5742,-2.6055,-2.6914,-2.7012,-2.7012,-2.7012,-2.7012,-2.7012,-2.7031,-2.7422,-2.7676,-2.7676,-2.7266,-2.6378,-2.4873,-2.5252,-2.4701,-2.3184,-2.3657,-2.3822,-2.3822,-2.2363,-2.1586,-2.1699,-2.3151,-2.3039,-2.1586,-2.1586,-2.0816,-1.9359,-1.9372,-1.9372,-1.9399,-1.9679,-1.9626,-1.9439,-2.0013,-2.0054,-1.9853,-2.5937,-2.6035,-2.6409,-2.7247,-2.6683,-2.6507,-2.7656,-2.6883,-2.6289,-2.6777,-2.6309,-2.5996,-2.6172,-2.5918,-2.5742,-2.5742,-2.6476,-2.703,-2.703,-2.5769,-2.4863,-2.4434,-2.4004,-2.3574,-2.3144,-2.3144,-2.3144,-2.3144,-2.3144,-2.3144,-2.3144,-2.3144,-2.3144,-2.3144,-2.3144,-2.3144,-2.3144,-2.3144,-2.3144,-2.3144,-2.3144,-2.3144,-2.3144,-2.3144,-2.3144,-2.3144,-2.3144,-2.3144,-2.3144,-2.3144,-2.3144,-2.3144,-2.3144,-2.3359,-2.3594,-2.3594,-2.3887,-2.4238,-2.4238,-2.4551,-2.4746,-2.418,-2.4219,-2.4355,-2.4082,-2.4238,-2.4473,-2.4648,-2.4785,-2.4961,-2.5293,-2.5332,-2.5449,-2.5742,-2.5801,-2.5996,-2.6562,-2.6641,-2.6738,-2.6992,-2.7012,-2.7012,-2.7012,-2.7012,-2.7148,-2.7441,-2.7598,-2.7793,-2.8086,-2.7695,-2.7389,-2.7237,-2.6369,-2.5648,-2.5212,-2.3215,-2.2814,-2.3822,-2.3375,-2.371,-2.482,-2.5261,-2.5151,-2.4599,-2.2726,-2.0917,-1.9374,-1.9636,-1.9546,-1.9372,-1.9466,-1.9693,-1.9973,-1.9947,-2.0981,-2.2364,-2.638,-2.6476,-2.6839,-2.8143,-2.7673,-2.7303,-2.786,-2.7119,-2.6483,-2.6445,-2.6055,-2.584,-2.6094,-2.6366,-2.6476,-2.6476,-2.7579,-2.8143,-2.7579,-2.6505,-2.5505,-2.4687,-2.4102,-2.3574,-2.3144,-2.3144,-2.3144,-2.3144,-2.3144,-2.3144,-2.3144,-2.3144,-2.3144,-2.3144,-2.3144,-2.3144,-2.3144,-2.3144,-2.3144,-2.3144,-2.3144,-2.3144,-2.3144,-2.3144,-2.3144,-2.3144,-2.3144,-2.3144,-2.3144,-2.3144,-2.3144,-2.3144,-2.3144,-2.3437,-2.3789,-2.3789,-2.4219,-2.4668,-2.4668,-2.5,-2.5273,-2.5,-2.4941,-2.4844,-2.4492,-2.4687,-2.4961,-2.5039,-2.5215,-2.541,-2.5684,-2.5879,-2.6074,-2.6348,-2.6523,-2.6777,-2.7207,-2.7285,-2.7324,-2.75,-2.7519,-2.7519,-2.7519,-2.7519,-2.7637,-2.7891,-2.791,-2.8027,-2.8281,-2.8047,-2.7796,-2.7492,-2.6608,-2.5827,-2.5151,-2.3375,-2.2927,-2.3822,-2.4378,-2.5151,-2.6155,-2.6717,-2.6608,-2.5954,-2.4135,-2.1895,-1.9699,-1.9771,-1.9773,-1.972,-1.984,-2.0493,-2.118,-2.125,-2.2612,-2.4299,-2.7484,-2.7767,-2.8143,-2.9326,-2.9487,-2.905,-2.7955,-2.7673,-2.7125,-2.582,-2.5742,-2.5742,-2.582,-2.6955,-2.7673,-2.7767,-2.8773,-2.8958,-2.7955,-2.7416,-2.6517,-2.5342,-2.4421,-2.3683,-2.3203,-2.3203,-2.3184,-2.3144,-2.3184,-2.3184,-2.3144,-2.3144,-2.3144,-2.3144,-2.3144,-2.3144,-2.3144,-2.3144,-2.3144,-2.3144,-2.3144,-2.3144,-2.3144,-2.3144,-2.3144,-2.3144,-2.3144,-2.3144,-2.3144,-2.3184,-2.3203,-2.3203,-2.3242,-2.3555,-2.3906,-2.3906,-2.4492,-2.5137,-2.5137,-2.5449,-2.5801,-2.5801,-2.582,-2.5625,-2.4746,-2.5215,-2.5723,-2.5234,-2.5508,-2.584,-2.5801,-2.6152,-2.6465,-2.6504,-2.6816,-2.7226,-2.7656,-2.7715,-2.7871,-2.8242,-2.8301,-2.8301,-2.8301,-2.8301,-2.8301,-2.8301,-2.8301,-2.8301,-2.8301,-2.8301,-2.7726,-2.6372,-2.6155,-2.5371,-2.4044,-2.4044,-2.4044,-2.4044,-2.5371,-2.6136,-2.6372,-2.7726,-2.753,-2.6318,-2.5798,-2.3715,-2.0611,-2.0155,-2.0267,-2.051,-2.0631,-2.154,-2.3065,-2.3397,-2.4542,-2.5794,-2.8773,-2.905,-2.9418,-3.0574,-3.0033,-2.9304,-2.905,-2.8236,-2.7125,-2.582,-2.5742,-2.611,-2.703,-2.741,-2.7955,-2.8958,-2.9235,-2.967,-3.0395,-2.9128,-2.7778,-2.6517,-2.5627,-2.4757,-2.3652,-2.3652,-2.3477,-2.3144,-2.3477,-2.3477,-2.3144,-2.3144,-2.3144,-2.3144,-2.3144,-2.3144,-2.3144,-2.3144,-2.3144,-2.3144,-2.3144,-2.3144,-2.3144,-2.3144,-2.3144,-2.3144,-2.3144,-2.3144,-2.3184,-2.3535,-2.3652,-2.3711,-2.4043,-2.4434,-2.4785,-2.4785,-2.5176,-2.5586,-2.5586,-2.5918,-2.625,-2.625,-2.6504,-2.6504,-2.5644,-2.6113,-2.6523,-2.5742,-2.6211,-2.6641,-2.6309,-2.6602,-2.6992,-2.7344,-2.7461,-2.7676,-2.8105,-2.8164,-2.8184,-2.8281,-2.8301,-2.8301,-2.8301,-2.8301,-2.8301,-2.8301,-2.8301,-2.8301,-2.8301,-2.8301,-2.8174,-2.7833,-2.6717,-2.5936,-2.559,-2.559,-2.559,-2.559,-2.5519,-2.6299,-2.7833,-2.8174,-2.8095,-2.7801,-2.7697,-2.6214,-2.3535,-2.1618,-2.1718,-2.2811,-2.0787,-2.1991,-2.4849,-2.3442,-2.4715,-2.7056,-3.0033,-3.0214,-3.0687,-3.1865,-3.1601,-3.0956,-3.0305,-2.967,-2.8866,-2.7673,-2.7484,-2.7767,-2.8402,-2.8958,-2.9784,-3.1069,-3.1158,-3.1134,-3.1223,-3.043,-2.9105,-2.7315,-2.662,-2.5632,-2.4487,-2.4199,-2.3769,-2.3144,-2.3379,-2.3359,-2.3144,-2.3144,-2.3144,-2.3144,-2.3144,-2.3144,-2.3144,-2.3144,-2.3144,-2.3144,-2.3144,-2.3144,-2.3144,-2.3144,-2.3144,-2.3144,-2.3144,-2.3281,-2.3516,-2.3945,-2.4082,-2.4121,-2.4355,-2.4727,-2.5059,-2.5059,-2.5391,-2.5781,-2.5996,-2.6211,-2.6445,-2.6641,-2.7012,-2.7148,-2.6504,-2.6699,-2.6894,-2.6445,-2.6699,-2.6953,-2.6738,-2.7031,-2.7402,-2.7637,-2.7832,-2.8047,-2.8262,-2.8301,-2.8301,-2.8301,-2.8301,-2.8301,-2.8301,-2.8476,-2.8594,-2.8594,-2.8789,-2.8906,-2.8906,-2.8711,-2.8594,-2.8594,-2.7606,-2.7262,-2.745,-2.7303,-2.7303,-2.745,-2.7176,-2.7597,-2.8739,-2.8672,-2.8583,-2.8649,-2.8914,-2.8369,-2.7027,-2.3894,-2.3823,-2.5398,-2.2689,-2.3836,-2.6764,-2.5575,-2.5844,-2.6781,-3.1311,-3.1488,-3.1865,-3.2896,-3.3068,-3.2698,-3.14,-3.1223,-3.0777,-2.9601,-2.9396,-2.9487,-2.967,-3.0777,-3.1952,-3.2982,-3.3068,-3.2612,-3.1577,-3.1488,-3.0508,-2.8308,-2.7764,-2.6844,-2.5317,-2.4961,-2.4205,-2.3242,-2.332,-2.3281,-2.3144,-2.3223,-2.3203,-2.3144,-2.3223,-2.3242,-2.3262,-2.332,-2.332,-2.3242,-2.3242,-2.3242,-2.3242,-2.3242,-2.3301,-2.3359,-2.3359,-2.3594,-2.3965,-2.4394,-2.4531,-2.4531,-2.4609,-2.4883,-2.5195,-2.5273,-2.5566,-2.5937,-2.6387,-2.6543,-2.668,-2.7051,-2.7441,-2.7676,-2.7324,-2.7226,-2.7187,-2.7051,-2.7129,-2.7207,-2.7129,-2.748,-2.7773,-2.7773,-2.8066,-2.8301,-2.8301,-2.8301,-2.8301,-2.8301,-2.8359,-2.8398,-2.8398,-2.8789,-2.9023,-2.9023,-2.9355,-2.957,-2.957,-2.9219,-2.9004,-2.8926,-2.8652,-2.8633,-2.8777,-2.8578,-2.8655,-2.9011,-2.9141,-2.9238,-2.9303,-2.929,-2.9211,-2.903,-2.9662,-2.9563,-2.8834,-2.6133,-2.5918,-2.7054,-2.4778,-2.5951,-2.8783,-2.7878,-2.6884,-2.5894,-3.2612,-3.281,-3.2896,-3.3068,-3.3068,-3.2698,-3.14,-3.1223,-3.0777,-2.9601,-2.9396,-2.9761,-3.0866,-3.2064,-3.2896,-3.3068,-3.3068,-3.3068,-3.2896,-3.281,-3.2239,-3.0777,-3.0285,-2.8831,-2.6187,-2.6124,-2.5317,-2.3711,-2.4062,-2.3867,-2.3144,-2.3516,-2.3496,-2.3164,-2.3535,-2.3711,-2.373,-2.4082,-2.4023,-2.3711,-2.3711,-2.3711,-2.3711,-2.3711,-2.3926,-2.4238,-2.4238,-2.4277,-2.4394,-2.4824,-2.498,-2.5039,-2.543,-2.5605,-2.5723,-2.6094,-2.625,-2.6387,-2.6816,-2.7207,-2.75,-2.7559,-2.7891,-2.8203,-2.8144,-2.8125,-2.791,-2.7168,-2.7598,-2.8008,-2.7637,-2.793,-2.8203,-2.8203,-2.8262,-2.8301,-2.8301,-2.8301,-2.8301,-2.8301,-2.8613,-2.8828,-2.8828,-2.9238,-2.9492,-2.9492,-2.9531,-2.957,-2.957,-2.9512,-2.9316,-2.8926,-2.9238,-2.9089,-2.8353,-2.9128,-2.9497,-2.9563,-2.9867,-2.9971,-2.9899,-3.0389,-3.0254,-2.9563,-2.9621,-2.7911,-2.531,-2.6628,-2.6747,-2.6106,-2.5534,-2.7529,-3.0294,-2.8367,-2.6935,-2.557,-3.2982,-3.3068,-3.3068,-3.3068,-3.3068,-3.2896,-3.2326,-3.2239,-3.2064,-3.1512,-3.1512,-3.1689,-3.2239,-3.2785,-3.3068,-3.3068,-3.3068,-3.3068,-3.3068,-3.2413,-3.1512,-3.0214,-2.9376,-2.7861,-2.5675,-2.5675,-2.4985,-2.3789,-2.3984,-2.3867,-2.3516,-2.3691,-2.3691,-2.3516,-2.3711,-2.3789,-2.3809,-2.3984,-2.4102,-2.4141,-2.4141,-2.4141,-2.4141,-2.4141,-2.4258,-2.4453,-2.4687,-2.4785,-2.4844,-2.5293,-2.5449,-2.5508,-2.5957,-2.6094,-2.6191,-2.6621,-2.6738,-2.6836,-2.7266,-2.7519,-2.7715,-2.7949,-2.8164,-2.8301,-2.8301,-2.8301,-2.8184,-2.7812,-2.8027,-2.8242,-2.8047,-2.8164,-2.8359,-2.8613,-2.8437,-2.8379,-2.8613,-2.8633,-2.873,-2.8984,-2.875,-2.875,-2.9238,-2.9453,-2.9668,-2.9902,-3.0156,-3.0312,-3.0312,-3.0059,-2.9824,-2.9629,-2.959,-2.9439,-2.9196,-2.9653,-3.0,-3.0348,-3.0469,-3.0545,-3.0478,-3.0551,-3.0305,-2.9909,-2.9909,-2.8547,-2.6423,-2.7516,-2.7758,-2.7297,-2.726,-2.8637,-3.0626,-2.8152,-2.5518,-2.3022]},{"header":{"parameterUnit":"m.s-1","parameterCategory":1,"la1":30.6,"la2":28.766,"lo1":-90.7593,"lo2":-88.6598,"dy":0.0162,"dx":0.0183,"nx":116,"ny":114,"refTime":"2023-07-15T12:00:00:Z","depth":0,"parameterNumber":3,"parameterNumberName":"V-component_of_WINDS"},"data":[0.0,0.0,0.0,0.0,0.0,0.0,0.0,0.0,0.0,0.0,0.0,0.0,0.0,0.0,0.0,0.0,0.0,0.0,0.0,0.0,0.0,0.0,0.0,0.0,0.0,0.0,0.0,0.0,0.0,0.0,0.0,0.0,0.0,0.0,0.0,0.0,0.0,0.0,0.0,0.0,0.0,0.0,0.0,0.0,0.0,0.0,0.0,0.0,0.0,0.0,0.0,0.0,0.0,0.0,0.0,0.0,0.0,0.0,0.0,0.0,0.0,0.0,0.0,0.0,0.0,0.0,0.0,0.0,0.0,0.0,0.0,0.0,0.0,0.0,0.0,0.0,0.0,0.0,0.0,0.0,0.0,0.0,0.0,0.0,0.0,0.0,0.0,0.0,0.0,0.0,0.0,0.0,0.0,0.0,0.0,0.0,0.0,0.0,0.0,0.0,0.0,0.0,0.0,0.0,0.0,0.0,0.0,0.0,0.0,0.0,0.0,0.0,0.0,0.0,0.0,0.0,0.0,0.0,0.0,0.0,0.0,0.0,0.0,0.0,0.0,0.0,0.0,0.0,0.0,0.0,0.0,0.0,0.0,0.0,0.0,0.0,0.0,0.0,0.0,0.0,0.0,0.0,0.0,0.0,0.0,0.0,0.0,0.0,0.0,0.0,0.0,0.0,0.0,0.0,0.0,0.0,0.0,0.0,0.0,0.0,0.0,0.0,0.0,0.0,0.0,0.0,0.0,0.0,0.0,0.0,0.0,0.0,0.0,0.0,0.0,0.0,0.0,0.0,0.0,0.0,0.0,0.0,0.0,0.0,0.0,0.0,0.0,0.0,0.0,0.0,0.0,0.0,0.0,0.0,0.0,0.0,0.0,0.0,0.0,0.0,0.0,0.0,0.0,0.0,0.0,0.0,0.0,0.0,0.0,0.0,0.0,0.0,0.0,0.0,0.0,0.0,0.0,0.0,0.0,0.0,0.0,0.0,0.0,0.0,0.0,0.0,0.0,0.0,0.0,0.0,0.0,0.0,0.0,0.0,0.0,0.0,0.0,0.0,0.0,0.0,0.0,0.0,0.0,0.0,0.0,0.0,0.0,0.0,0.0,0.0,0.0,0.0,0.0,0.0,0.0,0.0,0.0,0.0,0.0,0.0,0.0,0.0,0.0,0.0,0.0,0.0,0.0,0.0,0.0,0.0,0.0,0.0,0.0,0.0,0.0,0.0,0.0,0.0,0.0,0.0,0.0,0.0,0.0,0.0,0.0,0.0,0.0,0.0,0.0,0.0,0.0,0.0,0.0,0.0,0.0,0.0,0.0,0.0,0.0,0.0,0.0,0.0,0.0,0.0,0.0,0.0,0.0,0.0,0.0,0.0,0.0,0.0,0.0,0.0,0.0,0.0,0.0,0.0,0.0,0.0,0.0,0.0,0.0,0.0,0.0,0.0,0.0,0.0,0.0,0.0,0.0,0.0,0.0,0.0,0.0,0.0,0.0,0.0,0.0,0.0,0.0,0.0,0.0,0.0,0.0,0.0,0.0,0.0,0.0,0.0,0.0,0.0,0.0,0.0,0.0,0.0,0.0,0.0,0.0,0.0,0.0,0.0,0.0,0.0,0.0,0.0,0.0,0.0,0.0,0.0,0.0,0.0,0.0,0.0,0.0,0.0,0.0,0.0,0.0,0.0,0.0,0.0,0.0,0.0,0.0,0.0,0.0,0.0,0.0,0.0,0.0,0.0,0.0,0.0,0.0,0.0,0.0,0.0,0.0,0.0,0.0,0.0,0.0,0.0,0.0,0.0,0.0,0.0,0.0,0.0,0.0,0.0,0.0,0.0,0.0,0.0,0.0,0.0,0.0,0.0,0.0,0.0,0.0,0.0,0.0,0.0,0.0,0.0,0.0,0.0,0.0,0.0,0.0,0.0,0.0,0.0,0.0,0.0,0.0,0.0,0.0,0.0,0.0,0.0,0.0,0.0,0.0,0.0,0.0,0.0,0.0,0.0,0.0,0.0,0.0,0.0,0.0,0.0,0.0,0.0,0.0,0.0,0.0,0.0,0.0,0.0,0.0,0.0,0.0,0.0,0.0,0.0,0.0,0.0,0.0,0.0,0.0,0.0,0.0,0.0,0.0,0.0,0.0,0.0,0.0,0.0,0.0,0.0,0.0,0.0,0.0,0.0,0.0,0.0,0.0,0.0,0.0,0.0,0.0,0.0,0.0,0.0,0.0,0.0,0.0,0.0,0.0,0.0,0.0,0.0,0.0,0.0,0.0,0.0,0.0,0.0,0.0,0.0,0.0,0.0,0.0,0.0,0.0,0.0,0.0,0.0,0.0,0.0,0.0,0.0,0.0,0.0,0.0,0.0,0.0,0.0,0.0,0.0,0.0,0.0,0.0,0.0,0.0,0.0,0.0,0.0,0.0,0.0,0.0,0.0,0.0,0.0,0.0,0.0,0.0,0.0,0.0,0.0,0.0,0.0,0.0,0.0,0.0,0.0,0.0,0.0,0.0,0.0,0.0,0.0,0.0,0.0,0.0,0.0,0.0,0.0,0.0,0.0,0.0,0.0,0.0,0.0,0.0,0.0,0.0,0.0,0.0,0.0,0.0,0.0,0.0,0.0,0.0,0.0,0.0,0.0,0.0,0.0,0.0,0.0,0.0,0.0,0.0,0.0,0.0,0.0,0.0,0.0,0.0,0.0,0.0,0.0,0.0,0.0,0.0,0.0,0.0,0.0,0.0,0.0,0.0,0.0,0.0,0.0,0.0,0.0,0.0,0.0,0.0,0.0,0.0,0.0,0.0,0.0,0.0,0.0,0.0,0.0,0.0,0.0,0.0,0.0,0.0,0.0,0.0,0.0,0.0,0.0,0.0,0.0,0.0,0.0,0.0,0.0,0.0,0.0,0.0,0.0,0.0,0.0,0.0,0.0,0.0,0.0,0.0,0.0,0.0,0.0,0.0,0.0,0.0,0.0,0.0,0.0,0.0,0.0,0.0,0.0,0.0,0.0,0.0,0.0,0.0,0.0,0.0,0.0,0.0,0.0,0.0,0.0,0.0,0.0,0.0,0.0,0.0,0.0,0.0,0.0,0.0,0.0,0.0,0.0,0.0,0.0,0.0,0.0,0.0,0.0,0.0,0.0,0.0,0.0,0.0,0.0,0.0,0.0,0.0,0.0,0.0,0.0,0.0,0.0,0.0,0.0,0.0,0.0,0.0,0.0,0.0,0.0,0.0,0.0,0.0,0.0,0.0,0.0,0.0,0.0,0.0,0.0,0.0,0.0,0.0,0.0,0.0,0.0,0.0,0.0,0.0,0.0,0.0,0.0,0.0,0.0,0.0,0.0,0.0,0.0,0.0,0.0,0.0,0.0,0.0,0.0,0.0,0.0,0.0,0.0,0.0,0.0,0.0,0.0,0.0,0.0,0.0,0.0,0.0,0.0,0.0,0.0,0.0,0.0,0.0,0.0,0.0,0.0,0.0,0.0,0.0,0.0,0.0,0.0,0.0,0.0,0.0,0.0,0.0,0.0,0.0,0.0,0.0,0.0,0.0,0.0,0.0,0.0,0.0,0.0,0.0,0.0,0.0,0.0,0.0,0.0,0.0,0.0,0.0,0.0,0.0,0.0,0.0,0.0,0.0,0.0,0.0,0.0,0.0,0.0,0.0,0.0,0.0,0.0,0.0,0.0,0.0,0.0,0.0,0.0,0.0,0.0,0.0,0.0,0.0,0.0,0.0,0.0,0.0,0.0,0.0,0.0,0.0,0.0,0.0,0.0,0.0,0.0,0.0,0.0,0.0,0.0,0.0,0.0,0.0,0.0,0.0,0.0,0.0,0.0,0.0,0.0,0.0,0.0,0.0,0.0,0.0,0.0,0.0,0.0,0.0,0.0,0.0,0.0,0.0,0.0,0.0,0.0,0.0,0.0,0.0,0.0,0.0,0.0,0.0,0.0,0.0,0.0,0.0,0.0,0.0,0.0,0.0,0.0,0.0,0.0,0.0,0.0,0.0,0.0,0.0,0.0,0.0,0.0,0.0,0.0,0.0,0.0,0.0,0.0,0.0,0.0,0.0,0.0,0.0,0.0,0.0,0.0,0.0,0.0,0.0,0.0,0.0,0.0,0.0,0.0,0.0,0.0,0.0,0.0,0.0,0.0,0.0,0.0,0.0,0.0,0.0,0.0,0.0,0.0,0.0,0.0,0.0,0.0,0.0,0.0,0.0,0.0,0.0,0.0,0.0,0.0,0.0,0.0,0.0,0.0,0.0,0.0,0.0,0.0,0.0,0.0,0.0,0.0,0.0,0.0,0.0,0.0,0.0,0.0,0.0,0.0,0.0,0.0,0.0,0.0,0.0,0.0,0.0,0.0,0.0,0.0,0.0,0.0,0.0,0.0,0.0,0.0,0.0,0.0,0.0,0.0,0.0,0.0,0.0,0.0,0.0,0.0,0.0,0.0,0.0,0.0,0.0,0.0,0.0,0.0,0.0,0.0,0.0,0.0,0.0,0.0,0.0,0.0,0.0,0.0,0.0,0.0,0.0,0.0,0.0,0.0,0.0,0.0,0.0,0.0,0.0,0.0,0.0,0.0,0.0,0.0,0.0,0.0,0.0,0.0,0.0,0.0,0.0,0.0,0.0,0.0,0.0,0.0,0.0,0.0,0.0,0.0,0.0,0.0,0.0,0.0,0.0,0.0,0.0,0.0,0.0,0.0,0.0,0.0,0.0,0.0,0.0,0.0,0.0,0.0,0.0,0.0,0.0,0.0,0.0,0.0,0.0,0.0,0.0,0.0,0.0,0.0,0.0,0.0,0.0,0.0,0.0,0.0,0.0,0.0,0.0,0.0,0.0,0.0,0.0,0.0,0.0,0.0,0.0,0.0,0.0,0.0,0.0,0.0,0.0,0.0,0.0,0.0,0.0,0.0,0.0,0.0,0.0,0.0,0.0,0.0,0.0,0.0,0.0,0.0,0.0,0.0,0.0,0.0,0.0,0.0,0.0,0.0,0.0,0.0,0.0,0.0,0.0,0.0,0.0,0.0,0.0,0.0,0.0,0.0,0.0,0.0,0.0,0.0,0.0,0.0,0.0,0.0,0.0,0.0,0.0,0.0,0.0,0.0,0.0,0.0,0.0,0.0,0.0,0.0,0.0,0.0,0.0,0.0,0.0,0.0,0.0,0.0,0.0,0.0,0.0,0.0,0.0,0.0,0.0,0.0,0.0,0.0,0.0,0.0,0.0,0.0,0.0,0.0,0.0,0.0,0.0,0.0,0.0,0.0,0.0,0.0,0.0,0.0,0.0,0.0,0.0,0.0,0.0,0.0,0.0,0.0,0.0,0.0,0.0,0.0,0.0,0.0,0.0,0.0,0.0,0.0,0.0,0.0,0.0,0.0,0.0,0.0,0.0,0.0,0.0,0.0,0.0,0.0,0.0,0.0,0.0,0.0,0.0,0.0,0.0,0.0,0.0,0.0,0.0,0.0,0.0,0.0,0.0,0.0,0.0,0.0,0.0,0.0,0.0,0.0,0.0,0.0,0.0,0.0,0.0,0.0,0.0,0.0,0.0,0.0,0.0,0.0,0.0,0.0,0.0,0.0,0.0,0.0,0.0,0.0,0.0,0.0,0.0,0.0,0.0,0.0,0.0,0.0,0.0,0.0,0.0,0.0,0.0,0.0,0.0,0.0,0.0,0.0,0.0,0.0,0.0,0.0,0.0,0.0,0.0,0.0,0.0,0.0,0.0,0.0,0.0,0.0,0.0,0.0,0.0,0.0,0.0,0.0,0.0,0.0,0.0,0.0,0.0,0.0,0.0,0.0,0.0,0.0,0.0,0.0,0.0,0.0,0.0,0.0,0.0,0.0,0.0,0.0,0.0,0.0,0.0,0.0,0.0,0.0,0.0,0.0,0.0,0.0,0.0,0.0,0.0,0.0,0.0,0.0,0.0,0.0,0.0,0.0,0.0,0.0,0.0,0.0,0.0,0.0,0.0,0.0,0.0,0.0,0.0,0.0,0.0,0.0,0.0,0.0,0.0,0.0,0.0,0.0,0.0,0.0,0.0,0.0,0.0,0.0,0.0,0.0,0.0,0.0,0.0,0.0,-4.2983,0.0,0.0,0.0,0.0,0.0,0.0,0.0,0.0,0.0,0.0,0.0,0.0,0.0,0.0,0.0,0.0,0.0,0.0,0.0,0.0,0.0,0.0,0.0,0.0,0.0,0.0,0.0,0.0,0.0,0.0,0.0,0.0,0.0,0.0,0.0,0.0,0.0,0.0,0.0,0.0,0.0,0.0,0.0,0.0,0.0,0.0,0.0,0.0,0.0,0.0,0.0,0.0,0.0,0.0,0.0,0.0,0.0,0.0,0.0,0.0,0.0,0.0,0.0,0.0,0.0,0.0,0.0,0.0,0.0,0.0,0.0,0.0,0.0,0.0,0.0,0.0,0.0,0.0,0.0,0.0,0.0,0.0,0.0,0.0,0.0,0.0,0.0,0.0,0.0,0.0,0.0,0.0,0.0,0.0,0.0,0.0,0.0,0.0,0.0,0.0,0.0,0.0,0.0,0.0,0.0,0.0,0.0,0.0,0.0,0.0,0.0,0.0,0.0,0.0,0.0,0.0,-4.5149,0.0,0.0,0.0,0.0,0.0,0.0,0.0,0.0,0.0,0.0,0.0,0.0,0.0,0.0,0.0,0.0,0.0,0.0,0.0,0.0,0.0,0.0,0.0,0.0,0.0,0.0,0.0,0.0,0.0,0.0,0.0,0.0,0.0,0.0,0.0,0.0,0.0,0.0,0.0,0.0,0.0,0.0,0.0,0.0,0.0,0.0,0.0,0.0,0.0,0.0,0.0,0.0,0.0,0.0,0.0,0.0,0.0,0.0,0.0,0.0,0.0,0.0,0.0,0.0,0.0,0.0,0.0,0.0,0.0,0.0,0.0,0.0,0.0,0.0,0.0,0.0,0.0,0.0,0.0,0.0,0.0,0.0,0.0,0.0,0.0,0.0,0.0,0.0,0.0,0.0,0.0,0.0,0.0,0.0,0.0,0.0,0.0,0.0,0.0,0.0,0.0,0.0,0.0,0.0,0.0,0.0,0.0,0.0,-4.8306,-4.9187,-5.0765,-4.937,-4.9481,-5.0765,-4.9921,-4.8196,-4.5993,-4.6324,0.0,0.0,0.0,0.0,0.0,0.0,0.0,0.0,0.0,0.0,0.0,0.0,0.0,0.0,0.0,0.0,0.0,0.0,0.0,0.0,0.0,0.0,0.0,0.0,0.0,0.0,0.0,0.0,0.0,0.0,0.0,0.0,0.0,0.0,0.0,0.0,0.0,0.0,-3.8969,-4.07,-4.1854,-4.2585,0.0,0.0,0.0,0.0,0.0,0.0,0.0,0.0,0.0,0.0,0.0,0.0,0.0,0.0,0.0,0.0,0.0,0.0,0.0,0.0,0.0,0.0,0.0,0.0,0.0,0.0,0.0,0.0,0.0,0.0,0.0,0.0,0.0,0.0,0.0,0.0,0.0,0.0,0.0,0.0,0.0,0.0,0.0,0.0,-4.1622,-4.2103,0.0,0.0,0.0,0.0,0.0,0.0,0.0,0.0,0.0,0.0,0.0,0.0,0.0,-4.8269,-4.9811,-4.9958,-4.9444,-4.8306,-4.8306,-4.9187,-5.0802,-5.0582,-5.0582,-5.0949,-5.3518,0.0,-5.0655,-4.592,0.0,0.0,0.0,0.0,0.0,0.0,0.0,0.0,0.0,0.0,0.0,0.0,0.0,0.0,0.0,0.0,0.0,0.0,0.0,0.0,0.0,0.0,0.0,0.0,0.0,0.0,0.0,0.0,0.0,0.0,0.0,0.0,0.0,0.0,0.0,0.0,-3.743,-3.8892,-4.0008,-4.22,-4.3662,-4.4509,-4.5086,-4.5932,-4.6817,-4.5316,0.0,0.0,0.0,0.0,0.0,0.0,0.0,0.0,0.0,0.0,0.0,0.0,0.0,0.0,0.0,0.0,0.0,0.0,0.0,0.0,0.0,0.0,0.0,0.0,0.0,0.0,0.0,0.0,0.0,0.0,0.0,0.0,0.0,0.0,0.0,0.0,0.0,0.0,0.0,-4.3201,-4.396,-4.2047,-4.4162,-4.539,0.0,0.0,0.0,0.0,0.0,0.0,0.0,0.0,0.0,-4.915,-4.9958,-5.0949,-5.216,-5.3041,-5.3812,-5.4436,-5.3959,-5.4766,-5.6602,-5.539,-5.5831,-5.774,-6.097,-6.13,-5.9061,-5.3812,-4.882,-4.4672,0.0,0.0,0.0,0.0,-4.3497,-4.4195,0.0,0.0,0.0,0.0,0.0,0.0,0.0,0.0,0.0,0.0,0.0,0.0,0.0,0.0,0.0,-3.4599,0.0,0.0,0.0,0.0,0.0,0.0,0.0,0.0,0.0,0.0,0.0,0.0,-4.0005,-4.1267,-4.1854,-4.4393,-4.6047,-4.6971,-4.8663,-4.9086,-4.8432,-4.7355,-4.6894,0.0,0.0,0.0,0.0,0.0,0.0,0.0,0.0,0.0,0.0,0.0,0.0,0.0,0.0,0.0,0.0,0.0,0.0,0.0,0.0,0.0,0.0,0.0,0.0,0.0,0.0,0.0,0.0,0.0,0.0,0.0,0.0,0.0,0.0,0.0,0.0,0.0,0.0,-4.44,-4.5074,-4.2393,-4.4946,-4.6464,0.0,0.0,0.0,0.0,0.0,0.0,-4.9008,-5.0411,-5.1683,-5.2931,-5.3922,-5.484,-5.5647,-5.6859,-5.8327,-6.0126,-5.8694,-5.9722,-6.2805,-6.119,-6.2254,-6.5375,-6.699,-6.7026,-6.5558,-6.108,-5.4473,-4.7205,-4.7095,-4.7131,-4.7205,-4.7205,-4.7205,-4.8012,0.0,0.0,0.0,0.0,0.0,0.0,0.0,0.0,0.0,0.0,0.0,0.0,0.0,0.0,-3.4431,-3.916,-3.8982,-3.9497,0.0,0.0,0.0,0.0,0.0,0.0,0.0,0.0,0.0,-4.1055,-4.197,-4.3388,-4.5393,-4.7932,-4.9625,-5.051,-5.2202,-5.2933,-5.2626,-4.8586,-4.8279,-5.0164,0.0,0.0,0.0,0.0,0.0,0.0,0.0,0.0,0.0,0.0,0.0,0.0,0.0,0.0,0.0,0.0,0.0,0.0,0.0,0.0,0.0,0.0,0.0,0.0,0.0,0.0,0.0,0.0,0.0,0.0,0.0,0.0,0.0,0.0,0.0,0.0,0.0,0.0,0.0,-4.411,-4.6849,0.0,0.0,0.0,0.0,-4.9135,-5.0621,-5.1956,-5.2867,-5.4399,-5.6381,-5.8731,-6.0309,-6.1484,-6.2328,-6.2401,-6.2511,-6.2585,-5.9501,-6.13,-6.7357,-6.7247,-6.8972,-7.1835,-6.8935,-6.765,-6.732,-6.3943,-6.0493,-5.6381,-4.7278,-4.926,-5.7262,-5.7262,-5.7262,-5.774,0.0,0.0,0.0,0.0,0.0,0.0,0.0,0.0,0.0,0.0,0.0,0.0,0.0,-3.5275,-3.7845,-4.1148,-4.3094,-4.4291,-4.4804,0.0,0.0,0.0,0.0,0.0,0.0,0.0,0.0,-4.4057,-4.5995,-4.7895,-4.9702,-5.1164,-5.2318,-5.3203,-5.4895,-5.5626,-5.5472,-5.2895,-5.1664,-5.1241,-4.8355,-4.7009,0.0,0.0,0.0,0.0,0.0,0.0,0.0,0.0,0.0,0.0,0.0,0.0,0.0,0.0,0.0,0.0,0.0,0.0,0.0,0.0,0.0,0.0,0.0,0.0,0.0,0.0,0.0,0.0,0.0,0.0,0.0,0.0,0.0,0.0,0.0,0.0,0.0,-4.826,-5.052,0.0,-5.1101,-5.1065,-5.1489,-5.2529,-5.3958,-5.5882,-5.8614,-5.9693,-6.154,-6.429,-6.4635,-6.4897,-6.5191,-6.6219,-6.6476,-6.5962,-6.6182,-6.6769,-6.776,-6.9816,-7.1394,-7.2459,-7.1284,-6.9596,-6.776,-6.8678,-6.7136,-6.3466,-5.5831,-5.7519,-6.4237,-6.4237,-6.4237,-6.4383,0.0,0.0,0.0,0.0,0.0,0.0,0.0,0.0,0.0,0.0,0.0,-3.1715,-3.3587,-3.6743,-4.001,-4.324,-4.548,-4.6762,-4.6967,0.0,0.0,0.0,0.0,0.0,0.0,0.0,0.0,0.0,-4.8969,-5.0853,-5.2356,-5.351,-5.4511,-5.5434,-5.7088,-5.7819,-5.778,-5.6973,-5.5126,-5.2549,-5.001,-4.9125,-4.8894,0.0,0.0,0.0,0.0,0.0,0.0,0.0,0.0,0.0,0.0,0.0,0.0,0.0,0.0,0.0,0.0,0.0,0.0,0.0,0.0,0.0,0.0,0.0,0.0,0.0,0.0,0.0,0.0,0.0,0.0,0.0,0.0,0.0,0.0,0.0,-5.0188,-5.1935,-5.4371,-5.5733,-5.5068,-5.5341,-5.6102,-5.7504,-5.8986,-6.1091,-6.3909,-6.4753,-6.6063,-6.7888,-6.8062,-6.7981,-6.7724,-6.8935,-6.9229,-6.8531,-7.0513,-7.0697,-6.9376,-7.1541,-7.2496,-7.2496,-7.2496,-7.066,-6.7871,-7.0,-7.0257,-6.8788,-6.3356,-6.3906,-6.7687,-6.7687,-6.7687,-6.7687,0.0,0.0,0.0,0.0,0.0,0.0,0.0,0.0,0.0,0.0,-2.8301,-3.1237,-3.3587,-3.6853,-4.0744,-4.5516,-4.5883,-4.6533,-4.8123,-4.581,0.0,0.0,0.0,0.0,0.0,0.0,0.0,0.0,0.0,-5.2196,-5.3395,-5.5049,-5.628,-5.7165,-5.8819,-5.955,-5.9588,-6.0435,-5.8434,-5.4472,-5.1895,-5.1318,-5.1625,0.0,0.0,0.0,0.0,0.0,0.0,0.0,0.0,0.0,0.0,0.0,0.0,0.0,0.0,0.0,0.0,0.0,0.0,0.0,0.0,0.0,0.0,0.0,0.0,0.0,0.0,0.0,0.0,0.0,0.0,0.0,0.0,0.0,-4.7289,-5.0885,-5.377,-5.4998,-5.8234,-6.0158,-5.9734,-6.1468,-6.3023,-6.3986,-6.5838,-6.7447,-6.8614,-6.9463,-6.9806,-6.9522,-7.0753,-7.0991,-7.0183,-7.0734,-7.0734,-7.0146,-7.1798,-7.2569,-7.2496,-7.2569,-7.2569,-7.2496,-7.2496,-7.0734,-6.7834,-6.7834,-6.9669,-7.2202,-6.9045,-6.7834,-6.7834,-6.7834,-6.776,-6.7687,0.0,0.0,0.0,0.0,0.0,0.0,0.0,0.0,0.0,0.0,-3.0246,-3.3927,-3.4587,-3.9166,-4.3424,-4.6507,-4.57,-4.6318,-4.9392,0.0,0.0,0.0,0.0,0.0,0.0,0.0,0.0,0.0,0.0,0.0,-5.6934,-5.7973,-5.8934,-5.9781,-6.0242,-6.0435,-6.0473,-6.0704,-6.0127,-5.8781,-5.5588,-5.4126,-5.3395,0.0,0.0,0.0,0.0,0.0,0.0,0.0,0.0,0.0,0.0,0.0,0.0,0.0,0.0,0.0,0.0,0.0,0.0,0.0,0.0,0.0,0.0,0.0,0.0,0.0,0.0,0.0,0.0,0.0,0.0,0.0,0.0,-5.1282,-5.148,-5.3634,-5.6122,-5.8703,-6.1492,-6.3323,-6.355,-6.4871,-6.6175,-6.7354,-6.9154,-7.0799,-7.2358,-7.2222,-7.2628,-7.3757,-7.3713,-7.3128,-7.1835,-7.3156,-7.2753,-7.0697,-7.312,-7.3634,-7.2532,-7.3707,-7.3597,-7.2496,-7.2496,-7.2018,-7.1174,-7.1174,-7.1688,-7.2422,-7.1541,-7.1174,-7.1174,-7.1174,-6.9706,-6.7687,0.0,0.0,0.0,0.0,0.0,0.0,0.0,0.0,0.0,0.0,-3.0503,-3.4504,-3.4504,-3.957,-4.3571,-4.4966,-4.5149,-4.5798,-4.7137,0.0,0.0,0.0,0.0,0.0,0.0,0.0,0.0,0.0,0.0,0.0,-5.8319,-5.9127,-6.0165,-6.132,-6.132,-6.1512,-6.1858,-6.1858,-6.1858,-6.1666,-5.9665,-5.8165,-5.6742,-5.2972,-5.1972,-5.2318,-5.0279,-5.0279,-5.0856,-4.8509,0.0,0.0,0.0,0.0,0.0,0.0,0.0,0.0,0.0,0.0,0.0,0.0,0.0,0.0,0.0,0.0,0.0,0.0,0.0,0.0,0.0,0.0,0.0,0.0,-5.3987,-5.6873,-5.8185,-5.8796,-6.0002,-6.2372,-6.5388,-6.7271,-6.7202,-6.8785,-7.0378,-7.1733,-7.2525,-7.368,-7.5394,-7.4591,-7.4469,-7.538,-7.4979,-7.4625,-7.4515,-7.4551,-7.4258,-7.3597,-7.4258,-7.4184,-7.356,-7.4478,-7.4037,-7.2496,-7.2496,-7.2496,-7.2496,-7.2496,-7.2496,0.0,0.0,0.0,0.0,0.0,-6.9302,-6.7687,0.0,0.0,0.0,0.0,0.0,0.0,0.0,0.0,0.0,0.0,0.0,-3.3476,-3.3293,-3.8248,-4.1699,-4.1882,-4.3754,-4.442,0.0,0.0,0.0,0.0,0.0,0.0,0.0,0.0,0.0,0.0,0.0,0.0,-5.8319,-5.9204,-6.0473,-6.1935,-6.205,-6.2512,-6.3166,-6.3281,-6.332,-6.332,-6.332,-6.232,-6.0358,-5.6511,-5.5857,-5.6665,-5.4241,-5.3049,-5.2472,-5.1356,0.0,0.0,0.0,0.0,0.0,0.0,0.0,0.0,0.0,0.0,0.0,0.0,0.0,0.0,0.0,0.0,0.0,0.0,0.0,0.0,0.0,0.0,0.0,0.0,-5.9102,-6.2389,-6.5989,-6.5639,-6.5277,-6.618,-6.9433,-7.1319,-7.0705,-7.2803,-7.4729,-7.6062,-7.5709,-7.6117,-7.7607,0.0,0.0,0.0,0.0,-7.5823,-7.7304,-7.5432,-7.5432,-7.7304,-7.5395,-7.4625,-7.4918,-7.5102,-7.4404,-7.3046,-7.3046,-7.2863,-7.2532,-7.2899,-7.2826,-7.2459,-7.2092,-7.022,-6.7687,-6.7687,-6.7687,-6.7687,0.0,0.0,0.0,0.0,0.0,0.0,0.0,0.0,0.0,-2.4337,-2.8668,-3.1384,-3.0099,-3.4431,-3.7991,-3.9276,-3.9239,-3.9667,0.0,0.0,0.0,0.0,0.0,0.0,0.0,0.0,0.0,0.0,0.0,0.0,-5.8319,-5.9858,-6.0742,-6.1089,-6.1781,-6.2166,-6.2358,-6.3012,-6.332,-6.332,-6.332,-6.232,-6.0627,-5.9127,-5.7896,-5.6742,-5.4895,-5.5472,-5.6626,-5.3703,-5.3857,-5.4741,-5.1664,0.0,0.0,0.0,0.0,0.0,0.0,0.0,0.0,0.0,0.0,0.0,0.0,0.0,0.0,0.0,0.0,0.0,0.0,0.0,0.0,-6.0776,-6.4879,-6.8563,-7.109,-7.2505,-7.2628,-7.0904,-7.2282,-7.3601,-7.4135,-7.5241,-7.622,-7.6985,-7.7531,-7.7801,-7.7608,-7.7341,-7.7041,-7.6685,-7.6621,-7.6827,-7.7304,-7.69,-7.69,-7.7304,0.0,0.0,-7.4955,-7.624,-7.668,-7.6387,-7.6387,-7.4918,-7.2716,-7.5322,-7.4845,-7.2239,-6.9633,-6.8238,-6.7687,-6.7687,-6.7687,-6.7687,0.0,0.0,0.0,0.0,0.0,0.0,0.0,0.0,0.0,0.0,-2.8044,-3.065,-3.0246,-3.3844,-3.6633,-3.7441,-3.7404,0.0,0.0,0.0,0.0,0.0,0.0,0.0,0.0,0.0,0.0,0.0,0.0,0.0,-5.8357,-6.0012,-6.1243,-6.2089,-6.2512,-6.3205,-6.4012,-6.4436,-6.4589,-6.4589,-6.4589,-6.3858,-6.2551,-6.1281,-6.0281,-5.9396,-5.8088,-5.8204,-5.8588,-5.6472,-5.6011,-5.5895,-5.3356,-5.1702,-5.0317,0.0,0.0,0.0,0.0,0.0,0.0,0.0,0.0,0.0,0.0,0.0,0.0,0.0,0.0,-5.4786,0.0,0.0,-6.3732,-6.6643,-7.0271,-7.328,-7.4855,-7.622,-7.6084,-7.3401,-7.4714,-7.5665,-7.5396,-7.6611,-7.7758,-7.8515,-7.825,-7.8282,-7.8828,-7.7884,-7.74,-7.7638,-7.733,-7.7186,-7.7304,-7.7304,-7.7304,-7.7304,-7.7304,-7.69,-7.613,-7.6937,-7.6423,-7.4992,-7.6607,-7.6423,-7.4918,-7.4918,-7.3964,-7.2349,-7.0734,-7.011,-7.011,-7.011,-6.9082,-6.7687,0.0,0.0,0.0,0.0,0.0,0.0,0.0,0.0,0.0,0.0,0.0,-2.9512,-3.0136,-3.2889,-3.4899,0.0,0.0,0.0,0.0,0.0,0.0,0.0,0.0,0.0,0.0,0.0,0.0,0.0,0.0,-5.9165,-5.8588,-6.0089,-6.1512,-6.282,-6.3166,-6.4089,-6.5436,-6.5743,-6.5897,-6.5897,-6.5897,-6.5474,-6.4705,-6.3166,-6.2358,-6.1973,-6.1089,-6.0012,-5.8934,-5.8473,-5.7242,-5.5742,-5.4549,-5.3587,-5.2395,-4.9856,-4.974,0.0,0.0,0.0,0.0,0.0,0.0,0.0,0.0,0.0,-5.2235,-5.5403,-5.7531,-5.9759,-6.29,-6.6046,-6.9161,-7.2193,-7.4981,-7.7053,-7.79,-7.8592,-7.8113,-7.5725,-7.6998,-7.7684,-7.6683,-7.7905,-7.9083,-7.9812,-7.8635,-7.8481,-7.9689,-7.8166,-7.7494,-7.809,-7.757,-7.7304,-7.7304,-7.7304,-7.7304,-7.7304,-7.7304,-7.7304,-7.7304,-7.7304,-7.5909,-7.356,-7.5542,-7.6387,-7.6203,-7.356,-7.2496,-7.2496,-7.2496,-7.2496,-7.2496,-7.2496,-7.0844,-6.8605,0.0,0.0,0.0,0.0,0.0,0.0,0.0,0.0,0.0,0.0,0.0,0.0,0.0,0.0,0.0,0.0,0.0,0.0,0.0,0.0,0.0,0.0,0.0,0.0,0.0,0.0,0.0,0.0,0.0,-5.9435,-5.9396,-6.0358,-6.0896,-6.1127,-6.2627,-6.3435,-6.3705,-6.5243,-6.5897,-6.5897,-6.5897,-6.582,-6.5628,-6.4705,-6.3397,-6.1973,-6.1089,-5.9281,-5.7357,-5.8088,-5.7665,-5.6934,-5.755,-5.7126,-5.5934,-5.3395,0.0,-4.9279,-4.8125,-4.7509,-4.7702,-4.974,-4.9817,-5.1164,0.0,0.0,-5.9393,-6.2933,-6.5494,-6.7275,-6.785,-7.1152,-7.4418,-7.637,-7.8177,-7.9669,-8.0554,-8.0746,-8.0438,-7.9552,-7.9535,-7.9806,-8.0427,-8.0119,-7.9972,-8.0049,-7.9415,-7.8869,-7.8499,-7.8304,-7.7905,-7.7426,-7.7304,-7.7304,-7.7304,-7.7304,-7.7304,-7.7304,-7.7304,-7.7304,-7.7304,-7.7304,-7.7121,-7.6644,-7.4147,-7.3046,-7.301,-7.2642,-7.2496,-7.2496,-7.2496,-7.2496,-7.2496,-7.2496,-7.2275,-7.1945,0.0,0.0,0.0,0.0,0.0,0.0,0.0,0.0,0.0,0.0,0.0,0.0,0.0,0.0,0.0,0.0,0.0,0.0,0.0,0.0,0.0,0.0,0.0,0.0,0.0,0.0,0.0,0.0,0.0,-5.863,-5.9102,-6.0263,-6.105,-6.1589,-6.2781,-6.3589,-6.4128,-6.5397,-6.5897,-6.5872,-6.5569,-6.5446,-6.537,-6.4461,-6.2357,-5.9836,-5.947,-5.8011,0.0,0.0,-5.5434,-5.5511,-5.5395,-5.5088,-5.428,-5.1741,-5.0933,0.0,-4.9856,-4.9869,0.0,0.0,-5.3632,-5.6245,-6.057,-6.2145,-6.3694,-6.7169,-7.0118,-7.2447,-7.3639,-7.5934,-7.8092,0.0,-7.9752,-8.0078,-8.0461,-7.982,-7.8823,-7.7631,-7.7415,-7.8065,-7.9816,-7.9765,-7.9556,-7.9556,-7.901,-7.8588,-7.8309,-7.7903,-7.7629,-7.7304,-7.7304,-7.7304,-7.7304,-7.7304,-7.7304,-7.7304,-7.7304,-7.7304,-7.7304,-7.7304,-7.6313,-7.4441,-7.3083,-7.2496,-7.2496,-7.2496,-7.2496,-7.2496,-7.2496,-7.1358,-6.9706,-6.9706,-6.9706,-6.9706,0.0,0.0,0.0,0.0,0.0,0.0,0.0,0.0,0.0,0.0,0.0,0.0,0.0,0.0,0.0,0.0,0.0,0.0,0.0,0.0,0.0,0.0,0.0,0.0,0.0,0.0,0.0,0.0,0.0,-5.7938,-5.8973,-5.995,-6.0736,-6.1387,-6.223,-6.2919,-6.3598,-6.4441,-6.4824,-6.4757,-6.4381,-6.4215,-6.4063,-6.2801,-6.021,-5.7289,-5.7417,-5.5685,0.0,0.0,-5.2209,-5.2598,-5.2609,-5.2785,-5.2598,-5.0172,-4.9997,-5.0517,-5.0355,0.0,0.0,-5.4302,-5.7317,-6.0634,-6.3673,-6.5772,-6.8054,-7.1446,-7.4074,-7.6202,-7.7682,-7.8765,0.0,-8.0285,-8.0037,-7.9782,-7.9782,-7.8386,-7.6904,-7.5739,-7.4664,-7.4832,-7.7043,-7.7871,-7.8398,-7.8623,-7.8229,-7.8016,-7.8016,-7.757,-7.7304,-7.7304,-7.7304,-7.7304,-7.7304,-7.7304,-7.7304,-7.7304,-7.7304,-7.7304,-7.7304,-7.7304,-7.5542,-7.2496,-7.2496,-7.2496,-7.2496,-7.2496,-7.2496,-7.2496,-7.2496,-7.1064,-6.9009,-6.9009,-6.8458,-6.7687,0.0,0.0,0.0,0.0,0.0,0.0,0.0,0.0,0.0,0.0,0.0,0.0,0.0,0.0,0.0,0.0,0.0,0.0,0.0,0.0,0.0,0.0,0.0,0.0,0.0,0.0,0.0,0.0,0.0,-5.7767,-5.9386,-5.9424,-5.9462,-5.9499,-6.0402,-6.078,-6.0856,-6.1649,-6.2024,-6.1989,-6.1989,-6.1989,-6.1725,-5.9375,-5.6879,-5.4754,-5.5222,0.0,0.0,0.0,-4.8251,-4.8251,-5.0323,-5.1749,0.0,-5.021,-4.8483,0.0,0.0,0.0,-5.2975,-5.7422,-6.0017,-6.3049,-6.8813,-7.1295,-7.3383,-7.691,-7.8027,-7.8468,-7.8789,-7.8688,-7.8554,-7.8554,-7.8773,-7.8943,-7.8943,-7.7062,-7.5664,-7.5626,-7.2274,-7.0629,0.0,-7.4611,-7.6312,-7.7095,-7.7266,-7.7304,-7.7304,-7.7304,-7.7304,-7.7304,-7.7304,-7.7304,-7.7304,-7.7304,-7.7304,-7.7304,-7.7304,-7.7304,-7.7304,-7.7304,-7.5542,-7.2496,-7.2496,-7.2496,-7.2496,-7.2496,-7.2496,-7.2496,-7.2496,-7.2459,-7.2349,-7.2349,-7.0367,-6.7687,0.0,0.0,0.0,0.0,0.0,0.0,0.0,0.0,0.0,0.0,0.0,0.0,0.0,0.0,0.0,0.0,0.0,0.0,0.0,0.0,0.0,0.0,0.0,0.0,0.0,0.0,0.0,0.0,-5.4574,-5.5469,-5.6555,-5.7401,-5.78,-5.7838,-5.874,-5.9118,-5.9156,-5.9949,-6.0591,-6.0972,-5.9591,-5.9403,-5.9552,-5.6517,-5.3306,-5.0298,0.0,0.0,0.0,0.0,0.0,0.0,-4.5155,0.0,0.0,-4.7284,-4.7643,-4.8555,0.0,0.0,-5.7582,-6.1178,-6.47,-6.8483,-7.3074,-7.5209,-7.6335,-7.6723,-7.6193,-7.5149,-7.3648,-7.2471,-7.2274,-7.3914,-7.4767,-7.5652,-7.6733,-7.6327,-7.4529,-7.0796,-7.0184,0.0,0.0,0.0,0.0,-7.551,-7.6139,-7.6754,-7.7304,-7.7304,-7.7304,-7.7304,-7.7304,-7.7304,-7.7304,-7.7304,-7.7304,-7.7304,-7.7304,-7.7304,-7.7304,-7.7304,-7.5542,-7.2496,-7.2496,-7.2496,-7.2496,-7.2496,-7.2496,-7.2496,-7.2496,-7.2496,-7.2496,-7.2496,-7.1798,-7.0587,0.0,0.0,0.0,0.0,0.0,0.0,0.0,0.0,0.0,0.0,0.0,0.0,0.0,0.0,0.0,0.0,0.0,0.0,0.0,0.0,0.0,0.0,0.0,0.0,0.0,0.0,0.0,0.0,-5.0898,-5.1862,-5.2678,-5.4128,-5.4795,-5.4832,-5.5357,-5.5619,-5.5656,-5.6179,-5.6517,-5.6555,-5.5285,-5.4869,-5.4721,-5.1751,-4.8938,0.0,0.0,0.0,0.0,0.0,0.0,0.0,0.0,-4.3465,-4.5132,-4.6016,-4.7564,-4.9603,0.0,-5.698,-6.1536,-6.5161,-6.8847,-7.2432,-7.5551,-7.6846,-7.7021,-7.5512,-7.3451,-7.1231,-6.9055,-6.6783,-6.6215,-6.9094,-7.0041,-7.1317,-7.4187,-7.3739,-7.2165,-6.9706,-6.9045,0.0,0.0,0.0,0.0,-7.3891,-7.5322,-7.635,-7.6864,-7.7157,-7.7304,-7.7304,-7.7304,-7.7304,-7.7304,-7.7304,-7.7304,-7.7304,-7.7304,-7.7304,-7.7304,-7.7304,-7.5542,-7.2496,-7.2496,-7.2496,-7.2496,-7.2496,-7.2496,-7.2496,-7.2496,-7.2496,-7.2496,-7.2496,-7.2496,-7.2055,0.0,0.0,0.0,0.0,0.0,0.0,0.0,0.0,0.0,0.0,0.0,0.0,0.0,0.0,0.0,0.0,0.0,0.0,0.0,0.0,0.0,0.0,0.0,0.0,0.0,0.0,0.0,0.0,-4.6104,-4.7241,-4.8049,-4.9664,-5.0435,-5.0508,-5.0508,-5.0508,-5.0545,-5.0545,-5.0105,-4.937,-4.9334,-4.8857,-4.7902,-4.5516,0.0,0.0,0.0,0.0,0.0,0.0,0.0,0.0,0.0,0.0,-4.421,-4.6619,-4.8453,-5.0967,-5.6893,-6.1086,-6.4815,-6.9195,-7.2395,-7.4827,-7.6344,-7.642,-7.5551,-7.3263,-6.9957,-6.685,0.0,0.0,-6.0665,-6.4311,-6.4933,-6.6694,-7.1516,-6.9843,-6.9192,0.0,0.0,0.0,0.0,0.0,0.0,-7.2459,0.0,-7.6056,-7.6166,-7.69,-7.7304,-7.7304,-7.7304,-7.7304,-7.7304,-7.7304,-7.7304,-7.7304,-7.7304,-7.7304,-7.7304,-7.7304,-7.5542,-7.2496,-7.2496,-7.2496,-7.2496,-7.2496,-7.2496,-7.2496,-7.2496,-7.2496,-7.2496,-7.2496,-7.2386,-7.1835,0.0,0.0,0.0,0.0,0.0,0.0,0.0,0.0,0.0,0.0,0.0,0.0,0.0,0.0,0.0,0.0,0.0,0.0,0.0,0.0,0.0,0.0,0.0,0.0,0.0,0.0,0.0,0.0,0.0,-4.3644,-4.3864,-4.4892,-4.5663,0.0,-4.625,-4.6581,-4.7131,-4.7131,-4.7388,-4.7609,0.0,-4.6177,-4.625,0.0,0.0,0.0,0.0,0.0,0.0,0.0,0.0,0.0,0.0,0.0,-4.7567,-4.9765,0.0,-5.8005,-6.0456,-6.5584,-7.0677,-7.2536,-7.4558,-7.6095,-7.6147,-7.4775,-7.231,-6.8188,-6.4062,-6.0121,0.0,0.0,0.0,-6.0115,-6.377,0.0,-7.1821,-7.3309,0.0,0.0,0.0,-7.1394,-7.022,-7.1174,0.0,0.0,-7.4515,-7.5726,-7.6937,-7.7194,-7.7304,-7.7304,-7.7304,-7.7304,-7.7304,-7.7304,-7.7304,-7.7304,-7.7304,-7.7304,-7.7304,-7.7304,-7.5542,-7.2496,-7.2496,-7.2496,-7.2496,-7.2496,-7.2496,-7.2496,-7.2496,-7.2496,-7.2496,-7.2496,-7.0991,-6.8788,0.0,0.0,0.0,0.0,0.0,0.0,0.0,0.0,0.0,0.0,0.0,0.0,0.0,0.0,0.0,0.0,0.0,0.0,0.0,0.0,0.0,0.0,0.0,0.0,0.0,0.0,0.0,0.0,0.0,0.0,0.0,-4.0487,-4.1295,-4.2066,-4.1699,-4.1992,-4.2727,0.0,0.0,0.0,0.0,0.0,0.0,0.0,0.0,0.0,0.0,0.0,0.0,0.0,0.0,-4.4483,-4.7365,-4.9625,-5.1793,-5.495,0.0,-6.25,-6.4818,-6.9381,-7.3642,-7.4172,-7.5653,-7.631,-7.3782,-7.1521,-6.8259,-6.233,-5.7924,0.0,0.0,0.0,0.0,0.0,0.0,0.0,-6.9633,-7.1872,-7.3083,0.0,-7.3891,0.0,-7.2826,-7.356,-7.4404,0.0,-7.5359,-7.5836,-7.6754,-7.7121,-7.7304,-7.7304,-7.7304,-7.7304,-7.7304,-7.7304,-7.7304,-7.7304,-7.7304,-7.7304,-7.7304,-7.7304,-7.5542,-7.2496,0.0,-7.2496,-7.2496,-7.2496,-7.2496,-7.2496,-7.2496,-7.1651,-7.0403,-7.0403,-6.9229,-6.7687,0.0,0.0,0.0,0.0,0.0,0.0,0.0,0.0,0.0,0.0,0.0,0.0,0.0,0.0,0.0,0.0,0.0,0.0,0.0,0.0,0.0,0.0,0.0,0.0,0.0,0.0,0.0,0.0,0.0,0.0,0.0,0.0,0.0,0.0,0.0,0.0,0.0,0.0,0.0,0.0,0.0,0.0,0.0,0.0,0.0,0.0,0.0,0.0,0.0,0.0,-4.6675,-4.7086,-5.145,-5.4178,-5.6626,-6.1077,-6.3609,-6.5809,-6.9393,-7.2745,-7.5168,-7.5091,-7.6015,-7.5592,-7.0305,-6.7295,-6.352,-5.6261,0.0,0.0,-4.7169,0.0,-4.7389,-5.1714,0.0,-5.9501,-6.6806,-6.8568,-7.0807,-7.5542,-7.5469,-7.5395,-7.6166,-7.6276,-7.657,-7.7268,-7.6644,-7.6276,-7.6276,-7.6937,-7.7304,-7.7304,-7.7304,-7.7304,-7.7304,-7.7304,-7.7304,-7.7304,-7.7304,-7.7304,-7.7304,-7.7304,-7.5799,-7.3156,-7.3156,-7.2899,-7.2496,-7.2496,-7.2496,-7.2496,-7.2496,-7.077,-6.8274,-6.7834,-6.7687,-6.7687,0.0,0.0,0.0,0.0,0.0,0.0,0.0,0.0,0.0,0.0,0.0,0.0,0.0,0.0,0.0,0.0,0.0,0.0,0.0,0.0,0.0,0.0,0.0,0.0,0.0,0.0,0.0,0.0,0.0,0.0,0.0,0.0,0.0,0.0,0.0,0.0,0.0,0.0,0.0,0.0,0.0,0.0,0.0,0.0,0.0,0.0,0.0,0.0,0.0,0.0,-5.0294,-5.1852,-5.5065,-5.86,-6.2181,-6.5677,-6.8291,-7.0615,-7.3129,-7.5784,-7.7669,-7.7015,-7.5976,-7.3572,-6.7429,-6.3093,0.0,0.0,0.0,-4.5792,-4.2802,0.0,0.0,-5.148,0.0,0.0,0.0,0.0,0.0,0.0,0.0,0.0,0.0,0.0,0.0,0.0,0.0,-7.7121,-7.7121,-7.7231,-7.7304,-7.7304,-7.7304,-7.7304,-7.7304,-7.7304,-7.7304,-7.7304,-7.7304,-7.7304,-7.7304,-7.7304,-7.7011,-7.6497,-7.6497,0.0,-7.2496,-7.2496,-7.2496,-7.2496,-7.2496,-7.2165,-7.1358,-6.8678,-6.7687,-6.7687,0.0,0.0,0.0,0.0,0.0,0.0,0.0,0.0,0.0,0.0,0.0,0.0,0.0,0.0,0.0,0.0,0.0,0.0,0.0,0.0,0.0,0.0,0.0,0.0,0.0,0.0,0.0,0.0,0.0,0.0,0.0,0.0,0.0,0.0,0.0,0.0,0.0,0.0,0.0,0.0,0.0,0.0,0.0,0.0,0.0,0.0,0.0,0.0,0.0,0.0,-4.9603,-5.2455,-5.7334,-6.0486,-6.3125,-6.6893,-6.9306,-7.1345,-7.4216,-7.667,-7.8207,-7.6938,-7.4474,-7.0593,-6.3628,0.0,0.0,0.0,0.0,-4.2939,-4.136,0.0,0.0,0.0,0.0,0.0,0.0,0.0,0.0,0.0,0.0,0.0,0.0,0.0,0.0,0.0,0.0,-7.7304,-7.7304,-7.7304,-7.7304,-7.7304,-7.7304,-7.7304,-7.7304,-7.7304,-7.7304,-7.7304,-7.7304,-7.7304,-7.7304,-7.7304,-7.7304,-7.7304,-7.7304,-7.6423,-7.4882,-7.3193,-7.2496,-7.2496,-7.2496,-7.2496,-7.2129,-6.8898,-6.7687,-6.7687,0.0,0.0,0.0,0.0,0.0,0.0,0.0,0.0,0.0,0.0,0.0,0.0,0.0,0.0,0.0,0.0,0.0,0.0,0.0,0.0,0.0,0.0,0.0,0.0,0.0,0.0,0.0,0.0,0.0,0.0,0.0,0.0,0.0,0.0,0.0,0.0,0.0,0.0,0.0,0.0,0.0,0.0,0.0,0.0,0.0,0.0,0.0,0.0,0.0,0.0,-4.7352,-5.0483,-5.6219,-5.9778,-6.2559,-6.6333,-6.8679,-7.0798,-7.4142,-7.6522,-7.77,-7.6202,-7.2632,-6.7584,-6.036,-5.4132,0.0,0.0,0.0,-4.0818,-4.0634,0.0,0.0,0.0,0.0,0.0,0.0,0.0,0.0,0.0,0.0,0.0,0.0,0.0,0.0,0.0,0.0,0.0,-7.7304,-7.7304,-7.7304,-7.7304,-7.7304,-7.7304,-7.7304,-7.7304,-7.7304,-7.7304,-7.7304,-7.7304,-7.7304,-7.7304,-7.7304,-7.7304,-7.7304,-7.6937,-7.6093,-7.356,-7.2496,-7.2496,-7.2496,-7.2496,-7.2202,-6.9669,-6.8274,-6.7687,0.0,0.0,0.0,0.0,0.0,0.0,0.0,0.0,0.0,0.0,0.0,0.0,0.0,0.0,0.0,0.0,0.0,0.0,0.0,0.0,0.0,0.0,0.0,0.0,0.0,0.0,0.0,0.0,0.0,0.0,0.0,0.0,0.0,0.0,0.0,0.0,0.0,0.0,0.0,0.0,0.0,0.0,0.0,0.0,0.0,0.0,0.0,0.0,0.0,0.0,0.0,-4.5736,-4.853,-5.5049,-6.2022,-6.4294,0.0,0.0,-7.3538,-7.5434,-7.6384,-7.5432,-7.0997,-6.5253,-5.9213,0.0,0.0,0.0,-4.0799,-3.979,-3.9056,-4.0304,0.0,0.0,0.0,0.0,0.0,0.0,0.0,0.0,0.0,0.0,0.0,0.0,0.0,0.0,0.0,0.0,-7.7304,-7.7304,-7.7304,-7.7304,-7.7304,-7.7304,-7.7304,-7.7304,-7.7304,-7.7304,-7.7304,-7.7304,-7.7304,-7.7304,-7.7304,-7.7304,-7.7304,-7.5652,0.0,-7.2642,-7.2496,-7.2496,-7.2496,-7.2496,-7.2459,-7.2165,-7.022,-6.7687,0.0,0.0,0.0,0.0,0.0,0.0,0.0,0.0,0.0,0.0,0.0,0.0,0.0,0.0,0.0,0.0,0.0,0.0,0.0,0.0,0.0,0.0,0.0,0.0,0.0,0.0,0.0,0.0,0.0,0.0,0.0,0.0,0.0,0.0,0.0,0.0,0.0,0.0,0.0,0.0,0.0,0.0,0.0,0.0,0.0,0.0,0.0,0.0,0.0,0.0,0.0,0.0,-4.3681,-4.7719,0.0,0.0,-6.1437,-6.5073,-7.0196,-7.3307,-7.4935,-7.4061,-6.8603,-6.2291,-5.7914,0.0,0.0,-4.2358,-4.0504,-3.9239,-3.9386,-3.9937,-4.0855,0.0,0.0,0.0,0.0,0.0,0.0,0.0,0.0,0.0,0.0,0.0,0.0,0.0,0.0,0.0,-7.7304,-7.7304,-7.7304,-7.7304,-7.7304,-7.7304,-7.7304,-7.7304,-7.7304,-7.7304,-7.7304,-7.7304,-7.7304,-7.7304,-7.624,-7.4404,-7.4404,-7.367,0.0,-7.2496,-7.2496,-7.2496,-7.2496,-7.2496,-7.2496,-7.2496,-7.044,-6.7687,0.0,0.0,0.0,0.0,0.0,0.0,0.0,0.0,0.0,0.0,0.0,0.0,0.0,0.0,0.0,0.0,0.0,0.0,0.0,0.0,0.0,0.0,0.0,0.0,0.0,0.0,0.0,0.0,0.0,0.0,0.0,0.0,0.0,0.0,0.0,0.0,0.0,0.0,0.0,0.0,0.0,0.0,0.0,0.0,0.0,0.0,0.0,0.0,0.0,0.0,0.0,0.0,0.0,0.0,0.0,0.0,-5.5775,-6.0264,-6.5571,-6.9573,-7.2084,-7.1476,-6.5782,-5.9437,0.0,0.0,0.0,-4.1825,-4.0142,-3.8872,-3.9423,-3.9753,-4.0157,-4.0965,0.0,0.0,0.0,0.0,0.0,0.0,0.0,0.0,0.0,0.0,0.0,0.0,0.0,0.0,-7.7304,-7.7304,-7.7304,-7.7304,-7.7304,-7.7304,-7.7304,-7.7304,-7.7304,-7.7304,-7.7304,-7.7304,-7.7304,-7.7304,-7.6093,-7.3891,-7.2899,-7.2496,0.0,-7.2496,-7.2496,-7.2422,-7.1468,-7.1651,-7.2496,-7.2496,-7.044,-6.7687,0.0,0.0,0.0,0.0,0.0,0.0,0.0,0.0,0.0,0.0,0.0,0.0,0.0,0.0,0.0,0.0,0.0,0.0,0.0,0.0,0.0,0.0,0.0,0.0,0.0,0.0,0.0,-2.7824,-2.8631,0.0,0.0,0.0,0.0,0.0,0.0,0.0,0.0,0.0,0.0,0.0,0.0,0.0,0.0,0.0,0.0,0.0,0.0,0.0,0.0,0.0,0.0,0.0,0.0,0.0,0.0,0.0,-5.1132,-5.7373,-5.9832,-6.3854,-6.7374,-6.7365,-6.2529,-5.6966,0.0,0.0,0.0,-4.0663,-3.9505,-3.8689,-3.8726,-3.935,-4.0157,-4.0965,-4.1772,0.0,0.0,0.0,0.0,0.0,0.0,0.0,0.0,0.0,0.0,0.0,0.0,0.0,-7.7304,-7.7304,-7.7304,-7.7304,-7.7304,-7.7304,-7.7304,-7.7304,-7.7304,-7.7304,-7.7304,-7.7304,-7.7304,-7.7304,-7.7304,-7.7084,-7.3891,-7.2496,0.0,-7.2496,-7.2496,-7.2165,-6.8972,-6.9706,-7.2496,-7.2496,-7.044,-6.7687,0.0,0.0,0.0,0.0,0.0,0.0,0.0,0.0,0.0,0.0,0.0,0.0,0.0,0.0,0.0,0.0,0.0,0.0,0.0,0.0,0.0,0.0,0.0,0.0,0.0,0.0,-2.7273,-2.8631,-2.9439,-2.9843,0.0,0.0,0.0,0.0,0.0,0.0,0.0,0.0,0.0,0.0,0.0,0.0,0.0,0.0,0.0,0.0,0.0,0.0,0.0,0.0,0.0,0.0,0.0,0.0,0.0,0.0,0.0,0.0,-5.3702,-5.6522,-5.8504,-5.846,-5.4847,-5.0897,-4.9378,0.0,0.0,-4.083,-3.9737,-3.8872,-3.9423,-3.9276,-3.9717,-4.1625,-4.2139,0.0,0.0,0.0,0.0,0.0,0.0,0.0,0.0,0.0,0.0,0.0,0.0,0.0,-7.7304,-7.7304,-7.7304,-7.7304,-7.7304,-7.7304,-7.7304,-7.7304,-7.7304,-7.7304,-7.7304,-7.7304,-7.7304,-7.7304,-7.613,-7.3964,-7.2936,-7.2496,-7.2496,-7.2496,-7.2496,-7.2165,-6.8935,-6.8311,-6.9486,-7.1688,-7.044,-6.7687,0.0,0.0,0.0,0.0,0.0,0.0,0.0,0.0,0.0,0.0,0.0,0.0,0.0,0.0,0.0,0.0,0.0,0.0,0.0,0.0,0.0,0.0,0.0,0.0,0.0,-2.6429,-2.7383,-2.8975,-2.9806,-3.0356,-3.0687,-3.1494,-3.1861,0.0,0.0,0.0,0.0,0.0,0.0,0.0,0.0,0.0,-3.4073,0.0,0.0,0.0,0.0,0.0,0.0,0.0,0.0,0.0,0.0,0.0,0.0,0.0,-4.012,0.0,0.0,-5.0875,-5.2564,-5.2564,-4.9958,0.0,0.0,0.0,0.0,0.0,0.0,-3.8836,-3.935,-3.9056,-3.9276,-4.1111,-4.1662,0.0,0.0,0.0,0.0,0.0,0.0,0.0,0.0,0.0,0.0,0.0,0.0,0.0,-7.7304,-7.7304,-7.7304,-7.7304,-7.7304,-7.7304,-7.7304,-7.7304,-7.7304,-7.7304,-7.7304,-7.7304,-7.7268,-7.6056,-7.4404,-7.2496,-7.2496,-7.2496,0.0,-7.2496,-7.1798,-7.0477,-6.8458,-6.7687,-6.7944,-6.9926,-6.9412,-6.7687,0.0,0.0,0.0,0.0,0.0,0.0,0.0,0.0,0.0,0.0,0.0,0.0,0.0,0.0,0.0,0.0,0.0,0.0,0.0,0.0,0.0,0.0,0.0,0.0,0.0,-2.6209,-2.742,-2.9085,-2.9879,-3.0687,-3.1494,-3.2375,-3.2742,-3.2742,0.0,0.0,0.0,0.0,0.0,0.0,0.0,0.0,0.0,0.0,0.0,0.0,0.0,0.0,0.0,0.0,0.0,0.0,0.0,0.0,0.0,0.0,0.0,0.0,0.0,0.0,0.0,0.0,0.0,0.0,0.0,0.0,0.0,0.0,0.0,0.0,0.0,0.0,-3.9019,-3.99,0.0,0.0,0.0,0.0,0.0,0.0,0.0,0.0,0.0,0.0,0.0,0.0,0.0,0.0,-7.7304,-7.7304,-7.7304,-7.7231,-7.7231,-7.7231,-7.7194,-7.7268,-7.7304,-7.7304,-7.7084,-7.6974,-7.6864,-7.3854,-7.2496,0.0,-7.2496,-7.2386,-7.2165,-7.2165,-7.0403,-6.7687,-6.7687,-6.7687,-6.7687,-6.7687,-6.7687,-6.7687,0.0,0.0,0.0,0.0,0.0,0.0,0.0,0.0,0.0,0.0,0.0,0.0,0.0,0.0,0.0,0.0,0.0,0.0,0.0,0.0,0.0,0.0,0.0,0.0,0.0,-2.6502,-2.7714,-2.9916,-3.0723,-3.1531,-3.2339,-3.3743,-3.4137,-3.355,-3.4357,0.0,0.0,0.0,0.0,0.0,0.0,0.0,0.0,0.0,0.0,0.0,-3.1898,-3.1678,0.0,0.0,0.0,0.0,0.0,0.0,0.0,0.0,-3.6413,-3.6817,-3.7955,0.0,-4.1075,0.0,0.0,0.0,0.0,0.0,0.0,0.0,0.0,0.0,0.0,0.0,0.0,0.0,0.0,0.0,0.0,0.0,0.0,0.0,0.0,0.0,0.0,0.0,0.0,0.0,0.0,-7.7304,-7.7304,-7.7304,-7.7047,-7.6423,-7.6387,-7.6276,-7.6093,-7.69,-7.7304,-7.7304,-7.4808,-7.3634,-7.3597,-7.2863,-7.2496,-7.2496,-7.2496,-7.1101,-6.8825,-6.8825,-6.8385,-6.7687,-6.7687,-6.7687,-6.7687,-6.7687,-6.7687,-6.7687,0.0,0.0,0.0,0.0,0.0,0.0,0.0,0.0,0.0,0.0,0.0,0.0,0.0,0.0,0.0,0.0,0.0,0.0,0.0,0.0,0.0,0.0,0.0,0.0,0.0,-2.6709,-2.8164,-3.076,-3.1201,-3.2192,-3.3707,-3.4587,-3.477,-3.4357,-3.4431,-3.4211,-3.3807,0.0,0.0,0.0,-3.366,0.0,0.0,0.0,0.0,0.0,-3.1421,-3.1164,0.0,-3.2192,-3.2596,-3.2816,0.0,0.0,0.0,0.0,-3.5422,-3.5642,-3.5238,-3.6633,-3.8028,-3.7588,-3.8102,-3.8505,0.0,0.0,0.0,0.0,0.0,0.0,0.0,0.0,0.0,0.0,0.0,0.0,0.0,0.0,0.0,0.0,0.0,0.0,0.0,0.0,0.0,0.0,0.0,-7.7304,-7.7304,-7.7304,-7.6937,-7.613,-7.6093,-7.5836,-7.5359,-7.5909,-7.6093,-7.5799,-7.356,-7.2496,-7.2496,-7.2496,-7.2496,-7.2496,-7.2496,-7.066,-6.7687,-6.7687,-6.7687,-6.7687,-6.7687,-6.7687,-6.7687,-6.7687,-6.7687,-6.7687,0.0,0.0,0.0,0.0,0.0,0.0,0.0,0.0,0.0,0.0,0.0,0.0,0.0,0.0,0.0,0.0,0.0,0.0,0.0,0.0,0.0,0.0,0.0,-2.4825,-2.6149,-2.6778,-2.8518,-3.1384,-3.1531,-3.2779,-3.499,-3.5247,-3.532,-3.5137,-3.4357,-3.3917,-3.3807,-3.3807,0.0,0.0,-3.355,0.0,0.0,0.0,0.0,0.0,0.0,0.0,0.0,-3.1788,-3.2412,-3.2742,-3.3403,0.0,0.0,0.0,0.0,0.0,-3.4137,-3.5679,-3.747,-3.7184,-3.7918,-3.8469,0.0,0.0,0.0,0.0,0.0,0.0,0.0,0.0,0.0,0.0,0.0,0.0,0.0,0.0,0.0,0.0,0.0,0.0,0.0,0.0,0.0,0.0,0.0,-7.7011,-7.7121,-7.7011,-7.6644,-7.5946,-7.5799,-7.5285,-7.4368,-7.4478,-7.4331,-7.3854,-7.2936,-7.2239,-7.1798,-7.2275,-7.2239,-7.1762,-7.1762,0.0,-6.7687,-6.7687,-6.7687,-6.7687,-6.7687,-6.7687,-6.7687,-6.7687,-6.7687,-6.7687,0.0,0.0,0.0,0.0,0.0,0.0,0.0,0.0,0.0,0.0,0.0,0.0,0.0,0.0,0.0,0.0,0.0,0.0,0.0,0.0,0.0,0.0,-2.3307,-2.4643,-2.6475,-2.6622,-2.8256,-3.1384,-3.2082,-3.333,-3.5027,-3.645,-3.6743,-3.6046,-3.5202,-3.4468,-3.3807,-3.3807,-3.3733,-3.3623,-3.3733,0.0,0.0,0.0,0.0,0.0,0.0,0.0,0.0,-3.0503,-3.1494,-3.2632,-3.2742,0.0,0.0,0.0,0.0,0.0,-3.466,-3.6119,-3.7147,-3.5752,-3.7074,-3.8322,0.0,0.0,0.0,0.0,0.0,0.0,0.0,0.0,0.0,0.0,0.0,0.0,0.0,0.0,0.0,0.0,0.0,0.0,0.0,0.0,0.0,0.0,0.0,-7.5579,-7.624,-7.5652,-7.5212,-7.5102,-7.4404,-7.3377,-7.1872,-7.2532,-7.2826,-7.2753,-7.2569,-7.1064,-6.8531,-7.1248,-7.0991,-6.8421,0.0,-6.8164,-6.7687,-6.7687,-6.7687,-6.7687,-6.7687,-6.7687,-6.7687,-6.7687,-6.7687,-6.7687,0.0,0.0,0.0,0.0,0.0,0.0,0.0,0.0,0.0,0.0,0.0,0.0,0.0,0.0,0.0,0.0,0.0,0.0,0.0,0.0,0.0,0.0,-2.3861,-2.4705,-2.602,-2.7465,-2.9491,-3.2045,-3.2852,-3.4321,-3.6376,-3.667,-3.6633,-3.6229,-3.4945,-3.4137,-3.3807,-3.3807,-3.3807,-3.3807,0.0,0.0,0.0,0.0,0.0,0.0,0.0,0.0,0.0,0.0,-3.2339,-3.2706,-3.3109,0.0,0.0,0.0,0.0,0.0,-3.4247,-3.5238,-3.6083,-3.5789,-3.7881,-3.957,0.0,0.0,0.0,0.0,0.0,0.0,0.0,0.0,0.0,0.0,0.0,0.0,0.0,0.0,0.0,0.0,0.0,0.0,0.0,0.0,0.0,0.0,0.0,0.0,-7.5432,-7.5102,-7.4698,-7.4258,-7.3891,-7.2936,-7.1321,-7.1248,-7.1358,-7.1615,-7.044,-7.0036,-7.0293,-7.0,-6.9082,-6.7687,0.0,-6.7687,-6.7614,-6.6769,-6.6916,-6.7687,-6.7687,-6.7687,-6.7687,-6.7687,-6.7687,-6.7687,0.0,0.0,0.0,0.0,0.0,0.0,0.0,0.0,0.0,0.0,0.0,0.0,0.0,0.0,0.0,0.0,0.0,0.0,0.0,0.0,-2.2801,-2.395,-2.4428,-2.5227,-2.6365,-2.8572,-3.0763,-3.2889,-3.388,-3.5532,-3.7734,-3.6964,-3.6486,-3.6229,-3.4724,-3.399,-3.3807,-3.3807,-3.3807,-3.3807,0.0,0.0,0.0,0.0,0.0,0.0,0.0,0.0,0.0,0.0,0.0,0.0,0.0,0.0,0.0,-3.3807,-3.3807,-3.3844,-3.4027,-3.4688,-3.5459,-3.6119,0.0,0.0,0.0,0.0,0.0,0.0,0.0,0.0,0.0,0.0,0.0,0.0,0.0,0.0,0.0,0.0,0.0,0.0,0.0,0.0,0.0,0.0,0.0,0.0,0.0,0.0,-7.4331,-7.4001,-7.367,-7.3413,-7.3046,-7.2275,-7.1027,-7.022,-7.0073,-7.0513,-6.8605,-6.8972,-7.1284,-6.8825,-6.7687,-6.7687,-6.7687,-6.7687,-6.7577,-6.6366,-6.6366,-6.7173,-6.754,-6.721,-6.6623,-6.7393,-6.7687,-6.7687,0.0,0.0,0.0,0.0,0.0,0.0,0.0,0.0,0.0,0.0,0.0,0.0,0.0,0.0,0.0,0.0,0.0,0.0,0.0,0.0,-2.246,-2.279,-2.4539,-2.6548,-2.8709,-2.9685,-3.1323,-3.3697,-3.5312,-3.6964,-3.8615,-3.7771,-3.7,-3.6266,-3.5349,-3.4504,-3.3807,-3.3807,-3.3807,-3.3807,-3.3807,0.0,0.0,0.0,0.0,0.0,0.0,0.0,0.0,0.0,0.0,0.0,0.0,0.0,-3.3807,-3.3807,-3.3807,-3.3954,-3.4697,-3.5569,-3.6229,-3.6266,0.0,0.0,0.0,0.0,0.0,0.0,0.0,0.0,0.0,0.0,0.0,0.0,0.0,0.0,0.0,0.0,0.0,0.0,0.0,0.0,0.0,0.0,0.0,0.0,0.0,0.0,-7.2642,-7.1248,-7.1101,-7.2532,-7.1138,-7.0293,-7.0183,-6.9412,-6.9119,-6.9376,-6.8238,-6.7797,-6.8017,-6.7797,-6.7687,-6.7687,-6.7687,-6.7687,-6.7687,-6.7577,-6.6733,-6.5632,-6.71,-6.5852,-6.3539,-6.6586,-6.7687,-6.7687,0.0,0.0,0.0,0.0,0.0,0.0,0.0,0.0,0.0,0.0,0.0,0.0,0.0,0.0,0.0,0.0,0.0,0.0,0.0,0.0,-2.274,-2.3724,-2.4923,-2.668,-2.8938,-3.0283,-3.1641,-3.3073,-3.5238,-3.6853,-3.7918,-3.6597,-3.5789,-3.5459,-3.4614,-3.41,-3.3807,-3.3807,-3.3807,-3.3807,-3.3807,-3.3623,0.0,0.0,0.0,0.0,0.0,0.0,0.0,0.0,-3.3293,-3.3733,0.0,-3.355,-3.3807,-3.3807,-3.3807,-3.388,-3.4174,-3.5275,-3.6413,-3.6927,0.0,0.0,0.0,0.0,0.0,0.0,0.0,0.0,0.0,0.0,0.0,0.0,0.0,0.0,0.0,0.0,0.0,0.0,0.0,0.0,0.0,0.0,0.0,0.0,0.0,0.0,-7.1027,-7.044,-7.0367,-7.0991,-7.0403,-6.9853,-6.9376,-6.9045,-6.8458,-6.754,-6.765,-6.7687,-6.7687,-6.7687,-6.7687,-6.7687,-6.7687,-6.7687,-6.7687,-6.7687,-6.6733,-6.5485,-6.7063,-6.5705,-6.2952,-6.42,-6.464,-6.464,0.0,0.0,0.0,0.0,0.0,0.0,0.0,0.0,0.0,0.0,0.0,0.0,0.0,0.0,0.0,0.0,0.0,0.0,0.0,-2.2327,-2.2774,-2.3819,-2.4984,-2.6379,-2.8054,-3.0015,-3.1641,-3.2999,-3.5202,-3.656,-3.7074,-3.5679,-3.499,-3.4954,-3.4174,-3.3807,-3.3807,-3.3807,-3.3807,-3.3807,-3.3807,-3.3807,0.0,0.0,0.0,0.0,0.0,0.0,0.0,0.0,0.0,0.0,0.0,0.0,0.0,-3.3807,-3.3807,-3.3807,-3.3807,-3.4835,-3.6083,0.0,0.0,0.0,0.0,0.0,0.0,0.0,0.0,0.0,0.0,0.0,0.0,0.0,0.0,0.0,0.0,0.0,0.0,0.0,0.0,0.0,0.0,0.0,0.0,0.0,0.0,0.0,0.0,-6.9339,-6.9339,-6.9339,-6.9339,-6.9082,-6.8531,-6.8274,-6.754,-6.6366,-6.6769,-6.6953,-6.6916,-6.6402,-6.6145,-6.6145,-6.6145,-6.6145,-6.6145,-6.6145,-6.5521,-6.464,-6.5705,-6.4787,-6.2805,-6.2805,-6.2805,-6.2805,0.0,0.0,0.0,0.0,0.0,0.0,0.0,0.0,0.0,0.0,0.0,0.0,0.0,0.0,0.0,0.0,0.0,0.0,0.0,-2.2327,-2.2426,-2.2695,-2.4574,-2.5754,-2.6103,-2.8785,-3.1384,-3.3807,-3.5459,-3.6266,-3.6266,-3.5385,-3.4954,-3.4954,0.0,-3.3807,-3.3807,-3.3807,-3.3807,-3.3807,-3.3807,-3.3807,-3.3807,0.0,0.0,0.0,0.0,0.0,0.0,0.0,-3.3807,0.0,0.0,0.0,0.0,0.0,-3.3807,-3.3807,-3.3807,-3.4394,0.0,0.0,0.0,0.0,0.0,0.0,0.0,0.0,0.0,0.0,0.0,0.0,0.0,0.0,0.0,0.0,0.0,0.0,0.0,0.0,0.0,0.0,0.0,0.0,0.0,0.0,0.0,0.0,0.0,-6.765,-6.765,-6.765,-6.765,-6.765,-6.765,-6.688,-6.6329,-6.6035,-6.5558,-6.5301,-6.5228,-6.3576,-6.2805,-6.2805,-6.2805,-6.2805,-6.2805,-6.2805,-6.2805,-6.2805,-6.2805,-6.2805,-6.2805,-6.2805,-6.2805,-6.2805,0.0,0.0,0.0,0.0,0.0,0.0,0.0,0.0,0.0,0.0,0.0,0.0,0.0,0.0,0.0,0.0,0.0,0.0,0.0,-2.2327,-2.2774,-2.3854,-2.4984,-2.6128,-2.725,-2.9208,-3.1384,-3.3807,-3.3733,-3.4284,-3.5385,-3.399,-3.3623,-3.4137,0.0,-3.3807,-3.3807,-3.3807,-3.3807,-3.3807,-3.3807,-3.3807,-3.3807,0.0,0.0,0.0,0.0,0.0,0.0,0.0,0.0,0.0,0.0,0.0,0.0,-3.3807,-3.3807,-3.3807,-3.3807,0.0,0.0,0.0,0.0,0.0,0.0,0.0,0.0,0.0,0.0,0.0,0.0,0.0,0.0,0.0,0.0,0.0,0.0,0.0,0.0,0.0,0.0,0.0,0.0,0.0,0.0,0.0,0.0,0.0,0.0,-6.5999,-6.5999,-6.5999,-6.5999,-6.5999,-6.5999,-6.5778,-6.5044,-6.3796,-6.4824,-6.4677,-6.3539,-6.3025,-6.2805,-6.2805,-6.2805,-6.2805,-6.2805,-6.2805,-6.2805,-6.2805,-6.2805,-6.2805,-6.2805,-6.2805,-6.2805,-6.2805,0.0,0.0,0.0,0.0,0.0,0.0,0.0,0.0,0.0,0.0,0.0,0.0,0.0,0.0,0.0,0.0,0.0,0.0,0.0,0.0,-2.3023,-2.4322,-2.5586,-2.7055,-2.8741,-2.9696,-3.0907,-3.2375,-3.2192,-3.2779,-3.4,-3.3073,-3.322,-3.4284,0.0,-3.399,-3.4284,-3.3954,-3.3807,-3.3807,-3.3807,-3.3807,-3.3807,0.0,0.0,0.0,0.0,0.0,0.0,0.0,0.0,0.0,0.0,0.0,0.0,-3.344,-3.355,-3.3807,-3.3807,0.0,0.0,0.0,0.0,0.0,0.0,0.0,0.0,0.0,0.0,0.0,0.0,0.0,0.0,0.0,0.0,0.0,0.0,0.0,0.0,0.0,0.0,0.0,0.0,0.0,0.0,0.0,0.0,0.0,-6.4861,-6.5154,-6.5154,-6.4824,-6.5154,-6.5154,-6.4824,-6.4494,-6.3649,-6.2328,-6.3025,-6.2732,-6.1557,-6.2438,-6.2805,-6.2805,-6.2805,-6.2805,-6.2805,-6.2805,-6.2805,-6.2805,-6.2805,-6.2805,-6.2805,-6.2805,-6.2805,-6.2805,0.0,0.0,0.0,0.0,0.0,0.0,0.0,0.0,0.0,0.0,0.0,0.0,0.0,0.0,0.0,0.0,0.0,0.0,0.0,0.0,-2.3257,-2.4502,-2.6417,-2.8288,-3.0063,-3.0099,-3.0099,-3.0099,-3.0907,-3.1751,0.0,0.0,-3.334,-3.4844,0.0,-3.4211,-3.4844,-3.41,-3.3807,-3.3807,-3.3807,-3.3807,-3.3807,-3.3733,0.0,0.0,0.0,0.0,0.0,0.0,0.0,0.0,0.0,0.0,-3.366,-3.2926,-3.322,-3.3844,0.0,0.0,0.0,0.0,0.0,0.0,0.0,0.0,0.0,0.0,0.0,0.0,0.0,0.0,0.0,0.0,0.0,0.0,0.0,0.0,0.0,0.0,0.0,0.0,0.0,0.0,0.0,0.0,0.0,-6.453,-6.3796,-6.4457,-6.453,-6.3796,-6.4457,-6.4494,-6.3759,-6.2989,-6.2181,-6.1374,-6.0676,-6.0015,-5.9538,-6.1777,-6.2658,-6.2365,-6.2365,-6.2548,-6.2805,-6.2805,-6.2805,-6.2805,-6.2805,-6.2805,-6.2805,-6.2805,-6.2805,-6.2805,0.0,0.0,0.0,0.0,0.0,0.0,0.0,0.0,0.0,0.0,0.0,0.0,0.0,0.0,0.0,0.0,0.0,0.0,0.0,0.0,-2.3593,-2.5637,-2.7596,-2.8819,-2.9232,-2.9232,-2.9232,-2.9232,-3.0063,0.0,0.0,0.0,0.0,-3.4064,0.0,-3.3917,-3.4064,-3.388,-3.3807,-3.3807,-3.3807,-3.3807,-3.3733,-3.3109,-3.3146,0.0,0.0,0.0,0.0,0.0,0.0,0.0,-3.2412,-3.3146,-3.377,-3.3587,-3.366,0.0,0.0,0.0,0.0,0.0,0.0,0.0,0.0,0.0,0.0,0.0,0.0,0.0,0.0,0.0,0.0,0.0,0.0,0.0,0.0,0.0,0.0,0.0,0.0,0.0,0.0,0.0,0.0,0.0,-6.1447,-6.1374,-6.119,-6.1374,-6.1374,-6.119,-6.1374,-6.1374,-6.119,-6.1006,-6.0529,-5.9722,-5.9758,-5.9281,-5.8437,-6.1447,-6.141,-5.9024,-5.9024,-6.0456,-6.2805,-6.2805,-6.2805,-6.2805,-6.2805,-6.2805,-6.2805,-6.2805,-6.2805,-6.2805,0.0,0.0,0.0,0.0,0.0,0.0,0.0,0.0,0.0,0.0,0.0,0.0,0.0,0.0,0.0,0.0,0.0,0.0,0.0,0.0,0.0,-2.7378,-2.8466,-2.9159,-2.9586,-2.9195,-2.8975,-2.8975,0.0,0.0,0.0,0.0,0.0,-3.4357,0.0,-3.4027,-3.4357,-3.3954,-3.3807,-3.3807,-3.3807,-3.3807,-3.3733,-3.333,-3.322,-3.322,-3.3183,0.0,0.0,0.0,0.0,0.0,0.0,0.0,-3.3733,-3.333,-3.3513,-3.399,0.0,0.0,0.0,0.0,0.0,0.0,0.0,0.0,0.0,0.0,0.0,0.0,0.0,0.0,0.0,0.0,0.0,0.0,0.0,0.0,0.0,0.0,0.0,0.0,0.0,0.0,0.0,-6.0419,-6.0419,-6.0419,-6.0419,-6.0419,-6.0419,-6.0419,-6.0419,-6.0419,-6.0419,-6.0015,-5.9612,-5.9208,-5.8951,-5.8547,-5.807,-5.9758,-5.9575,-5.7997,-5.7997,-5.8951,-6.0493,-6.0493,-6.0493,-6.0493,-6.0493,-6.1447,-6.2805,-6.2805,-6.2805,-6.2585,0.0,0.0,0.0,0.0,0.0,0.0,0.0,0.0,0.0,0.0,0.0,0.0,0.0,0.0,0.0,0.0,0.0,0.0,0.0,0.0,0.0,0.0,-2.8902,-2.9329,-2.9989,-2.9365,-2.8975,-2.8975,0.0,0.0,0.0,0.0,0.0,-3.4734,0.0,-3.4174,-3.4734,-3.41,-3.3807,-3.3807,-3.3807,-3.3807,-3.377,-3.366,-3.3256,-3.2889,-3.3403,-3.2742,-3.1715,-3.2375,0.0,0.0,0.0,0.0,-3.366,-3.2999,-3.3293,-3.3844,0.0,0.0,0.0,0.0,0.0,0.0,0.0,0.0,0.0,0.0,0.0,0.0,0.0,0.0,0.0,0.0,0.0,0.0,0.0,0.0,0.0,0.0,0.0,0.0,0.0,0.0,0.0,-5.9979,-5.9979,-5.9979,-5.9979,-5.9979,-5.9979,-5.9979,-5.9979,-5.9979,-5.9979,-5.9355,-5.8988,-5.8988,-5.8327,-5.7997,-5.7997,-5.7997,-5.7997,-5.7997,-5.7997,-5.7997,-5.7997,-5.7997,-5.7997,-5.7997,-5.7997,-5.9648,-6.1998,-6.1998,-6.1998,-6.1594,0.0,0.0,0.0,0.0,0.0,0.0,0.0,0.0,0.0,0.0,0.0,0.0,0.0,0.0,0.0,0.0,0.0,0.0,-2.4357,0.0,0.0,-2.7934,-2.8631,-2.9049,-2.9159,-2.9049,-2.8975,0.0,0.0,0.0,0.0,0.0,0.0,-3.3954,0.0,0.0,-3.3954,-3.3844,-3.3807,-3.3807,-3.3807,-3.3807,-3.3733,-3.3036,-3.3146,-3.355,-3.2963,-3.2632,-3.2485,-3.2559,-3.2596,0.0,0.0,0.0,-3.377,-3.366,-3.3733,0.0,0.0,0.0,0.0,0.0,0.0,0.0,0.0,0.0,0.0,0.0,0.0,0.0,0.0,0.0,0.0,0.0,0.0,0.0,0.0,0.0,0.0,0.0,0.0,0.0,0.0,0.0,0.0,-5.8327,-5.8327,-5.8327,-5.8327,-5.8327,-5.8327,-5.8327,-5.8327,-5.8327,-5.8327,-5.8217,-5.8143,-5.8143,-5.8033,-5.7997,-5.7997,-5.7997,-5.7997,-5.7997,-5.7997,-5.7997,-5.7997,-5.7997,-5.7997,-5.7997,-5.7997,-5.8253,-5.8621,-5.8621,-5.8621,-5.8584,0.0,0.0,0.0,0.0,0.0,0.0,0.0,0.0,0.0,0.0,0.0,0.0,0.0,0.0,0.0,-2.2868,-2.3543,-2.4417,-2.5614,-2.7234,-2.8131,-2.8131,-2.8686,-2.8975,-2.8975,-2.8975,-2.8975,0.0,0.0,0.0,0.0,-3.333,-3.4394,0.0,0.0,0.0,0.0,0.0,0.0,-3.3807,-3.3807,-3.355,-3.3146,-3.3256,-3.322,-3.3146,-3.3256,-3.3256,-3.3256,-3.3256,-3.3256,-3.3256,-3.3256,0.0,0.0,0.0,-3.3807,0.0,0.0,0.0,0.0,0.0,0.0,0.0,0.0,0.0,0.0,0.0,0.0,0.0,0.0,0.0,0.0,0.0,0.0,0.0,0.0,0.0,0.0,0.0,0.0,0.0,0.0,0.0,-5.7336,-5.7336,-5.7336,-5.7336,-5.7336,-5.6895,-5.6638,-5.6638,-5.6638,-5.6638,-5.6638,-5.7116,-5.7336,-5.7336,-5.7776,-5.7519,-5.6675,-5.7116,-5.7556,-5.7997,-5.7997,-5.7997,-5.7997,-5.7997,-5.7997,-5.7997,-5.7997,-5.7997,-5.7997,-5.7997,-5.7997,-5.7997,0.0,0.0,0.0,0.0,0.0,0.0,0.0,0.0,0.0,0.0,0.0,0.0,0.0,0.0,0.0,0.0,-2.4167,-2.5192,-2.6886,-2.7985,-2.8515,-2.8402,-2.8773,-2.8975,-2.8975,-2.8975,0.0,0.0,0.0,0.0,-3.2375,-3.4614,-3.6083,0.0,-3.6486,0.0,0.0,0.0,0.0,0.0,0.0,0.0,0.0,-3.333,-3.3256,-3.3036,-3.3807,-3.3954,-3.3844,-3.4027,-3.3954,-3.3807,-3.3807,-3.3807,0.0,0.0,0.0,0.0,0.0,0.0,0.0,0.0,0.0,0.0,0.0,0.0,0.0,0.0,0.0,0.0,0.0,0.0,0.0,0.0,0.0,0.0,0.0,0.0,0.0,0.0,0.0,0.0,0.0,0.0,-5.6492,-5.6492,-5.6492,-5.6492,-5.6492,-5.5941,-5.5574,-5.5574,-5.5574,-5.5574,-5.5574,-5.6198,-5.6492,-5.6492,-5.7116,-5.6748,-5.5611,-5.6235,-5.6822,-5.7409,-5.7593,-5.7813,-5.7997,-5.7997,-5.7997,-5.7997,-5.7997,-5.7997,-5.7997,-5.7997,-5.7997,-5.7997,0.0,0.0,0.0,0.0,0.0,0.0,0.0,0.0,0.0,0.0,0.0,0.0,-2.3274,-2.3342,-2.3646,-2.4388,-2.5468,-2.658,-2.7763,-2.854,-2.8797,-2.8402,-2.8773,0.0,-2.8975,-2.8975,0.0,0.0,0.0,0.0,-3.4844,-3.656,-3.7808,-3.8505,-3.6964,-3.6266,-3.6193,0.0,0.0,0.0,0.0,0.0,0.0,0.0,0.0,0.0,0.0,-3.4468,-3.3917,-3.466,-3.4431,-3.3807,-3.3807,-3.3807,-3.3807,0.0,0.0,0.0,0.0,0.0,0.0,0.0,0.0,0.0,0.0,0.0,0.0,0.0,0.0,0.0,0.0,0.0,0.0,0.0,0.0,0.0,0.0,0.0,0.0,0.0,0.0,0.0,0.0,0.0,-5.5647,-5.5647,-5.5647,-5.5647,-5.5647,-5.5611,-5.5574,-5.5574,-5.5574,-5.5574,-5.5574,-5.5647,-5.5647,-5.5647,-5.5684,-5.5684,-5.5574,-5.5647,-5.5684,-5.5757,-5.6528,-5.7299,-5.7997,-5.7997,-5.7997,-5.7997,-5.7997,-5.7997,-5.7997,-5.7997,-5.7997,-5.7997,0.0,0.0,0.0,0.0,0.0,0.0,0.0,0.0,0.0,0.0,0.0,0.0,0.0,-2.3816,-2.4391,-2.5135,-2.6258,-2.7173,-2.7833,-2.836,-2.854,-2.8402,-2.8773,-2.8975,-2.8975,-2.8975,0.0,0.0,0.0,-3.2118,-3.3486,-3.5128,-3.6046,-3.6376,-3.7404,-3.7551,-3.7,-3.6193,0.0,0.0,0.0,0.0,0.0,0.0,0.0,0.0,0.0,0.0,0.0,-3.5569,-3.5642,-3.5312,-3.4761,-3.4578,-3.4468,-3.3954,-3.3807,-3.3807,0.0,0.0,0.0,0.0,0.0,0.0,0.0,0.0,0.0,0.0,0.0,0.0,0.0,0.0,0.0,0.0,0.0,0.0,0.0,0.0,0.0,0.0,0.0,0.0,0.0,0.0,-5.4069,-5.4069,-5.4546,-5.4583,-5.4106,-5.3555,-5.3041,-5.2527,-5.2527,-5.3004,-5.4069,-5.4583,-5.484,-5.484,-5.5354,-5.506,-5.4069,-5.4583,-5.484,-5.484,-5.5133,-5.6014,-5.7262,-5.7776,-5.7997,-5.7997,-5.7997,-5.7997,-5.7997,-5.7997,-5.7997,-5.7997,0.0,0.0,0.0,0.0,0.0,0.0,0.0,0.0,0.0,0.0,0.0,0.0,0.0,0.0,-2.5169,-2.5913,-2.6933,-2.7577,-2.7695,-2.8281,-2.854,-2.8402,-2.8773,-2.8975,-2.8975,-2.8975,0.0,0.0,0.0,0.0,0.0,-3.4477,-3.5137,-3.5532,-3.7147,-3.7588,0.0,0.0,0.0,-3.6193,0.0,0.0,-3.4614,0.0,0.0,0.0,0.0,0.0,0.0,0.0,-3.634,-3.5826,-3.5532,-3.521,-3.4844,-3.4027,-3.3807,-3.3807,-3.3807,0.0,0.0,0.0,0.0,0.0,0.0,0.0,0.0,0.0,0.0,0.0,0.0,0.0,0.0,0.0,0.0,0.0,0.0,0.0,0.0,0.0,0.0,0.0,0.0,0.0,-5.2417,-5.2417,-5.2894,0.0,-5.2417,-5.1903,-5.1353,-5.0839,-5.0802,-5.1316,-5.238,-5.2931,-5.3188,-5.3188,-5.3995,-5.3812,-5.2821,-5.3628,-5.3995,-5.3995,-5.3995,-5.4913,-5.6455,-5.7005,-5.718,-5.7217,-5.7474,-5.7584,-5.762,-5.7923,-5.7997,-5.7997,0.0,0.0,0.0,0.0,0.0,0.0,0.0,0.0,0.0,-2.4557,0.0,0.0,0.0,0.0,0.0,-2.6758,-2.7526,-2.776,-2.743,-2.8422,-2.887,-2.8464,-2.8846,-2.9049,-2.9049,-2.9049,0.0,0.0,0.0,0.0,0.0,0.0,-3.5422,0.0,-3.6229,-3.6229,-3.6193,0.0,-3.5569,-3.6119,0.0,-3.4211,-3.6229,0.0,0.0,0.0,-3.8432,-3.8212,0.0,-3.7588,0.0,0.0,0.0,0.0,-3.4844,-3.4064,-3.3807,-3.3807,0.0,0.0,0.0,0.0,0.0,0.0,0.0,0.0,0.0,0.0,0.0,0.0,0.0,0.0,0.0,0.0,0.0,0.0,0.0,0.0,0.0,0.0,0.0,0.0,0.0,0.0,-5.0729,-5.0765,-5.0765,-5.0765,-5.0765,-5.0729,-5.0729,-5.0729,-5.0729,-5.0729,-5.0765,-5.0765,-5.0765,-5.0802,-5.161,-5.1977,-5.2013,-5.2821,-5.3225,-5.3225,-5.3225,-5.4106,-5.5537,-5.5566,-5.5595,-5.5705,-5.6466,-5.6795,-5.6905,-5.7657,-5.796,-5.7997,0.0,0.0,0.0,0.0,0.0,0.0,0.0,0.0,0.0,0.0,0.0,0.0,-2.6805,-2.7572,-2.8493,-2.9651,-2.9316,-2.9162,-2.9393,-2.9989,-3.014,-2.9734,-3.0381,-3.0723,-3.0723,-3.0723,0.0,0.0,0.0,0.0,0.0,0.0,0.0,0.0,-3.4504,-3.4504,-3.4578,-3.6156,0.0,0.0,-3.6413,-3.656,0.0,0.0,0.0,0.0,0.0,-3.9423,-3.9313,0.0,-3.9423,-3.8395,0.0,0.0,0.0,-3.4734,-3.4284,-3.3807,-3.3807,0.0,0.0,0.0,0.0,0.0,0.0,0.0,0.0,0.0,0.0,0.0,0.0,0.0,0.0,0.0,0.0,0.0,0.0,0.0,0.0,0.0,0.0,0.0,0.0,-4.937,-4.926,0.0,-4.9921,-4.9921,-4.9921,-4.9334,-4.9003,-4.9003,-4.9003,-4.9297,-4.9921,-4.9921,-5.0215,-5.0802,-5.161,-5.1977,-5.2013,-5.2821,-5.3225,-5.3225,-5.3225,-5.3445,-5.3922,-5.4466,-5.5427,-5.6434,-5.6059,-5.6638,-5.762,-5.7262,-5.7483,-5.7997,0.0,0.0,0.0,0.0,0.0,0.0,0.0,0.0,0.0,0.0,0.0,0.0,-2.7945,-2.8594,-2.9281,-3.0047,-2.9721,-2.9706,-3.0161,-3.0567,-3.0776,-3.0699,-3.1127,-3.1384,-3.1384,-3.1384,0.0,0.0,0.0,0.0,0.0,0.0,0.0,0.0,0.0,0.0,0.0,0.0,0.0,0.0,-3.6597,0.0,0.0,-3.8505,-3.8909,0.0,0.0,0.0,-4.1368,-4.1185,-4.0561,0.0,0.0,0.0,0.0,-3.5642,-3.5202,-3.4835,-3.4835,0.0,0.0,0.0,0.0,0.0,-3.4431,-3.4798,0.0,0.0,0.0,0.0,0.0,0.0,0.0,0.0,0.0,0.0,0.0,0.0,0.0,0.0,0.0,0.0,0.0,-4.7609,-4.7498,-4.8012,-4.8049,-4.8049,-4.8049,-4.7572,-4.7315,-4.7315,-4.7315,-4.7535,-4.8049,-4.8049,-4.8453,-4.926,-5.0068,-5.0655,-5.1059,-5.2192,-5.2517,-5.2254,-5.2926,-5.2999,-5.2736,-5.3549,-5.4436,-5.5294,-5.5177,-5.5904,-5.696,-5.6859,-5.7299,-5.7997,0.0,0.0,0.0,0.0,0.0,0.0,0.0,0.0,0.0,0.0,-2.8149,-2.8522,-2.9236,-2.9401,-2.9539,-2.9615,-2.9867,-3.0209,-3.0619,-3.0987,-3.1356,-3.1678,-3.1678,-3.1678,-3.1678,-3.1678,0.0,0.0,0.0,0.0,0.0,0.0,0.0,0.0,0.0,0.0,0.0,0.0,0.0,-3.6229,-3.5569,-3.7147,0.0,0.0,-4.0965,-4.2323,-4.2396,-4.2873,-4.3277,-4.1772,-4.0708,0.0,0.0,0.0,0.0,0.0,-3.6376,0.0,0.0,0.0,0.0,0.0,0.0,0.0,-3.5064,-3.4541,-3.4247,0.0,0.0,0.0,0.0,0.0,0.0,0.0,0.0,0.0,0.0,0.0,0.0,0.0,0.0,0.0,-4.5883,-4.581,-4.581,-4.5883,-4.5883,-4.5883,-4.5883,-4.5883,-4.5883,-4.5883,-4.581,-4.581,-4.5883,-4.581,-4.6177,-4.6984,-4.7865,-4.8708,-4.9515,-5.1119,-5.1475,-5.0879,-5.2407,-5.2669,-5.2029,-5.2889,-5.3261,-5.3408,-5.4019,-5.4825,-5.5713,-5.6308,-5.7116,-5.7886,-2.5067,0.0,0.0,0.0,0.0,0.0,0.0,0.0,0.0,-2.9111,-3.0246,-3.1108,-3.1248,-3.2003,-3.2798,-3.3526,-3.3415,-3.3352,-3.349,-3.361,-3.3597,-3.334,-3.333,-3.333,-3.333,-3.333,0.0,0.0,0.0,0.0,0.0,0.0,0.0,0.0,0.0,0.0,0.0,0.0,0.0,-3.634,-3.6817,0.0,-3.9974,-4.0634,-4.1479,-4.2396,-4.302,-4.3351,-4.3351,-4.2396,-4.1552,-4.0671,0.0,0.0,0.0,-3.7294,0.0,0.0,0.0,0.0,0.0,0.0,0.0,0.0,-3.5467,-3.5422,-3.5459,0.0,0.0,0.0,0.0,0.0,0.0,0.0,0.0,0.0,0.0,0.0,0.0,0.0,0.0,0.0,-4.5883,-4.5296,-4.5223,-4.5847,-4.5883,-4.5883,-4.5883,-4.5883,-4.5883,-4.5883,-4.5259,-4.5259,-4.5883,-4.5259,-4.5333,-4.614,-4.7607,-4.8416,-4.8636,-5.0248,-5.0973,-5.0842,-5.183,-5.2123,-5.2029,-5.2889,-5.3597,-5.4117,-5.3628,-5.4326,-5.5508,-5.5023,-5.5794,-5.7042,-2.5541,0.0,0.0,0.0,0.0,0.0,0.0,0.0,0.0,-2.9723,-3.1127,-3.2188,-3.2564,-3.3114,-3.3686,-3.4399,-3.4051,-3.4109,-3.4875,-3.4742,-3.4722,-3.5027,-3.5055,-3.5055,-3.5055,-3.5055,-3.4835,0.0,0.0,0.0,0.0,0.0,0.0,0.0,0.0,0.0,0.0,0.0,-3.5561,-3.6125,-3.6705,0.0,-3.9423,-4.0634,-4.1625,-4.2396,-4.3204,-4.3321,-4.3032,-4.2475,-4.1823,0.0,0.0,-3.9606,-3.9203,0.0,-3.8395,-3.7991,0.0,0.0,0.0,-3.7588,0.0,0.0,0.0,-3.5642,-3.5532,0.0,0.0,0.0,0.0,0.0,0.0,0.0,0.0,0.0,0.0,0.0,0.0,0.0,0.0,0.0,-4.3497,-4.3497,-4.3828,-4.4635,-4.4709,-4.4709,-4.4709,-4.4709,-4.4709,-4.4709,-4.4305,-4.4305,-4.4709,-4.4305,-4.449,-4.5297,-4.614,-4.6911,-4.7752,-4.8964,-4.9548,-4.9655,-5.0885,-5.1176,-5.0936,-5.2082,-5.2826,-5.3198,-5.3188,-5.3922,-5.4957,-5.4546,-5.5427,-5.6822,-2.5812,0.0,0.0,0.0,0.0,0.0,0.0,0.0,0.0,0.0,-3.1799,-3.2949,-3.3558,-3.3626,-3.4082,-3.5243,-3.4254,-3.4441,-3.6463,-3.5541,-3.5283,-3.5994,-3.612,-3.6076,-3.5959,-3.6076,-3.582,0.0,0.0,0.0,0.0,0.0,0.0,0.0,0.0,0.0,0.0,0.0,0.0,-3.5722,0.0,-3.743,-3.915,-4.0382,-4.1552,-4.2616,-4.3277,-4.3214,-4.2811,-4.2589,-4.2119,-4.1434,-4.0646,-4.0708,0.0,0.0,0.0,0.0,0.0,0.0,0.0,0.0,0.0,-3.7881,0.0,0.0,0.0,0.0,0.0,0.0,0.0,0.0,0.0,0.0,0.0,0.0,0.0,0.0,0.0,0.0,0.0,-4.0634,-4.0634,-4.1368,-4.2103,-4.2763,-4.2947,-4.2947,-4.28,-4.3094,-4.3277,-4.3277,-4.3424,-4.3497,-4.3497,-4.3497,-4.3828,-4.4453,-4.463,-4.5368,-4.669,-4.7644,-4.8047,-4.8157,-4.982,-5.0223,-4.9691,-5.1169,-5.1871,-5.2091,-5.2894,-5.3592,-5.4179,-5.4179,-5.5207,-5.6565,-2.659,-2.6623,0.0,0.0,0.0,0.0,0.0,0.0,0.0,0.0,0.0,0.0,0.0,0.0,0.0,0.0,0.0,0.0,-3.9957,0.0,-3.5349,-3.4976,-3.5349,-3.5286,-3.463,-3.525,-3.5544,-3.5435,0.0,0.0,0.0,0.0,0.0,0.0,-3.5078,0.0,0.0,0.0,-3.5319,0.0,-3.6209,-3.8034,0.0,-4.0065,-4.1405,-4.3387,-4.3461,-4.3463,-4.3391,0.0,-4.2839,-4.2182,0.0,-4.1589,-4.1075,-4.1001,0.0,0.0,0.0,0.0,0.0,0.0,-4.023,0.0,0.0,0.0,-3.7918,-3.656,0.0,0.0,0.0,0.0,0.0,0.0,0.0,0.0,0.0,0.0,0.0,0.0,0.0,-3.8982,-3.8982,-3.968,-4.0194,-4.0304,-4.0965,-4.1075,-4.0341,-4.1662,-4.2433,-4.2433,-4.313,-4.3497,-4.3497,-4.3497,-4.3534,-4.3644,-4.4373,-4.4812,-4.4998,-4.6544,-4.7274,-4.7348,-4.9007,-4.9669,-4.9698,-5.0548,-5.1357,-5.2087,-5.2894,-5.3261,-5.3335,-5.3335,-5.4363,-5.5721,-2.686,-2.7029,0.0,0.0,0.0,0.0,0.0,0.0,0.0,0.0,0.0,0.0,0.0,0.0,0.0,0.0,0.0,-3.7197,0.0,0.0,-3.6282,-3.6816,-3.6612,-3.6542,-3.6649,-3.6577,-3.6256,-3.5722,-3.5722,0.0,0.0,0.0,0.0,0.0,-3.4587,0.0,-3.4495,0.0,0.0,0.0,0.0,0.0,0.0,-3.9409,-4.0631,-4.2305,-4.266,-4.2668,-4.2546,0.0,-4.2701,0.0,0.0,0.0,0.0,0.0,0.0,0.0,0.0,0.0,0.0,0.0,0.0,0.0,-3.8542,0.0,-3.7918,0.0,0.0,0.0,0.0,0.0,0.0,0.0,-3.5312,0.0,0.0,0.0,0.0,0.0,0.0,0.0,-3.7955,-3.8285,-3.8689,-3.9166,-3.9533,-3.9753,-3.99,-4.0524,-4.1111,-4.1589,-4.2396,-4.28,-4.28,-4.3277,-4.3497,-4.3497,-4.3826,-4.4262,-4.4702,-4.5406,-4.5957,-4.647,-4.7646,-4.8161,-4.8233,-4.9556,-5.0331,-5.0735,-5.2018,-5.2784,-5.3225,-5.3225,-5.3922,-5.495,-2.7537,0.0,0.0,0.0,0.0,0.0,0.0,0.0,0.0,0.0,0.0,0.0,-3.8803,-3.8547,0.0,0.0,-3.9529,-3.8665,0.0,0.0,-3.7089,0.0,0.0,0.0,0.0,-3.733,-3.6872,-3.6025,0.0,0.0,0.0,0.0,0.0,0.0,0.0,-3.426,-3.4075,0.0,0.0,-3.5406,-3.6516,-3.7492,-3.8391,-3.8968,-3.9878,-4.089,-4.1757,-4.2013,-4.2027,-4.2448,-4.2775,-4.2886,-4.2697,-4.2873,-4.3057,0.0,0.0,0.0,-4.0854,0.0,0.0,0.0,0.0,0.0,0.0,0.0,0.0,0.0,0.0,0.0,0.0,0.0,-3.634,-3.5495,0.0,-3.5018,0.0,0.0,0.0,0.0,0.0,0.0,0.0,-3.6817,-3.7074,-3.7661,-3.7918,-3.8285,-3.8872,-3.9313,-3.9937,-4.0744,-4.1772,-4.2286,-4.2286,-4.3094,-4.3497,-4.3497,-4.3497,-4.3789,-4.4373,-4.4597,-4.5039,-4.5626,-4.6654,-4.7095,-4.7205,-4.8675,-4.9412,-4.9708,-5.1136,-5.216,-5.2894,-5.3115,-5.3702,-5.4509,-2.896,-2.896,0.0,0.0,0.0,0.0,0.0,0.0,0.0,0.0,0.0,0.0,0.0,0.0,0.0,0.0,0.0,-4.0163,-4.3075,0.0,-3.7369,0.0,0.0,-3.7559,0.0,0.0,-3.7143,-3.6381,0.0,0.0,0.0,0.0,0.0,0.0,0.0,-3.5366,-3.5487,-3.538,-3.5022,-3.4651,-3.5931,-3.6741,-3.7421,0.0,-3.9401,-3.9372,-4.0962,0.0,-4.2399,-4.3204,-4.3461,-4.3461,-4.3461,-4.2947,0.0,0.0,0.0,0.0,0.0,0.0,0.0,-4.0709,0.0,0.0,0.0,0.0,-3.9606,0.0,0.0,0.0,-3.8836,-3.8028,-3.7184,-3.6376,-3.6266,0.0,0.0,0.0,0.0,0.0,0.0,0.0,0.0,-3.5064,-3.5064,-3.51,-3.5899,-3.6376,-3.6413,-3.7881,-3.9129,-3.99,-4.1479,-4.2286,-4.2286,-4.3094,-4.3497,-4.3497,-4.3497,-4.3497,-4.3534,-4.4342,-4.4709,-4.4856,-4.6434,-4.7095,-4.7169,-4.7976,-4.8822,-4.9671,-5.0512,-5.1316,-5.2123,-5.2931,-5.3702,-5.4509,0.0,0.0,0.0,0.0,0.0,0.0,0.0,-3.5047,0.0,0.0,0.0,0.0,0.0,-4.345,-4.4156,0.0,0.0,-4.3206,-4.274,-4.0743,0.0,0.0,0.0,-3.8001,0.0,0.0,0.0,0.0,0.0,0.0,0.0,0.0,0.0,0.0,0.0,-3.478,0.0,0.0,0.0,0.0,0.0,-3.6965,-3.7516,0.0,-3.8244,-3.8756,-3.9981,-4.0781,-4.1389,-4.2373,-4.3057,-4.3497,-4.3497,-4.3314,-4.3025,-4.2668,-4.2559,-4.2448,-4.1832,-4.2286,-4.2667,-4.1359,-4.1467,-4.1479,-3.9863,0.0,0.0,0.0,0.0,0.0,-3.8774,-3.8214,-3.7462,-3.6457,-3.6303,-3.5716,0.0,0.0,0.0,0.0,0.0,0.0,0.0,0.0,0.0,-3.4174,-3.399,-3.4578,-3.6193,-3.6817,-3.7734,-3.9056,-4.0671,-4.1515,-4.1515,-4.2837,-4.3497,-4.3497,-4.3497,-4.3497,-4.3497,-4.3791,-4.3901,-4.3975,-4.5625,-4.6322,-4.6394,-4.772,-4.8781,-4.9661,-5.0512,-5.1283,-5.2087,-5.2894,-5.3702,-5.4583,-3.2544,0.0,0.0,0.0,0.0,0.0,0.0,0.0,0.0,0.0,-4.124,0.0,-4.5528,0.0,-4.6312,0.0,-4.665,-4.5399,-4.2861,-4.2286,0.0,-3.9783,-3.9546,0.0,0.0,0.0,0.0,0.0,0.0,-3.6535,0.0,0.0,0.0,0.0,0.0,0.0,0.0,0.0,-3.5182,0.0,0.0,-3.6659,0.0,0.0,-3.7514,-3.838,-3.8905,-3.9552,-4.0334,-4.1578,-4.2514,-4.313,-4.3387,-4.3173,-4.2704,-4.2596,-4.226,-4.1912,-4.1716,-4.2167,-4.2513,-4.1647,-4.1867,-4.1956,-4.0634,-4.0965,-4.1148,-3.9827,0.0,0.0,-3.9279,-3.8497,-3.7564,-3.6552,-3.6333,-3.5716,0.0,-3.3807,0.0,0.0,0.0,0.0,0.0,0.0,-3.3256,-3.377,-3.333,-3.399,0.0,-3.6303,-3.7037,-3.8652,-3.9974,-4.0818,-4.1111,-4.2396,-4.3204,-4.3497,-4.3497,-4.3497,-4.3497,-4.3497,-4.3497,-4.3605,-4.5182,-4.5914,-4.602,-4.7647,-4.8634,-4.9255,-5.0362,-5.1096,-5.172,-5.2821,-5.3885,-5.5023,0.0,0.0,0.0,0.0,-3.4066,0.0,0.0,0.0,-3.9648,0.0,-4.2692,-4.4519,-4.6718,-4.6989,-4.7564,-4.8951,-4.8409,-4.6786,-4.3842,-4.4959,0.0,0.0,-4.1238,-4.1001,-3.8125,0.0,0.0,0.0,0.0,0.0,0.0,0.0,0.0,0.0,-3.5622,0.0,-3.5622,-3.5588,-3.5554,-3.5554,-3.5622,-3.5975,-3.6485,-3.6409,-3.7196,-3.8302,-3.7784,-3.8192,-3.9265,-4.0817,-4.1723,-4.2292,-4.3061,-4.2414,-4.1467,-4.201,-4.1427,-4.0754,-4.1276,-4.2042,-4.2474,-4.1683,-4.194,-4.2139,-4.1368,-4.1739,-4.2106,-4.1295,-4.0631,-4.0239,-4.0203,-3.894,-3.7607,-3.678,-3.6443,-3.5752,-3.4137,0.0,0.0,0.0,0.0,0.0,0.0,-3.377,-3.377,-3.3807,-3.377,0.0,0.0,-3.6303,-3.7037,-3.8652,-3.9533,-4.0341,-4.1111,-4.1956,-4.2727,-4.3497,-4.3497,-4.3497,-4.3497,-4.3497,-4.3497,-4.3642,-4.5213,-4.5909,-4.6096,-4.7647,-4.8343,-4.8526,-5.0134,-5.0872,-5.1132,-5.2747,-5.4289,-5.5721,-3.4066,-3.4506,-3.5013,0.0,-3.5115,-3.4945,0.0,0.0,0.0,0.0,-4.5602,-4.8003,-4.912,-4.9729,-4.9999,-4.983,-4.9627,0.0,0.0,0.0,0.0,-4.3234,-4.3132,-4.2252,-4.0392,-4.0527,0.0,-3.7618,0.0,0.0,-3.5926,0.0,0.0,0.0,0.0,0.0,-3.5588,-3.5013,-3.4776,-3.4844,-3.5385,-3.6283,-3.7178,0.0,-3.6646,-3.7749,-3.7396,-3.7611,-3.8099,-3.8919,-3.9685,-4.03,-4.0554,-4.0724,-4.0811,-4.0559,-4.0604,-4.0971,-4.1534,-4.1878,-4.219,-4.2814,-4.3098,-4.2983,-4.2176,-4.2303,-4.2341,-4.1339,-4.0348,-3.9761,-3.9935,-3.8855,-3.7742,-3.7338,-3.6721,-3.6156,-3.5716,0.0,0.0,-3.645,0.0,0.0,0.0,-3.3256,-3.3183,-3.377,-3.3256,0.0,0.0,0.0,-3.7037,-3.8652,-4.0084,-4.0891,-4.1103,-4.2503,-4.3277,-4.3497,-4.3497,-4.3497,-4.3497,-4.3497,-4.3826,-4.4446,-4.5469,-4.6247,-4.6874,-4.7902,-4.8675,-4.9338,-5.0398,-5.1495,-5.2784,-5.4399,-5.5244,-5.5794,-3.5284,0.0,0.0,-3.7246,0.0,0.0,-3.8565,0.0,0.0,-4.3707,-4.6346,0.0,-4.8612,-4.9593,-5.0067,-4.9661,-4.9627,0.0,-4.753,0.0,0.0,-4.4654,-4.4485,-4.3403,-4.1271,-4.0561,0.0,-3.7922,0.0,0.0,-3.6129,0.0,0.0,0.0,0.0,-3.5622,0.0,-3.5182,-3.4979,-3.5013,-3.5453,-3.6082,0.0,-3.5892,-3.6082,-3.6706,-3.6554,-3.6776,-3.7193,-3.7837,-3.8505,-3.9128,-3.9483,-3.9711,-3.9849,-4.0114,-4.0134,-4.04,-4.1824,-4.1979,-4.2062,-4.325,-4.3497,-4.3387,-4.291,-4.2921,-4.2887,-4.2255,-4.1216,-4.0412,-4.0524,-3.9657,-3.8751,-3.8114,-3.7331,-3.6707,0.0,0.0,0.0,0.0,-3.6156,0.0,-3.4945,-3.3807,-3.333,-3.377,-3.3366,0.0,0.0,0.0,-3.689,-3.8138,-3.9753,-4.0744,-4.1107,-4.2356,-4.3164,-4.3497,-4.3497,-4.3497,-4.3497,-4.3497,-4.3934,-4.4739,-4.5549,-4.636,-4.7163,-4.7974,-4.8601,-4.9154,-5.0365,-5.1793,-5.3408,-5.4987,-5.5574,-5.5831,0.0,0.0,0.0,0.0,0.0,0.0,0.0,-4.1948,0.0,-4.4891,0.0,-4.7597,-4.7394,-4.8612,-4.9357,-4.9154,0.0,-4.8545,-4.7158,-4.8206,-4.7665,-4.4993,-4.5297,-4.4248,-4.1407,-3.9884,-3.8768,0.0,0.0,0.0,0.0,0.0,0.0,0.0,0.0,0.0,0.0,-3.5588,-3.5554,-3.5487,-3.5588,-3.5622,-3.5622,-3.5622,-3.5622,-3.5622,-3.5622,-3.5898,-3.6395,-3.7093,-3.7638,-3.8148,-3.8858,-3.8811,-3.8712,-3.9954,-3.9732,-3.9542,-4.1925,-4.2221,-4.2062,-4.325,-4.3497,-4.3497,-4.3497,-4.3463,-4.3428,-4.3497,-4.2414,-4.1505,-4.1505,-4.0926,-4.009,-3.9177,-3.8432,0.0,0.0,0.0,0.0,0.0,0.0,0.0,0.0,0.0,0.0,0.0,0.0,0.0,0.0,0.0,-3.6817,-3.7624,-3.9203,-4.0451,-4.1262,-4.2062,-4.2834,-4.3679,-4.3534,-4.3497,-4.3497,-4.3497,-4.4009,-4.489,-4.559,-4.6433,-4.7311,-4.8011,-4.8453,-4.8783,-5.0251,-5.1793,-5.3408,-5.4987,-5.5574,-5.5831,0.0,0.0,0.0,0.0,0.0,-4.2726,-4.4621,-4.594,-4.709,-4.8105,-5.0608,-5.186,-5.0574,-5.1217,-5.1217,-4.9999,-4.9898,0.0,0.0,0.0,0.0,-4.6447,-4.5365,-4.3944,-4.2151,-4.0663,-3.9546,0.0,0.0,0.0,0.0,0.0,0.0,0.0,0.0,0.0,-3.4742,-3.5351,0.0,-3.4742,-3.5385,-3.5622,-3.5622,-3.5622,-3.5622,-3.5622,-3.5622,-3.5667,-3.5756,-3.5892,-3.6014,-3.6103,-3.6239,-3.6672,-3.7308,-3.815,-3.869,-3.9447,-4.1427,-4.1895,-4.2062,-4.325,-4.3497,-4.3497,-4.3497,-4.3178,-4.2995,-4.3428,-4.2414,-4.1542,-4.2044,-4.1492,-4.0903,-4.0712,-4.0561,0.0,0.0,0.0,0.0,0.0,0.0,-3.7551,0.0,0.0,0.0,0.0,0.0,0.0,0.0,0.0,-3.7661,-3.8469,-4.0047,-4.1299,-4.2075,-4.2876,-4.3713,-4.4481,-4.3789,-4.3497,-4.3497,-4.3497,-4.4307,-4.5697,-4.5843,-4.6724,-4.8084,-4.8269,-4.9111,-5.0391,-5.0688,-5.1793,-5.3408,-5.4987,-5.5574,-5.5831,0.0,0.0,0.0,0.0,0.0,0.0,0.0,-4.8917,-4.9458,-4.9052,-5.027,-5.0879,-5.0135,-5.071,-5.0879,-5.0135,-4.9729,-4.939,-4.9018,-4.8308,-4.7597,-4.6819,-4.5365,-4.3876,-4.232,-4.0121,-3.8971,-3.9005,0.0,-3.6603,-3.7347,0.0,0.0,0.0,0.0,-3.6366,0.0,0.0,-3.5419,-3.5115,-3.5487,-3.5622,-3.5622,-3.5622,-3.5622,-3.5622,-3.5622,-3.5622,-3.5622,-3.5622,-3.5622,-3.5622,-3.5622,-3.5893,-3.6332,-3.711,-3.8023,-3.9124,-4.0393,-4.1492,-4.2382,-4.2958,-4.3286,-4.3497,-4.3497,-4.3286,-4.3178,-4.3463,-4.2957,-4.2558,-4.2876,-4.2008,-4.1356,-4.1666,-4.146,0.0,0.0,0.0,-4.0524,0.0,0.0,0.0,0.0,0.0,0.0,0.0,0.0,0.0,0.0,0.0,-3.7661,-3.8065,-4.0047,-4.1299,-4.1669,-4.2915,-4.3683,-4.4081,-4.3679,-4.3497,-4.3497,-4.3497,-4.438,-4.5882,-4.5881,-4.6835,-4.8343,-4.8783,-4.9701,-5.0835,-5.1279,-5.216,-5.3335,-5.4546,-5.5244,-5.5831,0.0,-4.2523,0.0,0.0,-4.6312,0.0,-4.939,-5.0676,-5.1014,-4.9864,-4.956,-4.9424,-4.9255,-4.9898,-5.0202,-4.9898,-4.9492,-4.9086,-4.8781,-4.8105,-4.7361,-4.6583,-4.4959,-4.3538,-4.232,-3.9546,-3.843,0.0,0.0,-3.6738,-3.7922,0.0,0.0,0.0,0.0,0.0,0.0,-3.596,-3.5723,-3.5859,-3.569,-3.5622,-3.5622,-3.5622,-3.5622,-3.5622,-3.5622,-3.5622,-3.5622,-3.5622,-3.5622,-3.5622,-3.5622,-3.5622,-3.5791,-3.6535,-3.7479,-3.8545,-3.9534,-4.0934,-4.2131,-4.2364,-4.2741,-4.3065,-4.3065,-4.3135,-4.3243,-4.332,-4.3321,-4.3286,-4.3142,-4.2229,-4.1645,-4.2122,-4.1905,-4.1614,-4.146,0.0,0.0,0.0,0.0,0.0,-3.8474,0.0,0.0,0.0,0.0,0.0,-3.6817,0.0,-3.7734,-3.7734,-3.9937,-4.1185,-4.1368,-4.277,-4.3576,-4.3754,-4.3571,-4.3571,-4.3754,-4.3754,-4.4635,-4.614,-4.6176,-4.7094,-4.8638,-4.9336,-5.0141,-5.1132,-5.1756,-5.2491,-5.3298,-5.4106,-5.4913,-5.5794,0.0,0.0,0.0,0.0,0.0,0.0,-4.8308,-5.0439,-5.2164,-5.1995,-5.142,-5.0744,-5.0067,-5.0676,-5.0574,-4.9221,-4.9661,-4.9424,-4.8105,-4.7327,-4.6583,-4.5838,-4.3673,-4.2422,-4.2286,-4.0054,-3.8937,0.0,-3.8125,-3.7753,-3.7922,-3.8565,0.0,0.0,0.0,-3.7415,-3.6738,-3.596,-3.6028,-3.6603,-3.5893,-3.5622,-3.5622,-3.5622,-3.5622,-3.5622,-3.5622,-3.5622,-3.5622,-3.5622,-3.5622,-3.5622,-3.5622,-3.5622,-3.5791,-3.6535,-3.6852,-3.7376,-3.9295,-3.9936,-4.0324,-4.131,-4.1576,-4.1613,-4.1613,-4.2012,-4.2479,-4.2701,-4.277,-4.2616,-4.2062,-4.1866,-4.1789,-4.1831,-4.2275,-4.2549,-4.2551,0.0,-4.1107,-4.0384,0.0,0.0,-3.7431,-3.8096,0.0,0.0,-3.752,0.0,0.0,-3.8542,-3.8579,-3.8579,-4.023,-4.1479,-4.2176,-4.3057,-4.3864,-4.4599,-4.3864,-4.3901,-4.46,-4.46,-4.548,-4.698,-4.698,-4.7937,-4.9487,-4.9556,-5.0512,-5.1908,-5.194,-5.2491,-5.3298,-5.4106,-5.4913,-5.5721,0.0,0.0,0.0,0.0,0.0,0.0,0.0,-5.1116,-5.115,-5.1589,-5.1386,-5.1116,-5.0811,-5.0642,-5.0304,-4.9695,-4.9526,-4.9018,-4.8003,-4.7225,-4.6244,-4.5094,-4.3267,-4.2083,-4.1644,-3.9918,-3.9005,0.0,-3.87,-3.8565,-3.8565,-3.887,-3.8599,-3.7922,-3.7922,-3.7753,-3.7449,-3.7144,-3.6907,-3.6738,-3.6434,-3.6332,-3.6265,-3.5791,-3.5926,-3.6265,-3.5791,-3.5622,-3.5622,-3.5622,-3.5622,-3.5622,-3.5622,-3.5622,-3.569,-3.5994,-3.6638,-3.7453,-3.8413,-3.9465,-4.0453,-4.0961,-4.1398,-4.1645,-4.1645,-4.1841,-4.2027,-4.2149,-4.218,-4.2062,-4.1853,-4.1473,-4.1385,-4.1768,-4.1725,-4.1591,-4.1502,0.0,0.0,-3.9698,0.0,-3.8794,0.0,-3.8465,0.0,0.0,0.0,0.0,0.0,-3.9166,-3.9203,-3.8726,-4.0744,-4.1735,-4.1589,-4.2873,-4.3901,-4.4709,-4.4378,-4.4635,-4.5443,-4.5443,-4.603,-4.7129,-4.7606,-4.8488,-4.963,-5.0108,-5.0986,-5.204,-5.2522,-5.2931,-5.3298,-5.4106,-5.4913,-5.5721,-4.7361,0.0,-4.8308,0.0,-5.0168,-5.0541,-5.2232,-5.1116,-5.0202,-5.0507,-5.0574,-5.0574,-5.0574,-5.0101,-4.9763,-4.9763,-4.9289,-4.8612,-4.7665,-4.709,-4.6041,-4.4316,-4.2997,0.0,-4.1238,-3.9952,-3.9208,-3.9005,-3.9208,-3.9106,-3.8667,-3.8903,-3.8599,-3.7922,-3.8125,-3.8227,-3.8193,-3.7753,-3.7516,-3.7381,-3.6705,-3.6569,-3.6705,-3.5926,-3.596,-3.6366,-3.5825,-3.5622,-3.5622,-3.5622,-3.5622,-3.5622,-3.5622,-3.5622,-3.5622,-3.5622,-3.6273,-3.7153,-3.7759,-3.8894,-3.9992,-4.0446,-4.0892,-4.12,-4.12,-4.1329,-4.1442,-4.1525,-4.1552,-4.1508,-4.1331,-4.0967,-4.078,-4.1241,-4.1105,-4.0781,-4.0496,-4.0559,0.0,-3.9049,-3.9193,-3.9118,-3.8343,-3.8716,0.0,0.0,0.0,0.0,-3.9056,-3.935,-3.9386,-3.9056,-4.0928,-4.1809,-4.1479,-4.3057,-4.4158,-4.4709,-4.4966,-4.548,-4.625,-4.6507,-4.6911,-4.7498,-4.8049,-4.893,-4.9994,-5.0588,-5.1389,-5.2443,-5.2962,-5.3225,-5.3298,-5.4106,-5.4913,-5.5684,-4.868,-4.956,-5.0304,-5.1082,-5.1792,-5.1792,-5.0338,-5.0101,-4.983,-4.912,-4.9052,-4.9052,-4.9052,-4.9018,-4.9018,-4.9018,-4.9018,-4.8376,-4.6921,-4.6786,-4.5771,0.0,0.0,-4.1948,-4.1238,-4.046,-3.9715,-3.9005,-3.9715,-3.9343,-3.7922,-3.8667,-3.8599,-3.7922,-3.8667,-3.8971,-3.887,-3.7415,-3.7618,-3.8768,-3.6535,-3.6096,-3.6705,-3.5926,-3.5622,-3.5622,-3.5622,-3.5622,-3.5622,-3.5622,-3.5622,-3.5622,-3.5622,-3.5622,-3.5622,-3.5622,-3.5622,-3.596,-3.7483,-3.7922,-3.8201,-3.9411,-3.9721,-3.9721,-3.9721,-4.0211,-4.068,-4.0885,-4.092,-4.0733,-4.0204,-4.0138,-4.0138,-4.0138,-4.0577,-4.0643,-3.9881,-4.0262,0.0,-3.8593,-3.9476,-3.9407,-3.739,-3.8824,0.0,0.0,0.0,0.0,-3.9827,-3.9129,-3.9056,-3.9863,-4.0671,-4.1515,-4.2286,-4.3901,-4.4709,-4.4709,-4.5516,-4.6324,-4.7131,-4.7902,-4.8269,-4.8306,-4.8306,-4.9263,-5.0772,-5.0772,-5.1724,-5.3188,-5.3225,-5.3225,-5.3298,-5.4106,-5.4913,-5.5728,-4.8917,-4.9593,-5.0168,-5.0405,-5.0642,-5.0811,-5.0845,-4.9999,-4.9458,-4.9695,-4.9323,-4.9018,-4.9018,-4.9018,-4.8815,0.0,-4.8274,-4.7631,0.0,-4.6041,-4.5263,-4.3504,-4.2692,-4.1948,-4.1238,-4.046,-3.9715,-3.9005,-3.9715,-3.958,-3.8667,-3.887,-3.8599,-3.7922,-3.8667,-3.9005,-3.9005,-3.9039,-3.9005,-3.887,-3.7652,-3.7313,-3.7415,-3.6096,-3.596,-3.6332,-3.5825,-3.5622,-3.5622,-3.5622,-3.5622,-3.5622,-3.5622,-3.5622,-3.5622,-3.5622,-3.5994,-3.6637,-3.7652,-3.8261,-3.8851,-3.9759,-3.9978,-3.9978,-3.9978,-4.0124,-4.0254,-4.0334,-4.0368,-4.0269,-4.0104,-4.0087,-4.0087,-4.0087,-4.0117,-3.9835,-3.9074,-3.8993,-3.8773,-3.8151,-3.8402,-3.854,-3.8238,-3.8752,0.0,0.0,0.0,0.0,-3.9056,-3.99,-4.0194,-3.99,-4.1735,-4.2873,-4.313,-4.4158,-4.5259,-4.6361,-4.6617,-4.7168,-4.7939,-4.8196,-4.8636,-4.9187,-4.9187,-5.0105,-5.1614,-5.1618,-5.2242,-5.3225,-5.3225,-5.3225,-5.3298,-5.4106,-5.4546,-5.4987,-4.9018,-4.9593,-5.0101,-5.0101,-5.0101,-5.0236,-5.071,-4.9763,-4.9187,-4.9627,-4.9289,-4.9018,-4.9018,-4.9018,-4.8714,-4.797,-4.7936,-4.7293,-4.5805,-4.5703,-4.5026,-4.3504,-4.2692,-4.1948,-4.1238,-4.046,-3.9851,-3.9411,-3.958,-3.9445,-3.9005,-3.9005,-3.8734,-3.8362,-3.9073,-3.9411,-3.9411,-3.958,-3.958,-3.9276,-3.799,-3.7652,-3.7753,-3.6535,-3.6366,-3.6738,-3.6535,-3.6299,-3.6062,-3.6062,-3.5859,-3.5656,-3.596,-3.6062,-3.6062,-3.6062,-3.6603,-3.7347,-3.8125,-3.8633,-3.9174,-3.9884,-4.0087,-4.0087,-4.0087,-4.0087,-4.0087,-4.0087,-4.0087,-4.0087,-4.0087,-4.0087,-3.9986,-3.9715,-3.9692,-3.934,-3.8347,-3.8425,-3.8543,-3.8364,-3.8824,-3.9243,-3.9575,-3.9863,-4.0157,-4.0341,0.0,-3.9606,-3.9606,-4.0267,-4.0561,-4.0377,-4.2396,-4.3644,-4.3938,-4.5039,-4.614,-4.7131,-4.7425,-4.7829,-4.8306,-4.8636,-4.9077,-4.9591,-4.9921,-5.0765,-5.1977,-5.1985,-5.2463,-5.3225,-5.3225,-5.3225,-5.3298,-5.4106,-5.4399,-5.462,-4.9018,-4.956,-4.9999,-4.9999,-4.9999,-4.9999,-4.9999,-4.9424,-4.9018,-4.9018,-4.9018,-4.8984,-4.8951,-4.8917,-4.8612,-4.7834,-4.78,-4.7225,-4.5737,-4.5635,-4.4993,-4.3572,-4.2726,-4.1982,-4.1305,-4.0493,-4.0087,-4.0087,-3.9411,-3.9073,-3.9073,-3.9073,-3.9073,-3.9106,-3.9783,-4.0087,-4.0054,-3.9343,-3.9411,-3.9817,-3.7753,-3.728,-3.7753,-3.711,-3.6806,-3.6874,-3.7652,-3.7449,-3.6874,-3.6874,-3.6366,-3.5893,-3.6637,-3.6907,-3.6907,-3.6874,-3.7381,-3.8125,-3.8802,-3.9039,-3.9242,-3.9918,-4.0087,-4.0087,-4.0087,-4.0087,-4.0087,-4.0087,-4.0087,-4.0087,-4.0087,-4.0087,-3.9851,-3.9106,-3.9397,-3.9188,-3.7733,-3.8351,-3.9047,-3.9118,-4.0258,-4.1038,-4.1111,-4.1735,-4.1846,-4.1148,0.0,-4.1038,-4.1111,-4.0487,-4.0487,-4.1258,-4.2763,-4.4011,-4.4856,-4.6361,-4.7131,-4.7205,-4.7939,-4.8343,-4.8416,-4.9224,-4.9627,-4.9811,-5.0545,-5.1353,-5.2087,-5.2059,-5.2537,-5.3225,-5.3225,-5.3225,-5.3298,-5.4032,-5.4326,-5.4546,-4.9018,-4.9154,-4.9255,-4.9255,-4.9255,-4.9255,-4.9255,-4.912,-4.9018,-4.9018,-4.9018,-4.8781,-4.824,-4.8173,-4.7665,-4.6346,-4.6752,-4.6413,-4.4959,-4.4857,-4.4688,-4.4316,-4.2997,-4.2219,-4.2049,-4.0764,-4.0087,-4.0087,-3.9918,-3.9817,-3.9817,-3.9817,-3.9817,-3.9817,-3.9986,-4.0087,-4.0054,-3.9884,-3.9614,-3.9208,-3.8667,-3.7889,-3.7077,-3.7483,-3.728,-3.6874,-3.7652,-3.7787,-3.7652,-3.7652,-3.7516,-3.7415,-3.7584,-3.8024,-3.8362,-3.7787,-3.8159,-3.8768,-3.8937,-3.9411,-3.9851,-4.0054,-4.0087,-4.0087,-4.0087,-4.0087,-4.0087,-4.0087,-4.0087,-4.0087,-4.0087,-4.0087,-3.9851,-3.9106,-3.9237,-3.9153,-3.8244,-3.8474,-3.9008,-3.9662,-3.9983,-4.0414,-4.1038,-4.0708,-4.0634,-4.1075,-4.0524,-4.0451,-4.1075,-4.2066,-4.2727,-4.291,-4.3901,-4.5112,-4.6544,-4.6911,-4.7425,-4.8012,-4.8233,-4.8636,-4.9297,-4.9481,-5.0251,-5.1426,-5.161,-5.216,-5.2931,-5.2894,-5.3004,-5.3225,-5.3225,-5.3225,-5.3225,-5.3408,-5.3482,-5.3702,-4.9018,-4.9018,-4.9018,-4.9018,-4.9018,-4.9018,-4.9018,-4.9018,-4.9018,-4.9018,-4.8714,-4.8342,-4.797,-4.7597,-4.6955,-4.5805,-4.6075,-4.5805,-4.4654,-4.4587,-4.4587,-4.4587,-4.3098,-4.2286,-4.2286,-4.0832,-4.0087,-4.0087,-4.0087,-4.0087,-4.0087,-4.0087,-4.0087,-4.0087,-4.0087,-4.0087,-4.0087,-4.0087,-3.9851,-3.9445,-3.914,-3.8497,-3.7821,-3.8261,-3.8159,-3.7889,-3.8633,-3.87,-3.8396,-3.8396,-3.8193,-3.7956,-3.8294,-3.8667,-3.8971,-3.8903,-3.9174,-3.9478,-3.9478,-3.9783,-4.0087,-4.0087,-4.0087,-4.0087,-4.0087,-4.0087,-4.0087,-4.0087,-4.0087,-4.0087,-4.0087,-3.9817,-3.9343,-3.8633,-3.8712,-3.8656,-3.7877,-3.8321,-3.9129,-4.0304,-4.0451,-4.0928,-4.2066,-4.1809,-4.1735,-4.2176,-4.1772,-4.1882,-4.2727,-4.3571,-4.3864,-4.3497,-4.5002,-4.625,-4.7057,-4.7462,-4.7865,-4.8306,-4.871,-4.9114,-4.9591,-5.0362,-5.1169,-5.2013,-5.238,-5.2821,-5.3225,-5.3225,-5.3225,-5.3225,-5.3225,-5.3225,-5.3225,-5.3225,-5.3445,-5.3922,-4.9018,-4.9018,-4.9018,-4.9018,-4.9018,-4.9018,-4.9018,-4.9018,-4.9018,-4.9018,-4.8376,-4.7868,-4.7767,-4.709,-4.6346,-4.5602,-4.5534,-4.5263,-4.4621,-4.4587,-4.4519,-4.4418,-4.3031,-4.2252,-4.2117,-4.0764,-4.0087,-4.0087,-4.0087,-4.0087,-4.0087,-4.0087,-4.0087,-4.0087,-4.0087,-4.0087,-4.0087,-4.0087,-4.002,-3.9884,-3.9343,-3.9039,-3.887,-3.9073,-3.9073,-3.9073,-3.9817,-3.9681,-3.9174,-3.9174,-3.8734,-3.8328,-3.8971,-3.9174,-3.9276,-3.9884,-4.0087,-4.0087,-4.0087,-4.0087,-4.0087,-4.0087,-4.0087,-4.0087,-4.0087,-4.0087,-4.0087,-4.0087,-4.0087,-4.0087,-4.0087,-3.9478,-3.8802,-3.8159,-3.8192,-3.8051,-3.7341,-3.811,-3.926,-4.0693,-4.1061,-4.1789,-4.3393,-4.3539,-4.3648,-4.3864,-4.3754,-4.4011,-4.4856,-4.5002,-4.4745,-4.4048,-4.614,-4.7425,-4.7682,-4.8343,-4.8673,-4.871,-4.9407,-4.9811,-4.9994,-5.1353,-5.205,-5.2197,-5.2894,-5.3225,-5.3225,-5.3225,-5.3225,-5.3225,-5.3225,-5.3225,-5.3225,-5.3225,-5.3628,-5.4326,-4.9018,-4.9018,-4.9018,-4.9018,-4.9018,-4.9018,-4.9018,-4.9018,-4.9018,-4.9018,-4.8376,-4.7665,-4.7022,-4.6312,-4.5568,-4.4823,-4.4756,-4.4688,-4.4587,-4.4587,-4.4282,-4.3639,-4.276,-4.2016,-4.1373,-4.0527,-4.0087,-4.0087,-4.0087,-4.0087,-4.0087,-4.0087,-4.0087,-4.0087,-4.0087,-4.0087,-4.0087,-4.0087,-3.9715,-3.9208,-3.9715,-3.9174,-3.8227,-3.9445,-3.9512,-3.9073,-3.9817,-4.002,-3.9918,-3.9918,-3.9851,-3.9749,-3.9884,-3.9918,-3.9918,-4.0054,-4.0087,-4.0087,-4.0087,-4.0087,-4.0087,-4.0087,-4.0087,-4.0087,-4.0087,-4.0087,-4.0087,-4.0087,-4.0087,-4.0087,-4.0087,-3.9478,-3.8937,-3.8836,-3.8538,-3.8108,-3.752,-3.832,-3.9157,-3.9643,-4.0846,-4.2185,-4.3674,-4.3821,-4.4266,-4.5443,-4.4892,-4.4856,-4.5663,-4.6361,-4.6691,-4.6544,-4.7572,-4.8783,-5.0215,-5.0362,-5.0398,-5.0398,-5.0545,-5.0949,-5.1646,-5.1867,-5.238,-5.3041,-5.3151,-5.3225,-5.3225,-5.3225,-5.3225,-5.3225,-5.3225,-5.3225,-5.3225,-5.3225,-5.3298,-5.3518,-4.8386,-4.8639,-4.9018,-4.9018,-4.9018,-4.9018,-4.9018,-4.868,-4.8409,-4.8409,-4.7428,-4.6583,-4.6244,-4.5534,-4.4959,-4.4621,-4.4587,-4.4587,-4.4587,-4.4587,-4.4215,-4.347,-4.2692,-4.1745,-4.0629,-4.0257,-4.0087,-4.0087,-4.0087,-4.0087,-4.0087,-4.0087,-4.0087,-4.0087,-4.0087,-4.0087,-4.0087,-4.0087,-3.9884,-3.9614,-3.9952,-3.9681,-3.914,-3.9817,-3.9884,-3.9614,-3.9952,-4.0087,-4.0087,-4.0087,-4.0087,-4.0087,-4.0087,-4.0087,-4.0087,-4.0087,-4.0087,-4.0087,-4.0087,-4.0087,-4.0087,-4.0087,-4.0087,-4.0087,-4.0087,-4.0087,-4.0087,-4.0087,-4.0087,-4.0087,-4.0087,-3.9478,-3.9005,-3.9005,-3.8387,-3.7917,-3.8079,-3.8742,-3.9566,-4.0565,-4.1654,-4.2731,-4.3857,-4.3964,-4.4319,-4.5358,-4.5069,-4.5366,-4.647,-4.6608,-4.6815,-4.7252,-4.7616,-4.8598,-5.0198,-4.9798,-5.0003,-5.0802,-5.1242,-5.1646,-5.2013,-5.2454,-5.2858,-5.3225,-5.3225,-5.3225,-5.3225,-5.3225,-5.3225,-5.3225,-5.3225,-5.3225,-5.3225,-5.3225,-5.3482,-5.3922,-4.783,-4.8379,-4.9018,-4.9018,-4.9018,-4.9018,-4.9018,-4.8545,-4.8105,-4.7936,-4.6786,-4.5906,-4.5737,-4.5026,-4.4587,-4.4587,-4.4587,-4.4587,-4.4587,-4.4587,-4.4147,-4.32,-4.2252,-4.1238,-4.0087,-4.0087,-4.0087,-4.0087,-4.0087,-4.0087,-4.0087,-4.0087,-4.0087,-4.0087,-4.0087,-4.0087,-4.0087,-4.0087,-4.0087,-4.0087,-4.0087,-4.0087,-4.0087,-4.0087,-4.0087,-4.0087,-4.0087,-4.0087,-4.0087,-4.0087,-4.0087,-4.0087,-4.0087,-4.0087,-4.0087,-4.0087,-4.0087,-4.0087,-4.0087,-4.0087,-4.0087,-4.0087,-4.0087,-4.0087,-4.0087,-4.0087,-4.0087,-4.0087,-4.0087,-4.0087,-4.0087,-3.9478,-3.9039,-3.9208,-3.8437,-3.8027,-3.886,-3.9408,-4.02,-4.1436,-4.2369,-4.322,-4.4003,-4.4214,-4.4597,-4.5293,-4.5515,-4.5972,-4.6892,-4.6663,-4.6721,-4.7205,-4.7555,-4.8461,-5.0042,-4.9604,-4.9989,-5.1109,-5.1935,-5.227,-5.2307,-5.2931,-5.3225,-5.3225,-5.3225,-5.3225,-5.3225,-5.3225,-5.3225,-5.3225,-5.3225,-5.3225,-5.3225,-5.3225,-5.3592,-5.4106,-4.7848,-4.8483,-4.9018,-4.9018,-4.9018,-4.9018,-4.9018,-4.8951,-4.868,-4.8003,-4.7225,-4.6447,-4.5771,-4.5026,-4.4587,-4.4587,-4.4587,-4.4587,-4.4587,-4.4587,-4.391,-4.2455,-4.1001,-4.0189,-4.0087,-4.0087,-4.0087,-4.0087,-4.0087,-4.0087,-4.0087,-4.0087,-4.0087,-4.0087,-4.0087,-4.0087,-4.0087,-4.0087,-4.0087,-4.0087,-4.0087,-4.0087,-4.0087,-4.0087,-4.0087,-4.0087,-4.0087,-4.0087,-4.0087,-4.0087,-4.0087,-4.0087,-4.0087,-4.0087,-4.0087,-4.0087,-4.0087,-4.0087,-4.0087,-4.0087,-4.0087,-4.0087,-4.0087,-4.0087,-4.0087,-4.0087,-4.0087,-4.0087,-4.0087,-4.0087,-4.0087,-3.9478,-3.9208,-3.9884,-3.9191,-3.886,-3.9831,-4.0439,-4.0892,-4.1206,-4.246,-4.3663,-4.4297,-4.5006,-4.5676,-4.6271,-4.6991,-4.7133,-4.6471,-4.7098,-4.7231,-4.6691,-4.797,-4.9451,-5.1012,-5.1574,-5.1896,-5.1979,-5.2784,-5.3115,-5.3115,-5.3188,-5.3225,-5.3225,-5.3225,-5.3225,-5.3225,-5.3225,-5.3225,-5.3225,-5.3225,-5.3225,-5.3225,-5.3225,-5.3261,-5.3298,-4.6457,-4.7032,-4.7631,-4.7631,-4.7631,-4.78,-4.8274,-4.7564,-4.7192,-4.7834,-4.6447,-4.55,-4.5669,-4.5026,-4.4587,-4.4587,-4.4587,-4.4587,-4.4587,-4.4587,-4.3876,-4.2354,-4.1305,-4.0561,-4.0087,-4.0087,-4.0087,-4.0087,-4.0087,-4.0087,-4.0087,-4.0087,-4.0087,-4.0087,-4.0087,-4.0087,-4.0087,-4.0087,-4.0087,-4.0087,-4.0087,-4.0087,-4.0087,-4.0087,-4.0087,-4.0087,-4.0087,-4.0087,-4.0087,-4.0087,-4.0087,-4.0087,-4.0087,-4.0087,-4.0087,-4.0087,-4.0087,-4.0087,-4.0087,-4.0087,-4.0087,-4.0087,-4.0087,-4.0087,-4.0087,-4.0087,-4.0223,-4.0696,-4.0764,-4.0899,-4.1373,-4.1238,-4.1136,-4.1407,-4.0764,-4.0508,-4.1357,-4.1648,-4.1971,-4.2489,-4.3504,-4.4224,-4.4517,-4.479,-4.5367,-4.6428,-4.6793,-4.7031,-4.7143,-4.7031,-4.7106,-4.7363,-4.7923,-4.873,-4.9746,-5.0429,-5.1226,-5.2112,-5.2381,-5.2509,-5.2509,-5.2509,-5.2509,-5.2554,-5.298,-5.3225,-5.3225,-5.3225,-5.3225,-5.3225,-5.3225,-5.3518,-5.3885,-5.3408,-5.3849,-5.4546,-4.5629,-4.6227,-4.6786,-4.6786,-4.6786,-4.6955,-4.7496,-4.6718,-4.6346,-4.7124,-4.5872,-4.5026,-4.5331,-4.4891,-4.4587,-4.4587,-4.4587,-4.4587,-4.4587,-4.435,-4.3639,-4.2354,-4.1576,-4.0832,-4.0087,-4.0087,-4.0087,-4.0087,-4.0087,-4.0087,-4.0087,-4.0087,-4.0087,-4.0087,-4.0087,-4.0087,-4.0087,-4.0087,-4.0087,-4.0087,-4.0087,-4.0087,-4.0087,-4.0087,-4.0087,-4.0087,-4.0087,-4.0087,-4.0087,-4.0087,-4.0087,-4.0087,-4.0087,-4.0087,-4.0087,-4.0087,-4.0257,-4.0426,-4.0426,-4.0595,-4.0663,-4.0189,-4.0426,-4.0663,-4.0189,-4.0426,-4.0865,-4.1136,-4.1373,-4.1711,-4.2185,-4.2286,-4.2286,-4.2286,-4.188,-4.188,-4.2861,-4.2997,-4.3369,-4.435,-4.4959,-4.5263,-4.5263,-4.5263,-4.566,-4.6605,-4.688,-4.7202,-4.7684,-4.7015,-4.7009,-4.7817,-4.8089,-4.8564,-4.9237,-4.9959,-5.0809,-5.179,-5.2018,-5.2112,-5.2112,-5.1886,-5.1886,-5.2112,-5.2644,-5.298,-5.3225,-5.3225,-5.3225,-5.3225,-5.3482,-5.3775,-5.4032,-5.3959,-5.4473,-5.5097,-4.5703,-4.6278,-4.6786,-4.6786,-4.6786,-4.6786,-4.6786,-4.6786,-4.6515,-4.5805,-4.5703,-4.5399,-4.4688,-4.4587,-4.4587,-4.4587,-4.4587,-4.4587,-4.4587,-4.3842,-4.3064,-4.232,-4.1576,-4.0832,-4.0087,-4.0087,-4.0087,-4.0087,-4.0087,-4.0087,-4.0087,-4.0087,-4.0087,-4.0087,-4.0087,-4.0087,-4.0087,-4.0087,-4.0087,-4.0087,-4.0087,-4.0087,-4.0087,-4.0087,-4.0087,-4.0087,-4.0087,-4.0087,-4.0087,-4.0087,-4.0087,-4.0087,-4.0087,-4.0087,-4.0087,-4.0087,-4.0629,-4.1204,-4.1204,-4.1745,-4.1948,-4.046,-4.1204,-4.1914,-4.0426,-4.1238,-4.2083,-4.1373,-4.1813,-4.2286,-4.232,-4.232,-4.232,-4.232,-4.232,-4.2861,-4.4384,-4.4587,-4.5128,-4.6616,-4.6786,-4.6786,-4.6786,-4.6786,-4.6786,-4.6819,-4.7496,-4.7936,-4.7936,-4.7225,-4.7101,-4.7781,-4.8508,-4.9272,-5.0004,-5.0732,-5.1086,-5.1086,-5.1741,-5.2112,-5.2065,-5.1393,-5.1444,-5.2112,-5.2112,-5.2509,-5.3188,-5.3225,-5.3225,-5.3298,-5.4069,-5.3922,-5.3408,-5.4987,-5.5097,-5.4546,-4.4925,-4.5094,-4.5058,-4.4464,-4.485,-4.5226,-4.513,-4.5186,-4.5534,-4.638,-4.5568,-4.5026,-4.5331,-4.4891,-4.4587,-4.4587,-4.4064,-4.368,-4.368,-4.353,-4.3064,-4.232,-4.1576,-4.0832,-4.0087,-4.0087,-4.0087,-4.0087,-4.0087,-4.0087,-4.0087,-4.0087,-4.0087,-4.0087,-4.0087,-4.0087,-4.0087,-4.0087,-4.0087,-4.0087,-4.0087,-4.0087,-4.0087,-4.0087,-4.0087,-4.0087,-4.0087,-4.0087,-4.0087,-4.0087,-4.0087,-4.0087,-4.0087,-4.046,-4.0865,-4.0865,-4.1373,-4.1982,-4.1982,-4.2523,-4.2861,-4.188,-4.1948,-4.2185,-4.1711,-4.1982,-4.2388,-4.2692,-4.2929,-4.3234,-4.3809,-4.3876,-4.4079,-4.4587,-4.4688,-4.5026,-4.6007,-4.6143,-4.6312,-4.6752,-4.6786,-4.6786,-4.6786,-4.6786,-4.7022,-4.753,-4.78,-4.8139,-4.8646,-4.797,-4.792,-4.8635,-4.9332,-4.9799,-5.0021,-5.1236,-5.1544,-5.1086,-5.1292,-5.1138,-5.0608,-5.039,-5.0445,-5.0716,-5.2265,-5.2763,-5.2517,-5.3586,-5.3702,-5.3225,-5.3482,-5.4106,-5.4876,-5.4803,-5.5377,-5.6055,-4.4121,-4.4064,-4.3798,-4.2925,-4.3229,-4.3694,-4.3943,-4.4038,-4.4514,-4.5805,-4.5128,-4.4756,-4.5196,-4.4539,-4.4064,-4.4064,-4.329,-4.2925,-4.329,-4.304,-4.287,-4.276,-4.1745,-4.0832,-4.0087,-4.0087,-4.0087,-4.0087,-4.0087,-4.0087,-4.0087,-4.0087,-4.0087,-4.0087,-4.0087,-4.0087,-4.0087,-4.0087,-4.0087,-4.0087,-4.0087,-4.0087,-4.0087,-4.0087,-4.0087,-4.0087,-4.0087,-4.0087,-4.0087,-4.0087,-4.0087,-4.0087,-4.0087,-4.0595,-4.1204,-4.1204,-4.1948,-4.2726,-4.2726,-4.3301,-4.3775,-4.3301,-4.32,-4.3031,-4.2422,-4.276,-4.3234,-4.3369,-4.3673,-4.4012,-4.4485,-4.4823,-4.5162,-4.5635,-4.594,-4.638,-4.7124,-4.7259,-4.7327,-4.7631,-4.7665,-4.7665,-4.7665,-4.7665,-4.7868,-4.8308,-4.8342,-4.8545,-4.8984,-4.8578,-4.8633,-4.9342,-4.978,-5.0146,-5.0445,-5.1292,-5.1494,-5.1086,-5.0823,-5.0445,-4.9976,-4.9722,-4.978,-5.0124,-5.1759,-5.2534,-5.2688,-5.3952,-5.4326,-5.4179,-5.4509,-5.481,-5.5176,-5.5358,-5.5618,-5.5883,-4.335,-4.3169,-4.2925,-4.2078,-4.1917,-4.2269,-4.3047,-4.3229,-4.3621,-4.4497,-4.4587,-4.4587,-4.4497,-4.3772,-4.3229,-4.3169,-4.2458,-4.2332,-4.3047,-4.2419,-4.2435,-4.3238,-4.1876,-4.0814,-4.0189,-4.0189,-4.0155,-4.0087,-4.0155,-4.0155,-4.0087,-4.0087,-4.0087,-4.0087,-4.0087,-4.0087,-4.0087,-4.0087,-4.0087,-4.0087,-4.0087,-4.0087,-4.0087,-4.0087,-4.0087,-4.0087,-4.0087,-4.0087,-4.0087,-4.0155,-4.0189,-4.0189,-4.0257,-4.0798,-4.1407,-4.1407,-4.2422,-4.3538,-4.3538,-4.4079,-4.4688,-4.4688,-4.4722,-4.4384,-4.2861,-4.3673,-4.4553,-4.3707,-4.4181,-4.4756,-4.4688,-4.5297,-4.5838,-4.5906,-4.6447,-4.7158,-4.7902,-4.8003,-4.8274,-4.8917,-4.9018,-4.9018,-4.9018,-4.9018,-4.9018,-4.9018,-4.9018,-4.9018,-4.9018,-4.9018,-4.9256,-4.9861,-4.9976,-5.0335,-5.0981,-5.0981,-5.0981,-5.0981,-5.0335,-4.9941,-4.9861,-4.9256,-4.9411,-5.0022,-5.0906,-5.2038,-5.3344,-5.4269,-5.4935,-5.5595,-5.63,-5.5749,-5.4669,-5.614,-5.5777,-5.4691,-4.2458,-4.2269,-4.2013,-4.1131,-4.1528,-4.2045,-4.2269,-4.2863,-4.3621,-4.4497,-4.4587,-4.4327,-4.368,-4.3443,-4.3047,-4.2332,-4.2141,-4.1788,-4.1264,-4.1215,-4.1573,-4.2435,-4.1011,-4.04,-4.0967,-4.0967,-4.0663,-4.0087,-4.0663,-4.0663,-4.0087,-4.0087,-4.0087,-4.0087,-4.0087,-4.0087,-4.0087,-4.0087,-4.0087,-4.0087,-4.0087,-4.0087,-4.0087,-4.0087,-4.0087,-4.0087,-4.0087,-4.0087,-4.0155,-4.0764,-4.0967,-4.1068,-4.1644,-4.232,-4.2929,-4.2929,-4.3606,-4.4316,-4.4316,-4.4891,-4.5466,-4.5466,-4.5906,-4.5906,-4.4418,-4.5229,-4.594,-4.4587,-4.5399,-4.6143,-4.5568,-4.6075,-4.6752,-4.7361,-4.7564,-4.7936,-4.868,-4.8781,-4.8815,-4.8984,-4.9018,-4.9018,-4.9018,-4.9018,-4.9018,-4.9018,-4.9018,-4.9018,-4.9018,-4.9018,-4.9046,-4.9195,-4.9722,-5.009,-5.0223,-5.0223,-5.0223,-5.0223,-5.0084,-4.9723,-4.9195,-4.9046,-4.9406,-5.0154,-5.1546,-5.2577,-5.3488,-5.488,-5.5134,-5.4733,-5.4866,-5.4774,-5.4526,-5.4891,-5.5187,-5.5472,-4.1528,-4.1396,-4.1095,-4.0239,-4.0447,-4.0894,-4.133,-4.1788,-4.2395,-4.3229,-4.335,-4.3169,-4.2707,-4.2332,-4.1755,-4.0857,-4.0789,-4.0758,-4.069,-4.0751,-4.1374,-4.267,-4.1584,-4.1421,-4.2199,-4.1914,-4.117,-4.0087,-4.0493,-4.046,-4.0087,-4.0087,-4.0087,-4.0087,-4.0087,-4.0087,-4.0087,-4.0087,-4.0087,-4.0087,-4.0087,-4.0087,-4.0087,-4.0087,-4.0087,-4.0087,-4.0087,-4.0324,-4.073,-4.1474,-4.1711,-4.1779,-4.2185,-4.2828,-4.3403,-4.3403,-4.3978,-4.4654,-4.5026,-4.5399,-4.5805,-4.6143,-4.6786,-4.7022,-4.5906,-4.6244,-4.6583,-4.5805,-4.6244,-4.6684,-4.6312,-4.6819,-4.7462,-4.7868,-4.8206,-4.8578,-4.8951,-4.9018,-4.9018,-4.9018,-4.9018,-4.9018,-4.9018,-4.9323,-4.9526,-4.9526,-4.9864,-5.0067,-5.0067,-4.9729,-4.9526,-4.9526,-4.9547,-4.9692,-5.0035,-5.0026,-5.0026,-5.0035,-5.0051,-5.0043,-5.0028,-4.9661,-4.9757,-5.0125,-5.1366,-5.2248,-5.3043,-5.4952,-5.545,-5.5092,-5.546,-5.5147,-5.4571,-5.4535,-5.4797,-5.5215,-4.0622,-4.0485,-4.0239,-3.9553,-3.9409,-3.9666,-4.0554,-4.069,-4.1028,-4.1885,-4.1981,-4.1917,-4.1788,-4.1028,-4.017,-3.9481,-3.9409,-3.9737,-4.0416,-4.0485,-4.1229,-4.2769,-4.2146,-4.2137,-4.298,-4.2375,-4.1504,-4.0257,-4.0392,-4.0324,-4.0087,-4.0223,-4.0189,-4.0087,-4.0223,-4.0257,-4.029,-4.0392,-4.0392,-4.0257,-4.0257,-4.0257,-4.0257,-4.0257,-4.0358,-4.046,-4.046,-4.0865,-4.1508,-4.2252,-4.2489,-4.2489,-4.2625,-4.3098,-4.3639,-4.3775,-4.4282,-4.4925,-4.5703,-4.5974,-4.621,-4.6853,-4.753,-4.7936,-4.7327,-4.7158,-4.709,-4.6853,-4.6989,-4.7124,-4.6989,-4.7597,-4.8105,-4.8105,-4.8612,-4.9018,-4.9018,-4.9018,-4.9018,-4.9018,-4.912,-4.9187,-4.9187,-4.9864,-5.027,-5.027,-5.0845,-5.1217,-5.1217,-5.0608,-5.0236,-5.0101,-4.9627,-4.9593,-5.0096,-5.0255,-5.0391,-5.0503,-5.0473,-5.0642,-5.1011,-5.0477,-5.0342,-5.0536,-5.1119,-5.1987,-5.3107,-5.479,-5.5582,-5.5777,-5.6313,-5.5653,-5.4419,-5.4713,-5.4817,-5.4903,-3.9737,-3.9625,-3.9553,-3.9409,-3.9409,-3.9666,-4.0554,-4.069,-4.1028,-4.1885,-4.1981,-4.1723,-4.0961,-4.013,-3.9553,-3.9409,-3.9409,-3.9409,-3.9553,-3.9625,-3.999,-4.1028,-4.0372,-4.0419,-4.1304,-4.1205,-4.1111,-4.1068,-4.1677,-4.1339,-4.0087,-4.073,-4.0696,-4.0121,-4.0764,-4.1068,-4.1102,-4.1711,-4.161,-4.1068,-4.1068,-4.1068,-4.1068,-4.1068,-4.1441,-4.1982,-4.1982,-4.2049,-4.2252,-4.2997,-4.3267,-4.3369,-4.4045,-4.435,-4.4553,-4.5196,-4.5466,-4.5703,-4.6447,-4.7124,-4.7631,-4.7733,-4.8308,-4.8849,-4.8748,-4.8714,-4.8342,-4.7056,-4.78,-4.8511,-4.7868,-4.8376,-4.8849,-4.8849,-4.8951,-4.9018,-4.9018,-4.9018,-4.9018,-4.9018,-4.956,-4.9932,-4.9932,-5.0642,-5.1082,-5.1082,-5.115,-5.1217,-5.1217,-5.1116,-5.0777,-5.0101,-5.0642,-5.0638,-5.0113,-5.0706,-5.1349,-5.1987,-5.1993,-5.1391,-5.0255,-5.0827,-5.1361,-5.1987,-5.2089,-5.3333,-5.5218,-5.4899,-5.5145,-5.5667,-5.5071,-5.4321,-5.3817,-5.5077,-5.5531,-5.5786,-3.9481,-3.9409,-3.9409,-3.9409,-3.9409,-3.9553,-3.992,-3.999,-4.013,-4.0516,-4.0516,-4.0378,-3.999,-3.9595,-3.9409,-3.9409,-3.9409,-3.9409,-3.9409,-3.9849,-4.0516,-4.1396,-4.1566,-4.1894,-4.2311,-4.2311,-4.1997,-4.1204,-4.1542,-4.1339,-4.073,-4.1035,-4.1035,-4.073,-4.1068,-4.1204,-4.1238,-4.1542,-4.1745,-4.1813,-4.1813,-4.1813,-4.1813,-4.1813,-4.2016,-4.2354,-4.276,-4.2929,-4.3031,-4.3809,-4.4079,-4.4181,-4.4959,-4.5196,-4.5365,-4.6109,-4.6312,-4.6481,-4.7225,-4.7665,-4.8003,-4.8409,-4.8781,-4.9018,-4.9018,-4.9018,-4.8815,-4.8173,-4.8545,-4.8917,-4.8578,-4.8781,-4.912,-4.956,-4.9255,-4.9154,-4.956,-4.9593,-4.9763,-5.0202,-4.9796,-4.9796,-5.0642,-5.1014,-5.1386,-5.1792,-5.2232,-5.2503,-5.2503,-5.2063,-5.1657,-5.1319,-5.1251,-5.1248,-5.1342,-5.162,-5.1961,-5.2301,-5.2773,-5.2639,-5.2,-5.1866,-5.1965,-5.2329,-5.2329,-5.3129,-5.4477,-5.459,-5.4774,-5.5049,-5.4675,-5.4143,-5.3584,-5.4661,-5.5036,-5.5238]}]]